GFSCGP_con_lsi_000.txt.gz
Lid_Strength_Index
11 13 14 13 13 14 15 16 16 15 13 14 15 14 16 15 17 19 19 19 19 18 17 16 17 17 17 17 16 16 15 15 14 14 14 15 15 14 13 13 12 12 11 9
12 14 12 12 13 14 14 16 16 15 14 15 15 16 15 15 16 16 18 20 19 18 18 17 17 18 17 17 17 16 15 15 15 14 14 15 15 14 14 13 13 12 12 11
13 12 12 13 14 15 16 16 16 16 16 16 17 19 16 17 16 18 18 18 19 18 18 18 18 19 18 17 17 16 15 15 15 15 14 15 15 15 15 14 14 13 12 12
14 13 13 14 15 14 17 15 15 16 18 21 19 22 19 19 18 18 18 19 19 19 18 18 18 18 18 17 17 16 15 15 15 15 16 16 17 17 16 15 14 14 13 13
13 15 15 15 14 13 15 15 16 17 19 21 20 22 20 20 20 19 18 19 20 19 18 18 18 17 17 16 17 16 16 16 16 16 16 16 17 16 15 15 15 15 14 13
13 13 14 14 13 14 14 16 17 18 20 24 21 21 23 22 19 18 18 19 19 19 19 18 17 17 17 17 17 17 17 16 16 16 16 17 17 17 17 16 16 16 16 14
15 15 15 13 15 14 15 18 21 23 24 22 21 23 18 18 18 18 18 19 20 19 19 18 18 18 17 17 17 17 17 17 16 17 17 17 17 17 17 17 17 17 17 16
17 17 15 14 15 15 16 17 20 24 24 19 22 23 20 19 20 18 17 19 20 20 19 18 18 18 18 17 17 17 18 17 17 17 17 17 17 17 17 17 17 17 17 17
17 17 16 15 15 15 17 19 17 21 31 28 22 21 19 21 21 21 21 20 21 20 19 18 18 18 18 18 18 18 18 17 17 18 18 18 17 17 17 17 17 17 17 16
14 17 17 17 16 17 17 16 20 20 25 28 22 22 20 22 22 22 21 21 21 20 19 18 18 18 18 18 18 18 18 18 18 18 19 18 18 18 17 17 18 18 17 17
15 15 18 18 18 17 19 19 19 19 19 23 24 19 19 20 19 21 21 20 20 20 19 18 18 18 18 18 19 19 20 19 19 19 19 19 19 18 18 18 18 18 17 17
15 17 19 19 18 18 17 17 17 20 22 21 21 21 17 18 18 19 20 20 20 19 19 18 19 19 19 19 20 20 20 20 20 20 20 20 19 19 19 19 18 18 18 18
15 18 21 18 19 20 20 19 17 18 18 20 23 20 20 20 20 20 21 20 20 19 19 19 19 19 20 21 21 21 21 21 20 21 21 21 20 20 20 19 19 19 18 19
12 17 17 17 16 17 20 21 19 18 20 20 20 19 16 18 21 22 21 20 20 19 19 19 20 20 21 21 22 22 22 21 21 22 22 22 21 20 20 19 19 19 19 20
14 16 17 14 13 17 16 16 19 20 19 20 18 17 15 14 16 20 19 20 19 20 19 20 20 21 22 22 22 22 22 22 22 22 23 22 21 20 20 20 20 20 20 20
16 17 17 17 16 17 19 17 17 17 17 18 17 18 14 13 19 20 20 19 19 19 19 19 19 21 21 22 22 22 23 23 22 23 23 22 22 21 21 21 21 20 21 21
18 17 19 19 19 19 21 19 18 17 17 17 20 17 14 16 20 20 20 19 19 19 19 20 21 22 22 23 22 24 24 23 23 23 23 23 22 23 23 23 22 21 22 22
18 17 18 20 21 24 17 20 18 18 17 17 17 16 16 19 19 19 18 19 19 19 20 21 23 24 23 23 24 24 23 23 24 24 24 23 24 24 24 24 23 23 22 22
14 15 19 21 21 19 17 16 20 21 18 17 17 16 15 19 20 21 19 20 20 21 21 23 24 24 24 25 24 25 24 24 24 25 24 24 25 26 26 26 24 22 22 22
16 16 17 22 23 24 17 22 20 18 21 16 17 17 20 20 23 22 21 21 21 22 22 23 24 24 25 25 25 25 25 25 26 25 25 25 26 28 27 25 23 22 23 22
21 20 20 19 19 21 17 20 19 22 17 19 18 19 20 20 19 19 20 21 21 23 23 24 25 25 26 25 25 26 26 27 26 26 26 27 27 28 24 23 23 23 23 22
21 21 23 19 22 23 18 21 20 17 19 19 19 19 19 19 20 20 20 22 23 24 24 24 25 26 26 25 27 27 28 26 26 27 28 30 29 24 22 24 24 23 24 24
18 18 20 19 20 17 17 18 16 17 18 18 18 18 18 19 20 20 21 22 23 24 24 25 27 27 26 26 27 29 27 27 28 31 32 30 26 23 22 24 24 25 25 25
18 15 18 18 16 16 17 15 16 16 17 17 17 17 17 18 19 20 21 23 24 24 25 26 27 27 27 27 27 28 28 28 32 33 31 27 25 24 23 23 23 25 25 26
16 16 16 17 15 16 14 16 15 16 16 17 17 17 17 18 19 20 22 24 24 25 26 27 27 28 28 28 28 29 29 30 32 31 28 27 25 24 24 23 24 24 23 23
16 15 17 16 13 13 13 14 15 16 16 16 17 18 18 17 19 20 23 24 25 26 27 28 28 28 28 28 28 29 31 32 34 31 29 27 25 25 24 25 25 22 22 21

GFSCGP_con_lsi_003.txt.gz
Lid_Strength_Index
11 13 15 13 13 14 16 17 17 15 14 15 15 14 13 15 16 17 19 19 19 19 17 17 17 17 18 18 17 17 16 16 16 16 17 16 17 16 16 15 14 14 14 13
13 14 13 13 13 14 16 17 17 15 15 15 16 16 14 15 15 16 16 18 19 19 19 18 18 18 18 18 17 17 17 16 16 16 16 17 18 18 17 16 15 15 14 14
13 13 12 14 15 15 16 17 17 17 16 16 18 20 17 16 15 15 16 17 18 18 19 19 19 18 19 18 18 17 17 16 16 17 16 17 17 18 18 17 16 15 15 14
13 13 14 15 15 15 17 15 16 16 18 21 18 22 20 18 17 16 17 19 18 19 19 19 19 19 18 18 18 17 17 17 16 17 17 18 20 20 19 18 17 16 15 15
13 15 15 16 15 14 15 15 17 18 19 20 20 22 21 20 19 17 17 18 18 19 19 19 19 18 17 17 18 18 18 17 16 17 18 18 19 18 18 18 18 17 16 15
13 14 15 14 15 14 14 16 17 19 20 24 21 21 23 20 18 18 18 18 19 19 19 19 18 18 18 18 18 18 18 17 17 18 18 19 20 19 19 19 18 18 17 16
15 15 15 14 15 14 15 17 20 22 24 22 22 23 18 16 17 18 18 18 19 19 19 19 19 19 18 19 18 18 18 18 18 18 19 20 20 20 20 19 19 18 18 17
16 17 15 14 15 15 16 16 19 23 24 20 22 22 19 18 19 20 19 18 19 20 19 19 19 19 19 19 18 19 19 19 19 20 20 20 20 20 19 19 19 18 18 18
17 17 16 15 15 15 17 19 17 19 30 27 20 20 18 20 20 21 20 21 21 20 20 19 19 19 19 19 19 19 20 20 20 20 21 21 22 21 20 20 19 18 18 17
13 16 17 17 17 17 17 16 20 20 25 28 22 21 18 19 19 22 22 21 20 20 20 19 19 19 19 19 19 20 20 21 21 21 22 21 22 21 20 20 20 19 18 18
14 14 18 18 18 17 19 19 19 18 19 23 26 19 17 17 18 21 21 20 20 20 20 19 19 19 19 19 20 21 21 21 21 21 22 22 22 21 21 20 20 19 19 18
14 15 19 18 19 19 17 17 17 19 21 21 20 19 19 17 17 20 20 20 20 19 20 20 19 19 20 20 21 21 22 22 22 22 22 23 22 22 22 21 20 19 19 19
14 17 22 19 19 19 20 18 17 17 19 19 20 19 19 19 20 20 20 20 20 20 20 20 20 20 20 21 22 22 23 23 22 23 23 23 23 23 22 21 20 20 20 19
11 15 17 17 17 18 20 20 19 17 19 17 18 17 15 14 15 19 21 21 20 19 19 20 20 20 21 21 23 23 24 23 23 24 24 24 23 23 22 21 21 21 21 21
12 14 16 14 13 16 16 16 20 19 17 18 17 17 15 13 13 13 15 20 20 20 19 20 20 21 22 23 23 24 24 24 24 25 25 24 23 23 22 22 22 22 22 21
15 14 14 16 15 16 17 16 16 17 17 17 16 17 12 11 12 13 18 20 20 19 19 19 19 20 21 22 23 23 25 25 24 25 24 24 24 23 23 23 23 23 22 22
18 17 20 18 17 17 19 17 16 15 14 15 18 15 12 13 17 19 20 19 19 19 19 20 21 22 22 23 23 26 26 25 25 25 26 26 25 25 25 24 25 24 24 23
20 20 18 18 20 21 16 18 16 16 15 15 14 14 13 13 18 18 19 19 19 19 20 21 22 24 24 24 25 26 25 25 25 26 27 26 26 27 26 26 26 25 24 22
14 17 18 18 19 16 16 16 20 19 16 15 15 14 13 19 21 20 20 19 18 19 20 22 24 25 25 26 26 26 26 26 26 27 27 27 27 28 28 29 27 25 24 23
16 14 15 18 20 21 15 21 19 18 20 13 15 15 16 20 23 17 20 20 21 22 23 24 25 25 26 27 26 27 27 27 28 28 28 27 28 30 30 28 26 25 24 22
19 18 18 17 18 17 14 20 19 22 16 17 15 15 20 19 16 19 20 21 21 22 24 25 25 26 27 27 27 27 28 28 29 28 28 29 29 30 29 26 26 26 24 22
18 19 20 18 18 20 19 21 18 14 17 17 18 19 18 18 19 19 20 22 23 24 24 25 26 27 27 28 28 28 28 29 28 29 31 31 32 29 26 28 27 25 24 24
17 15 16 16 16 15 17 13 14 16 16 18 18 19 17 19 20 20 21 22 23 24 24 25 26 27 28 29 29 30 30 29 29 34 35 33 30 28 27 27 27 25 23 23
15 14 15 16 14 14 17 14 17 16 16 17 18 17 17 19 19 20 21 22 23 24 26 27 28 28 30 30 29 31 30 30 37 37 33 29 29 28 27 26 25 24 23 23
11 14 14 14 13 13 13 13 14 15 16 17 17 17 16 17 19 20 21 22 23 25 26 27 27 29 30 29 30 31 31 32 35 32 29 30 29 29 27 25 24 22 21 20
12 13 15 15 11 11 11 11 14 15 15 15 16 17 16 17 18 19 20 22 24 26 27 28 28 29 30 30 30 31 35 36 37 32 31 30 29 29 27 26 24 20 19 18

GFSCGP_con_lsi_006.txt.gz
Lid_Strength_Index
12 13 14 14 14 14 15 17 17 16 14 15 15 15 13 12 16 16 16 17 17 17 18 18 18 18 18 18 18 17 17 17 17 17 18 18 19 18 18 17 16 16 16 15
13 14 13 13 13 15 16 17 17 16 16 16 16 16 14 13 14 15 15 16 17 17 19 18 18 19 19 18 18 18 17 17 17 17 18 18 19 18 18 17 17 17 16 16
14 13 12 13 15 15 17 17 18 17 17 17 18 18 18 15 15 14 14 14 16 17 18 18 19 19 19 19 19 18 17 17 17 18 18 18 18 19 19 19 19 18 17 16
13 13 14 15 15 15 17 16 17 17 19 20 17 20 19 16 16 16 15 16 16 17 18 18 18 20 20 19 18 18 18 18 17 18 18 20 20 21 20 20 19 18 17 17
13 15 15 15 15 15 16 16 18 18 19 21 21 22 20 20 18 14 15 15 16 17 18 18 18 18 19 18 19 19 19 19 18 18 19 20 20 20 20 20 20 19 18 17
14 15 15 14 15 16 15 17 18 20 21 23 20 20 22 20 18 16 16 17 17 18 18 18 18 19 18 19 19 19 19 19 18 19 19 20 21 21 21 21 21 20 19 18
15 15 16 14 16 15 16 17 20 22 23 21 22 23 19 17 17 16 16 17 18 19 19 19 19 19 19 19 19 19 19 20 19 20 20 21 21 22 22 21 21 20 20 19
16 17 16 15 14 15 17 16 19 24 24 21 23 23 19 17 16 18 19 18 18 20 19 19 19 18 19 19 20 19 20 20 20 20 21 21 21 21 21 21 21 21 20 20
16 16 16 16 16 16 18 19 17 20 29 26 20 20 18 17 18 18 19 18 19 21 20 19 19 19 20 20 20 20 20 20 21 21 21 22 22 22 22 22 21 21 20 19
13 15 17 18 18 19 18 16 19 20 24 28 22 21 19 16 17 16 19 20 20 21 20 19 19 19 20 20 20 20 21 21 21 22 22 22 23 22 22 22 22 21 20 19
13 13 17 18 19 19 20 19 20 19 20 23 26 20 18 16 15 15 17 19 20 20 20 19 19 19 19 20 20 21 21 22 22 22 23 23 23 22 22 22 22 21 20 20
14 14 16 16 19 19 17 17 17 19 20 22 21 19 17 16 15 16 17 18 20 20 20 19 19 20 20 20 21 22 22 23 23 23 23 23 23 23 23 23 22 21 21 20
13 15 17 17 19 19 19 17 17 17 19 21 20 19 17 18 17 18 18 19 20 20 21 20 20 20 20 21 21 22 23 24 23 24 25 24 24 24 23 23 22 22 22 21
11 14 17 18 18 18 19 19 17 16 19 17 19 17 15 13 13 12 16 20 20 20 20 19 19 20 20 21 22 23 24 24 24 25 25 25 24 24 24 23 23 23 22 22
14 16 16 15 15 18 18 18 18 20 18 18 17 17 15 13 12 12 12 15 20 21 20 19 19 20 21 22 23 24 25 25 25 26 26 25 24 24 24 23 23 23 22 22
17 17 16 17 16 17 17 17 16 19 18 18 17 17 12 11 11 12 12 15 19 20 19 19 19 20 21 21 24 23 26 25 25 26 25 25 25 25 25 24 24 24 24 23
19 19 22 19 18 18 19 18 15 15 14 16 19 16 12 13 12 12 12 17 18 19 19 19 19 20 21 22 23 26 26 25 26 25 26 27 26 26 26 26 26 25 25 24
18 19 17 18 21 22 16 13 15 16 15 14 13 13 12 11 11 17 15 16 18 18 19 19 20 22 23 25 25 26 25 26 26 26 27 27 27 28 27 27 27 27 25 24
14 17 18 19 19 17 16 17 18 18 16 14 15 13 12 12 18 15 17 16 16 18 18 19 21 23 24 26 26 26 26 26 27 28 28 28 28 29 29 30 28 27 25 25
14 14 15 16 19 21 16 14 17 16 18 13 12 13 13 17 17 14 17 19 20 19 21 23 23 24 25 26 26 26 27 28 28 28 28 28 28 30 30 29 29 26 27 25
18 17 18 18 18 16 13 19 17 19 17 14 12 12 13 16 13 17 20 20 21 22 23 24 25 26 26 26 27 27 28 29 29 29 29 29 30 31 30 29 28 28 27 25
16 17 18 18 18 19 14 18 16 13 11 12 16 15 15 15 19 20 20 21 23 24 23 24 26 27 27 27 27 28 29 29 29 30 31 32 33 32 29 30 29 28 27 26
15 13 14 14 15 13 14 11 11 10 10 12 16 16 15 17 19 20 21 22 23 23 24 24 26 27 28 28 28 28 30 30 30 34 35 36 32 30 29 30 29 28 27 25
12 11 13 13 12 13 14 12 10 9 11 11 15 17 16 18 19 20 21 22 23 23 24 26 27 28 30 29 30 30 30 31 36 35 31 29 30 30 28 27 26 27 26 25
10 10 12 12 11 11 10 10 10 12 14 16 16 16 16 17 18 19 20 22 22 24 25 25 26 27 29 30 31 31 32 34 34 32 29 30 30 31 29 27 28 25 23 20
9 10 12 13 10 10 10 9 9 11 14 14 15 17 16 17 18 19 20 21 23 24 25 25 26 28 29 30 31 33 35 35 36 31 30 30 29 29 28 29 28 23 20 18

GFSCGP_con_lsi_009.txt.gz
Lid_Strength_Index
12 13 14 13 13 14 15 15 15 15 14 15 15 15 13 11 14 14 15 16 15 15 14 16 16 16 17 16 16 16 16 15 15 15 16 16 17 16 16 16 15 16 16 15
13 14 12 13 14 14 15 16 16 15 15 16 16 16 13 13 12 11 12 14 15 15 17 17 16 17 17 17 16 16 16 16 15 16 16 16 17 17 16 16 16 16 16 16
14 14 13 13 15 15 16 16 17 16 16 16 18 18 17 15 14 13 13 13 14 15 16 17 17 17 17 17 17 17 16 16 16 16 16 17 17 17 18 17 17 17 16 16
14 13 13 15 15 15 16 15 16 17 17 19 17 19 18 15 14 14 13 15 14 15 15 16 17 18 17 17 17 17 17 17 16 17 17 18 19 19 18 18 17 17 17 17
14 15 15 15 14 14 15 16 16 17 18 20 20 21 18 19 17 14 13 14 15 15 16 17 17 17 17 17 17 17 17 17 17 17 17 18 19 19 18 19 19 18 17 17
14 14 14 14 15 15 15 17 17 20 20 23 18 19 20 19 17 15 14 14 15 16 16 16 16 16 17 17 17 18 18 18 18 18 18 19 19 20 20 20 20 19 19 18
15 15 15 14 15 15 16 16 19 21 23 21 22 23 18 17 16 15 14 14 15 16 17 18 17 18 17 18 18 18 18 19 18 18 19 19 20 20 21 20 20 20 20 19
16 16 15 14 13 15 17 15 18 23 24 20 24 23 18 17 14 16 16 16 17 17 18 18 18 18 17 18 18 18 18 19 19 19 19 20 20 20 21 21 21 21 21 20
16 16 17 16 16 15 18 19 17 21 30 25 20 19 17 17 17 17 17 18 17 17 18 18 18 17 17 18 18 18 19 19 20 20 20 21 21 21 22 21 21 21 21 20
14 16 17 18 18 19 18 17 19 19 23 26 21 19 18 17 16 15 16 16 16 17 19 19 18 18 18 18 18 19 19 20 20 20 21 21 22 22 22 22 22 22 21 21
14 13 17 18 19 18 19 19 19 17 19 22 23 19 18 16 15 15 14 15 16 17 19 19 18 18 18 19 19 20 20 20 21 21 22 22 22 22 22 22 22 22 22 21
13 14 16 18 19 19 18 17 16 19 20 21 21 19 16 16 15 15 14 15 16 17 19 19 19 19 19 19 20 20 21 21 21 22 22 23 23 23 23 23 23 22 22 22
14 16 19 17 20 19 19 19 17 19 20 19 21 19 15 16 16 15 16 16 16 17 19 20 19 19 19 19 20 21 21 22 22 23 24 24 24 24 24 23 23 23 22 22
12 16 16 18 17 19 20 20 18 18 19 18 19 17 15 14 14 14 16 17 16 17 18 20 19 19 18 19 20 22 22 23 24 24 25 25 24 24 24 24 23 23 23 23
14 17 16 15 15 18 19 18 18 19 18 19 17 17 15 13 12 12 12 11 14 18 20 19 19 19 20 20 21 22 24 24 25 25 25 25 24 25 24 24 24 23 24 24
16 17 16 17 15 18 18 17 16 17 17 17 17 17 13 11 12 12 11 12 13 16 18 19 19 19 20 20 22 23 25 25 25 25 25 25 25 25 25 25 24 25 25 25
17 17 18 19 17 17 20 17 16 15 15 15 17 15 13 13 13 12 12 11 12 12 17 18 19 19 20 20 22 25 25 25 25 24 25 26 26 27 26 26 26 26 26 26
15 16 16 19 18 22 16 13 14 16 15 14 14 13 12 12 11 11 12 12 12 14 17 18 19 19 20 23 24 25 25 24 25 25 27 27 27 28 27 28 27 27 26 26
12 14 17 19 19 17 15 15 16 17 16 13 14 13 12 12 15 14 14 14 12 14 17 18 19 21 24 24 25 25 25 25 26 27 27 27 28 29 29 30 28 27 27 27
13 12 15 16 19 20 16 13 12 15 18 12 12 12 12 13 16 13 13 15 17 18 19 21 23 23 24 25 24 24 25 26 27 27 28 28 28 30 30 29 29 28 28 27
18 15 17 17 18 16 13 12 14 18 16 10 11 11 12 13 12 12 19 20 20 21 22 23 24 24 25 25 24 25 26 27 27 28 29 29 29 30 31 30 29 29 29 27
14 16 17 15 18 19 12 14 15 12 9 10 10 12 13 12 11 16 19 21 22 23 23 24 25 26 26 25 25 26 26 27 28 29 30 31 32 32 29 32 30 29 28 28
15 12 13 13 14 11 10 10 9 9 9 10 11 12 11 12 14 18 20 22 23 23 24 24 25 26 26 25 24 26 28 28 30 31 32 32 31 30 30 32 30 29 28 27
11 9 12 12 10 11 11 10 8 8 9 8 10 12 13 12 16 18 20 21 22 23 24 25 26 27 27 26 25 27 28 29 33 33 30 29 30 30 29 28 27 28 26 25
11 11 11 12 10 9 8 9 8 9 11 12 12 11 12 13 16 17 20 21 22 23 24 25 25 26 28 28 30 29 30 31 32 31 30 30 29 31 28 27 27 25 23 21
10 11 12 13 8 9 8 7 7 8 8 9 9 12 13 12 14 17 19 21 22 23 24 25 25 27 29 29 30 31 32 31 30 30 31 31 30 30 27 28 28 24 21 20

GFSCGP_con_lsi_012.txt.gz
Lid_Strength_Index
8 9 10 8 8 8 10 10 11 9 11 11 11 11 10 8 8 9 8 8 8 9 9 9 11 11 12 12 12 12 12 12 12 12 13 13 13 13 13 13 13 14 14 14
9 11 8 9 9 10 10 11 10 9 12 12 12 13 11 10 9 9 8 7 7 9 9 10 12 12 13 12 12 12 12 12 12 12 13 13 14 13 13 13 14 14 14 14
10 9 10 10 11 11 11 11 10 11 12 13 14 13 13 11 11 10 9 8 8 9 10 11 12 13 13 13 13 12 12 13 13 13 14 14 14 14 15 14 14 14 15 14
10 9 10 11 11 10 11 10 11 12 13 14 13 16 12 11 12 11 9 9 9 10 10 11 13 13 13 13 12 13 13 13 13 13 14 14 15 15 14 15 15 15 15 15
10 12 12 11 10 10 11 12 12 13 13 15 13 16 13 15 14 12 10 8 9 9 10 11 13 13 13 13 13 13 13 14 14 14 14 14 15 15 15 16 16 16 15 15
10 11 10 10 13 12 13 13 13 15 15 17 14 15 14 14 13 12 10 9 10 10 10 10 12 13 13 13 13 13 14 14 14 14 14 15 15 16 16 17 17 16 16 16
11 11 12 12 12 12 12 12 14 15 16 16 16 17 15 13 12 11 9 8 10 10 11 12 13 14 14 14 13 13 14 15 15 15 15 15 16 16 17 17 17 17 17 16
12 13 13 11 10 10 13 11 14 19 16 16 18 19 14 12 11 10 11 11 12 11 11 12 13 13 14 15 14 14 14 15 15 15 16 16 17 17 17 17 17 17 17 17
13 12 13 13 12 11 14 15 12 14 20 18 15 13 13 13 13 13 12 12 11 11 11 12 13 13 14 15 14 14 14 14 16 16 16 17 18 18 18 18 18 18 18 18
11 14 14 15 14 15 14 13 16 15 18 18 17 15 15 13 13 13 13 12 10 11 11 12 13 13 14 14 14 14 14 15 16 16 17 18 18 18 18 18 19 18 18 18
11 13 15 15 16 15 16 16 16 15 15 17 18 16 13 13 12 12 11 10 10 10 11 11 12 13 13 14 14 14 14 15 17 17 18 18 19 19 19 19 19 19 19 19
10 11 13 12 15 15 13 13 13 16 16 16 15 16 12 12 11 11 11 11 10 10 10 11 13 14 14 15 15 15 15 16 17 18 19 19 19 19 20 20 20 20 20 20
13 14 16 15 17 17 16 15 14 13 14 16 17 17 11 11 12 12 12 10 11 12 11 12 13 14 15 15 16 15 16 17 18 19 20 20 20 20 20 20 20 21 20 20
11 14 15 17 15 15 17 16 15 15 16 16 16 14 12 11 12 11 10 11 12 11 11 12 13 15 15 15 16 16 17 18 19 20 20 20 20 21 21 21 21 21 21 21
13 16 15 13 13 13 14 15 15 17 15 16 14 14 12 11 11 10 10 10 10 10 12 12 13 14 15 16 16 17 18 19 20 21 21 21 21 21 22 22 22 22 22 22
14 16 15 16 14 14 15 14 14 14 14 15 15 15 12 11 11 11 11 10 11 11 10 12 14 15 16 16 17 19 19 21 21 21 21 22 22 23 23 23 23 23 23 22
15 15 16 18 14 15 17 16 14 14 13 13 15 13 11 11 11 11 10 10 11 10 10 10 14 15 16 17 18 19 20 21 22 22 22 23 23 24 23 24 24 24 24 23
14 15 14 17 15 21 14 11 12 13 12 12 12 11 11 10 9 9 9 9 10 9 10 11 13 14 16 17 18 19 22 22 22 22 24 23 24 24 24 25 25 24 24 24
11 13 16 18 18 15 15 13 14 14 13 11 12 11 10 10 10 10 8 8 9 8 8 9 12 15 17 18 20 22 22 22 23 24 24 24 25 25 25 27 25 24 24 24
11 12 14 16 19 20 13 11 11 12 15 11 11 11 11 11 13 11 8 8 8 9 13 16 16 17 19 21 22 22 23 24 24 24 24 24 25 27 27 26 26 25 25 25
15 15 16 16 18 15 10 11 11 16 15 10 9 9 10 11 9 8 9 13 14 16 17 18 19 20 21 22 22 23 23 24 23 24 25 26 26 27 26 26 25 26 26 25
14 16 16 16 18 19 9 9 12 9 8 8 8 8 10 9 9 9 10 15 16 18 19 20 20 22 23 21 22 23 24 24 25 26 26 27 27 26 26 28 27 27 26 26
15 11 13 13 13 8 7 8 7 7 7 7 7 7 8 8 9 9 12 15 17 18 19 19 21 23 23 22 21 23 25 26 27 27 29 28 28 27 27 27 27 25 25 24
11 8 12 11 9 8 8 7 7 6 7 7 6 7 8 8 8 10 12 16 18 18 20 20 22 23 24 23 22 25 26 27 29 29 28 28 27 27 27 25 25 25 24 24
11 12 13 13 12 9 8 7 7 7 8 9 8 9 8 8 9 10 12 14 17 18 20 21 22 23 24 24 26 26 28 29 29 28 27 27 27 27 26 26 25 24 22 21
12 13 14 14 10 10 9 8 7 8 8 7 8 7 7 9 9 9 11 13 17 19 20 21 22 24 25 26 27 28 29 28 28 27 27 27 27 27 26 26 25 24 22 20

GFSCGP_con_lsi_015.txt.gz
Lid_Strength_Index
6 9 10 8 7 8 8 9 10 9 7 9 9 9 8 7 7 7 7 7 6 6 5 6 7 7 8 8 9 10 11 11 10 11 11 12 12 12 12 12 13 13 14 14
9 11 8 7 8 8 9 10 10 8 7 10 10 10 9 8 8 7 7 7 7 6 6 7 8 7 9 9 10 10 11 11 11 11 11 11 12 12 12 12 13 13 14 14
10 9 8 9 9 10 10 11 10 10 8 10 11 12 10 9 8 8 8 7 7 7 7 8 9 9 9 10 10 11 10 11 11 11 11 12 13 13 14 14 13 13 13 14
9 8 9 9 10 9 12 9 9 10 11 13 11 15 11 9 9 9 9 8 7 8 7 8 9 10 10 10 10 11 11 11 11 11 12 13 14 15 14 13 13 14 14 14
10 9 10 11 10 9 10 10 10 10 11 11 12 14 12 12 12 11 10 8 7 6 8 9 9 10 10 10 10 10 11 11 11 11 12 13 13 13 13 14 14 14 14 14
10 10 9 9 11 10 10 11 12 12 12 16 12 13 13 12 12 10 9 9 7 8 8 8 9 9 10 10 10 11 11 12 12 12 12 13 13 13 14 15 15 15 14 15
10 10 9 10 11 11 11 12 14 15 16 16 11 13 12 10 10 10 10 9 8 8 8 9 10 11 10 11 11 11 12 13 12 12 13 13 13 13 14 14 15 15 16 16
12 13 10 10 10 9 12 10 14 18 16 15 13 16 13 9 9 9 9 9 9 9 9 9 10 11 11 11 11 12 12 13 13 13 13 13 14 14 15 15 15 16 16 16
13 13 12 10 10 9 11 14 10 13 15 16 15 12 10 10 10 10 10 10 9 9 10 10 10 10 11 11 12 12 13 13 14 14 14 14 15 15 16 16 16 16 16 17
10 14 11 14 13 13 12 11 14 13 18 18 16 14 13 12 12 11 11 10 9 9 9 9 10 10 11 11 12 12 13 14 14 14 14 15 16 16 16 16 17 17 17 17
10 11 13 14 15 13 15 15 15 15 14 17 18 16 12 12 10 10 10 10 9 8 9 9 10 10 11 11 12 12 13 13 14 15 15 16 16 17 17 17 18 18 18 18
11 13 15 13 11 12 12 13 13 15 16 15 15 16 11 10 10 10 10 9 8 8 8 9 9 10 11 12 12 12 13 13 14 15 15 17 17 18 18 18 18 18 19 19
12 15 17 16 14 15 15 13 13 12 13 16 17 16 10 10 9 10 10 9 9 9 9 9 9 10 11 11 12 12 13 13 14 15 16 17 18 19 19 19 19 19 19 19
11 14 16 18 15 13 15 15 14 14 16 16 16 14 12 11 10 9 9 8 8 9 9 9 9 10 10 12 13 13 13 14 15 16 17 19 19 19 19 19 20 20 20 20
12 16 14 14 13 13 14 14 14 15 15 16 15 14 12 11 10 10 9 9 9 9 9 9 10 10 11 12 13 13 14 14 16 18 19 19 19 19 19 20 21 20 21 21
12 16 14 16 14 14 15 14 14 14 14 13 14 14 11 10 10 10 9 9 9 9 9 10 10 11 12 13 13 14 14 15 17 19 19 19 20 20 21 21 21 22 22 22
14 15 16 17 14 14 17 15 14 13 12 12 14 12 9 10 9 9 8 8 9 9 9 10 10 10 12 12 13 14 15 16 18 19 19 20 21 22 21 22 22 23 23 22
14 15 15 17 15 21 14 10 11 12 12 11 11 10 9 9 8 8 7 8 8 9 9 9 9 9 11 12 13 14 16 18 19 19 21 21 21 22 22 23 24 24 23 23
11 12 15 18 18 14 13 11 12 12 12 10 10 10 9 8 8 9 8 7 8 8 7 8 8 9 12 14 15 16 18 19 20 20 21 22 22 23 24 24 24 23 23 23
11 11 14 16 19 20 13 10 9 9 15 9 10 10 9 9 12 10 7 9 8 8 8 10 11 13 14 15 16 19 20 20 20 21 22 22 23 24 25 25 24 23 24 23
14 14 16 16 18 15 9 8 8 15 13 9 8 9 8 10 9 7 8 9 9 10 13 13 14 15 15 17 18 19 20 20 20 21 23 23 24 24 24 24 24 25 25 24
14 15 16 16 18 19 8 8 12 8 6 7 7 7 8 8 8 8 7 8 11 13 15 15 16 17 18 17 18 19 20 20 21 23 24 25 25 25 25 26 26 26 25 26
15 11 14 13 13 8 7 7 6 6 7 6 7 8 7 8 8 8 9 10 12 13 15 16 17 19 19 18 17 20 20 22 23 24 25 26 26 25 26 27 26 25 25 24
13 12 14 15 12 10 8 8 7 8 8 8 8 8 7 8 7 8 10 11 13 15 16 17 19 20 20 18 18 18 22 22 24 25 25 26 26 27 26 25 25 24 24 23
13 12 14 13 13 10 11 10 9 9 9 9 8 8 8 8 9 9 9 9 10 14 16 18 19 19 20 19 19 22 22 23 25 25 25 26 26 26 26 24 24 24 23 22
13 15 16 16 12 13 12 11 10 11 11 11 11 11 10 9 9 8 9 8 9 13 17 18 19 19 20 20 23 23 23 23 24 25 25 26 26 26 25 25 26 24 23 22

GFSCGP_con_lsi_018.txt.gz
Lid_Strength_Index
8 11 13 11 9 9 10 11 12 10 9 10 11 11 10 9 9 10 9 8 8 9 8 8 8 9 10 11 12 12 12 12 12 13 14 14 14 14 15 14 14 14 15 14
10 12 9 9 9 10 11 12 12 11 10 11 12 12 10 10 9 9 9 8 8 9 9 9 9 10 11 11 12 12 12 13 12 13 13 14 14 14 14 14 14 14 15 15
12 11 8 9 11 11 11 13 12 12 11 12 14 14 13 11 9 9 9 8 9 10 10 11 11 10 11 12 12 12 12 13 12 13 13 14 15 15 16 16 16 15 15 15
12 10 10 11 11 11 13 11 11 12 14 16 12 18 14 13 12 11 10 10 10 11 10 11 11 11 12 12 12 12 12 13 13 13 13 15 15 17 17 16 16 15 15 16
13 12 12 12 11 10 12 12 13 13 14 15 15 17 15 12 13 12 11 10 10 10 10 11 11 11 11 12 12 12 13 13 13 13 13 15 16 16 16 17 16 17 16 16
13 11 12 12 12 11 12 13 13 14 15 19 16 15 17 15 13 12 11 11 10 10 11 11 11 11 12 12 13 13 13 13 13 13 14 14 15 16 17 18 18 17 17 17
14 13 13 12 13 13 13 14 18 19 20 19 15 16 15 13 13 12 12 11 11 11 12 12 12 12 12 13 13 13 13 14 13 14 14 15 15 16 17 17 17 18 18 18
16 16 13 13 12 12 14 13 17 21 19 18 17 20 16 12 11 12 11 10 11 12 12 12 12 12 12 13 13 13 13 14 14 14 15 15 15 15 16 17 17 17 18 18
16 15 13 12 13 12 15 17 13 16 19 20 17 16 14 13 12 12 12 13 13 12 11 12 12 13 13 13 13 13 14 14 14 14 15 15 15 16 16 18 18 18 19 18
13 16 14 15 14 14 14 13 18 17 24 24 18 18 16 14 12 13 14 13 13 12 12 12 12 12 12 13 13 13 13 14 14 15 15 15 16 16 17 18 19 19 19 20
12 13 15 15 17 16 17 16 15 15 16 20 20 18 15 14 14 13 13 12 12 11 12 12 12 12 12 13 13 14 14 15 15 15 15 16 17 17 18 18 19 20 20 20
12 13 16 15 13 13 14 14 15 17 18 19 17 17 12 12 13 12 12 11 11 11 11 12 12 13 13 13 13 14 14 14 15 15 16 16 18 18 18 19 20 20 20 20
12 16 19 17 14 15 17 15 14 14 15 17 19 17 12 11 13 13 13 13 12 12 12 12 12 13 13 13 14 14 14 14 15 15 16 17 18 18 19 20 20 20 21 21
10 14 15 18 15 13 15 14 15 14 16 17 17 16 13 12 12 11 10 11 12 12 12 12 12 12 13 13 13 14 14 14 15 16 16 17 18 18 19 20 20 21 21 22
12 17 15 14 13 13 14 14 14 14 14 17 16 16 13 12 11 11 10 10 11 11 10 11 12 12 12 13 14 14 14 15 15 16 17 17 18 19 20 20 21 21 21 22
11 15 15 16 15 15 16 14 14 15 15 14 14 15 11 11 10 11 10 10 9 9 9 10 11 13 13 13 13 14 14 15 15 16 18 19 20 20 20 21 21 21 21 21
13 14 15 17 15 15 17 16 14 14 13 13 16 13 11 11 10 10 10 9 9 10 9 11 11 12 13 13 14 15 15 16 16 17 19 20 20 20 21 21 21 21 21 21
12 13 14 17 15 21 14 11 11 12 12 12 12 11 10 10 9 8 8 8 9 9 9 10 12 12 12 13 15 16 16 16 16 18 19 20 20 21 21 22 22 22 22 22
9 12 16 18 18 15 13 11 13 13 13 10 10 10 10 9 9 9 7 7 7 8 8 10 11 11 12 15 16 16 16 17 18 18 19 20 20 21 21 22 22 22 22 22
10 11 14 16 19 21 13 10 8 9 15 9 9 9 9 9 12 10 7 8 9 9 10 11 12 13 14 16 16 17 18 19 18 18 19 20 20 21 21 22 22 22 22 23
15 14 16 17 18 16 11 9 9 16 14 8 8 8 8 10 10 9 10 10 10 10 11 13 14 15 16 17 17 18 19 19 18 18 20 20 20 20 21 22 21 22 23 23
15 16 16 16 18 19 11 10 13 11 10 10 10 10 10 10 9 10 10 10 10 11 13 16 17 18 19 18 18 19 19 19 18 20 21 21 21 21 22 23 23 23 23 24
16 15 17 17 17 12 11 11 10 10 11 11 11 10 9 9 9 10 10 10 11 12 15 16 17 19 19 19 18 19 19 20 20 21 22 23 23 22 23 24 24 24 24 24
15 13 16 15 13 13 11 10 9 10 11 11 10 11 11 11 11 11 11 10 11 15 15 16 18 19 20 20 19 19 20 21 22 23 23 24 23 24 24 24 24 24 24 24
13 14 17 18 15 14 13 12 12 13 13 13 12 12 13 12 12 11 12 11 10 10 15 16 17 17 18 20 20 21 21 22 23 24 24 25 24 25 24 23 23 22 22 22
13 14 16 17 13 14 14 13 13 14 14 16 15 14 14 13 13 12 12 11 10 11 14 17 16 17 18 20 20 23 22 22 24 24 25 25 25 25 24 24 22 20 20 19

GFSCGP_con_lsi_021.txt.gz
Lid_Strength_Index
11 14 15 12 11 12 14 14 15 12 10 12 12 11 11 10 11 11 10 9 10 9 8 9 9 9 9 10 12 13 13 13 13 13 14 14 14 15 15 15 14 15 15 15
13 15 12 11 11 12 13 14 14 12 11 12 13 13 11 11 10 9 10 10 9 9 10 10 10 10 10 12 12 13 13 13 13 13 13 14 15 15 15 15 15 15 15 16
14 13 11 12 12 13 13 14 14 14 12 13 14 15 14 12 10 10 9 9 8 8 10 10 11 10 11 12 13 13 13 13 13 13 13 15 15 16 16 16 16 16 15 16
14 12 12 13 14 12 15 12 13 13 15 16 14 18 15 13 12 11 10 10 9 10 11 11 11 11 12 12 12 12 13 13 13 13 13 14 15 15 14 14 15 16 16 16
14 14 14 14 13 13 14 13 13 15 16 17 16 17 17 14 15 13 11 10 10 10 11 12 11 11 11 12 13 13 13 13 13 13 13 14 15 15 17 17 16 16 16 16
14 13 13 13 14 13 13 15 16 16 17 20 17 16 18 16 14 14 11 10 10 10 11 11 11 11 12 13 13 13 14 13 13 13 13 14 15 17 18 17 17 17 17 17
15 14 13 12 14 14 15 16 20 21 22 20 16 18 16 14 14 13 12 11 10 12 12 13 13 13 13 14 14 13 14 14 13 13 14 14 15 16 17 17 16 17 18 18
18 18 14 13 13 15 16 14 19 23 22 19 19 21 18 13 11 12 12 11 12 12 12 12 12 12 12 12 13 13 14 13 14 14 14 14 15 15 16 17 16 16 17 17
17 17 14 14 13 12 16 17 14 17 24 22 17 17 15 14 13 13 13 14 13 13 12 13 13 13 13 13 13 13 14 13 14 14 14 14 15 15 16 17 17 16 17 18
14 17 14 15 15 15 15 14 18 18 23 25 18 18 16 15 13 12 14 13 13 13 12 12 12 12 13 13 13 13 13 13 14 14 14 14 15 15 15 17 17 18 18 18
13 14 14 16 16 16 17 16 16 16 17 19 20 17 16 15 14 13 13 13 13 13 13 12 12 11 13 14 14 14 14 14 14 15 15 15 15 16 17 17 17 18 18 19
13 14 16 15 14 14 14 14 14 17 18 18 17 17 11 12 14 13 13 13 12 12 12 12 12 12 13 13 14 14 14 14 14 14 15 16 17 18 18 18 18 19 19 19
12 15 18 17 14 15 15 14 14 14 15 16 18 18 11 11 13 14 14 14 13 12 12 12 13 13 13 13 14 14 14 14 14 15 16 16 17 18 18 18 19 19 20 20
10 14 15 18 15 13 15 14 14 14 16 16 17 16 13 12 12 11 10 9 9 11 12 12 12 13 14 14 13 14 14 14 14 15 16 16 17 17 17 19 19 20 20 20
10 15 14 13 12 12 13 13 13 15 14 16 15 15 13 12 11 11 10 10 11 11 12 12 12 12 12 13 13 13 13 14 15 15 16 16 16 17 19 19 19 20 20 20
10 15 13 15 13 13 15 13 12 13 12 13 13 14 10 9 9 9 9 9 10 10 10 10 11 11 12 13 13 14 14 14 15 15 15 16 17 19 19 19 19 20 21 20
12 13 15 17 14 14 17 14 13 12 11 11 15 12 10 11 9 9 9 9 10 9 9 10 11 11 12 13 13 14 14 15 15 15 16 17 18 19 19 19 20 20 20 20
12 13 14 17 15 21 14 10 10 12 11 10 10 9 8 8 8 8 8 9 9 9 10 11 12 11 12 13 14 14 16 16 16 16 17 18 19 19 19 20 20 20 20 20
10 12 16 18 18 15 13 11 11 12 13 9 10 9 8 8 8 8 8 10 10 9 10 11 12 12 12 13 14 16 17 16 16 17 17 19 19 19 20 20 20 20 20 20
10 11 14 16 19 21 15 13 10 9 15 12 12 12 12 11 13 11 10 10 11 11 13 13 13 14 14 16 17 17 17 16 17 17 17 19 19 19 20 20 20 19 19 20
13 13 16 16 18 15 13 12 10 17 15 12 12 12 11 13 12 11 11 11 11 11 12 13 14 15 16 17 17 18 18 17 18 18 19 20 19 20 20 20 20 20 20 20
16 18 15 14 16 19 13 12 16 14 12 12 13 13 13 13 12 12 12 11 12 11 11 12 15 16 17 17 16 18 19 19 20 20 20 20 20 20 21 22 22 20 21 22
16 14 17 17 16 13 11 14 13 11 12 13 14 13 12 13 13 12 12 12 12 11 11 11 15 16 18 17 16 17 18 19 20 21 21 22 21 22 22 22 23 23 22 23
15 12 15 16 14 15 14 13 11 13 14 14 14 15 14 14 13 13 13 12 12 11 11 11 11 13 15 17 17 16 18 19 20 21 22 23 23 24 23 22 23 23 23 23
14 13 16 15 14 13 13 13 14 13 14 15 16 16 15 14 15 14 14 14 13 13 12 11 12 14 14 16 17 17 18 19 20 21 23 23 23 24 24 23 23 23 22 21
10 13 15 16 12 14 14 13 12 17 18 18 18 18 17 18 18 17 17 15 15 14 13 13 14 13 13 14 16 17 18 19 20 21 23 23 23 23 23 23 23 20 20 18

GFSCGP_con_lsi_024.txt.gz
Lid_Strength_Index
13 15 16 14 13 13 16 16 16 14 12 13 13 12 11 10 11 12 11 10 10 11 8 8 9 9 9 10 10 11 12 12 12 13 14 14 14 14 15 15 14 15 15 15
14 16 13 13 14 14 14 15 15 13 12 14 13 13 12 11 10 10 10 10 10 9 8 8 10 10 10 10 10 11 12 13 13 12 12 13 13 15 14 14 15 14 15 15
15 14 12 13 14 15 15 16 15 15 14 15 16 16 15 13 11 10 9 9 9 9 9 8 11 11 10 10 11 12 12 12 12 12 13 16 16 16 16 16 15 15 15 15
15 13 13 14 15 14 16 13 14 15 17 18 16 19 17 15 14 12 11 10 10 9 9 8 12 12 11 10 11 11 12 12 12 13 14 14 14 15 14 14 15 16 16 16
15 15 15 15 13 13 14 14 15 16 18 19 18 19 17 15 15 14 12 11 10 9 10 10 11 11 11 11 12 12 12 13 13 13 13 14 14 14 16 16 17 16 16 16
14 13 13 14 13 13 14 15 16 17 18 19 17 18 19 17 15 14 12 11 11 10 9 12 12 12 13 13 12 12 13 13 13 14 14 14 14 16 17 17 16 17 17 17
16 15 14 13 15 15 15 16 20 21 22 20 17 19 15 15 14 13 13 12 11 11 10 14 13 13 13 14 13 13 14 14 14 14 14 13 14 15 15 16 16 17 17 17
19 18 15 14 14 15 16 15 20 24 21 18 19 20 17 13 12 12 12 11 11 13 13 13 13 13 14 14 14 14 14 14 14 14 13 13 13 14 15 16 15 16 16 16
18 17 15 14 14 13 17 18 14 19 27 24 18 16 13 14 13 13 13 13 14 14 13 13 13 14 14 13 13 13 14 13 14 14 13 14 14 14 15 16 16 16 16 17
14 16 14 15 15 15 15 14 18 19 23 25 19 19 16 14 13 13 13 13 13 13 13 13 13 14 14 14 14 13 13 13 13 14 14 14 14 14 15 16 17 17 17 17
12 14 15 15 16 14 17 17 17 16 17 18 19 17 11 12 13 14 13 13 13 13 13 12 12 13 14 14 14 14 13 13 14 14 14 14 15 15 15 17 17 17 18 18
11 12 16 14 12 14 15 15 14 17 17 16 16 16 10 10 11 11 11 12 13 13 12 12 12 12 13 13 14 14 13 13 13 14 15 15 16 16 16 17 17 18 18 18
10 14 18 17 13 12 14 13 13 13 14 16 18 16 10 10 10 11 13 12 11 12 13 12 12 12 12 12 12 13 13 13 13 15 16 16 17 17 16 16 17 18 18 18
8 12 15 18 14 12 14 13 12 14 16 16 16 15 12 11 11 10 9 9 9 10 10 9 10 11 12 12 12 13 14 14 15 15 16 16 16 16 16 16 17 17 18 19
9 15 13 13 12 12 12 12 12 13 13 16 14 13 12 10 10 9 9 8 10 10 10 10 11 11 12 13 13 14 13 14 15 15 16 15 15 15 15 17 17 18 18 18
12 14 13 15 13 13 15 13 12 12 12 12 12 13 8 8 7 8 7 7 8 8 8 8 9 11 12 11 12 14 14 14 15 15 15 15 15 16 17 18 18 18 18 19
14 14 15 17 13 14 17 14 13 12 11 12 15 11 8 9 8 8 8 8 11 12 13 12 11 11 12 12 13 14 14 16 16 15 14 16 16 17 18 18 18 18 19 19
12 13 13 16 15 21 13 10 10 12 11 10 10 13 12 11 10 9 11 12 12 11 12 12 13 12 12 13 14 14 16 16 15 15 15 16 17 18 19 19 19 19 19 20
11 12 15 17 17 14 13 12 14 14 14 14 14 14 14 13 12 12 11 11 12 11 11 12 13 13 13 14 16 16 17 17 17 17 16 17 17 18 19 19 19 19 19 20
12 11 13 15 19 20 16 13 14 14 16 16 14 15 15 15 18 15 12 12 12 11 12 13 12 13 13 13 17 17 18 18 18 18 18 18 18 18 19 19 19 19 19 20
22 21 20 18 17 15 13 13 12 17 19 15 14 14 15 16 15 13 12 12 12 12 12 12 13 13 14 15 17 18 19 19 19 18 19 18 18 18 18 18 19 20 20 20
19 20 19 18 21 21 12 13 18 15 11 12 13 14 15 15 15 14 14 14 13 13 13 12 13 13 12 16 18 16 18 18 19 19 20 19 19 19 19 19 20 20 21 21
20 16 17 16 17 12 11 12 11 10 13 13 13 13 15 16 16 15 15 15 14 14 13 13 14 13 13 14 16 17 16 19 19 20 19 19 19 19 20 21 21 21 21 21
17 13 17 17 14 12 11 10 9 10 12 12 13 15 15 16 15 16 17 17 16 16 16 16 15 15 14 12 15 15 16 18 18 18 19 19 19 20 20 20 20 21 22 22
14 14 15 15 12 11 11 10 11 11 12 13 14 15 16 16 17 17 17 17 17 17 17 17 16 16 16 14 13 12 15 17 18 18 19 20 19 20 20 20 21 20 21 20
11 12 13 15 10 10 11 10 11 13 14 14 15 15 16 17 18 18 19 18 18 18 19 20 21 19 17 17 16 14 14 17 17 19 20 20 21 21 21 21 21 18 18 17

GFSCGP_con_lsi_027.txt.gz
Lid_Strength_Index
13 15 16 14 14 14 17 18 18 15 14 15 15 14 13 11 11 13 12 11 10 9 8 8 9 10 10 10 10 11 11 11 11 12 13 13 13 14 14 14 14 14 14 15
15 17 13 14 15 15 15 16 16 14 13 16 15 15 13 13 12 11 10 10 10 9 9 9 10 11 10 10 10 10 11 11 11 11 11 12 12 14 13 14 14 14 15 15
15 14 13 14 15 15 17 17 16 16 15 16 17 16 15 13 12 11 10 10 10 10 9 9 10 12 11 10 10 11 11 11 11 11 12 15 15 17 17 16 15 15 15 16
15 13 14 15 16 15 16 14 15 15 17 19 17 20 17 15 15 14 12 11 11 11 10 10 9 12 12 11 10 10 11 11 11 11 12 13 13 14 14 14 14 15 15 16
16 15 16 16 14 14 15 15 15 17 18 19 19 20 17 15 16 14 12 11 11 11 11 10 9 11 12 11 11 11 12 12 11 12 12 12 13 13 15 16 17 16 16 16
15 14 14 14 14 14 14 16 16 18 18 21 17 18 18 17 15 15 13 12 11 11 11 11 11 13 13 13 13 13 13 13 12 12 12 13 13 15 16 16 16 16 16 16
18 16 15 14 16 16 15 17 21 22 22 20 18 19 16 15 14 13 13 12 11 12 12 11 13 13 13 14 14 14 14 14 13 13 13 13 13 14 14 15 15 16 16 16
19 17 16 15 14 16 16 16 20 24 20 18 19 20 15 14 13 13 13 13 12 12 12 12 12 12 13 14 14 14 14 14 14 14 14 14 13 14 14 15 14 15 15 15
19 18 16 15 15 14 17 18 15 19 26 23 17 17 13 14 14 14 13 13 13 13 13 13 13 13 14 14 14 14 14 14 14 14 14 14 13 13 14 15 15 15 15 16
16 17 15 16 15 15 15 15 18 19 23 24 19 19 18 15 13 12 13 12 13 13 13 13 13 13 13 14 15 14 14 14 14 14 13 13 13 13 14 16 16 16 16 16
13 14 16 14 17 16 16 16 16 16 16 18 20 17 12 13 12 13 13 13 13 12 12 12 12 12 13 14 15 15 15 14 14 14 13 13 13 14 14 15 16 16 16 17
11 13 16 15 13 14 14 14 14 15 17 16 16 16 9 10 9 10 10 9 10 11 11 12 12 12 12 13 14 15 15 14 13 13 14 14 14 14 14 15 16 16 17 17
10 14 18 16 13 13 13 12 11 12 13 17 19 17 9 9 9 9 9 10 11 11 10 10 11 11 12 12 13 13 14 14 13 14 14 14 15 16 15 14 15 16 17 18
8 12 15 18 14 12 14 13 12 13 16 16 15 14 10 9 9 8 8 7 9 9 10 10 11 10 11 12 12 13 13 13 15 15 15 15 15 16 15 15 15 16 17 18
11 15 13 14 13 13 14 14 13 15 14 16 14 14 11 9 8 8 7 8 11 12 12 12 13 12 12 12 12 13 13 14 14 14 15 15 15 15 15 16 16 16 17 17
12 17 15 17 15 14 15 14 13 12 13 13 13 13 9 12 12 12 11 12 13 12 12 12 12 13 12 13 13 13 12 14 15 15 15 15 16 16 16 16 17 17 17 18
14 16 18 19 16 18 21 16 15 13 12 14 15 14 14 15 15 13 14 14 14 13 13 13 13 12 13 13 14 13 14 14 16 15 15 15 15 16 16 17 17 17 18 18
15 16 19 20 19 28 16 12 12 13 15 15 16 15 16 16 15 13 14 14 14 13 13 12 12 13 13 12 12 13 14 15 15 16 16 17 16 16 17 18 18 18 18 19
12 14 17 19 23 16 14 14 16 17 16 14 15 14 14 14 14 14 13 13 13 13 13 12 12 12 12 12 12 13 14 15 16 16 17 17 17 17 19 19 19 19 18 19
14 13 16 24 22 23 16 14 12 13 17 13 13 13 14 15 19 17 14 14 14 13 13 13 12 12 13 12 12 13 14 14 15 16 16 18 17 17 19 18 19 18 18 18
25 27 26 28 27 20 16 14 12 20 19 12 11 12 13 16 15 15 13 14 13 14 14 13 13 14 13 13 12 13 14 14 15 18 18 19 19 19 19 19 19 19 18 19
20 26 28 28 29 26 14 13 17 16 13 13 12 12 13 13 14 15 15 14 14 14 14 14 15 15 14 14 13 13 14 13 17 19 19 20 19 19 19 19 20 19 19 20
20 18 21 19 19 13 12 12 10 10 12 12 12 12 12 14 14 14 14 15 15 14 14 14 15 16 16 15 14 15 14 13 17 19 19 19 19 18 17 19 20 20 20 20
16 13 16 18 14 13 11 10 10 9 10 10 11 13 13 14 14 14 15 15 15 15 15 15 16 18 18 17 18 19 17 14 15 17 18 18 19 18 18 18 18 19 20 20
14 14 16 15 13 11 10 10 9 9 10 11 11 12 13 13 14 14 15 15 15 15 15 16 17 18 19 19 19 19 18 18 18 16 17 18 19 19 18 18 18 18 18 18
11 13 13 15 10 9 10 8 9 10 11 12 12 13 12 12 14 13 15 15 15 16 17 18 18 19 20 20 21 21 20 20 21 19 16 17 18 19 19 19 20 15 16 16

GFSCGP_con_lsi_030.txt.gz
Lid_Strength_Index
14 16 17 14 15 15 18 18 19 16 14 16 15 15 14 12 12 12 12 11 11 10 9 8 10 10 10 10 10 11 11 11 11 11 12 12 12 12 13 12 13 14 14 15
15 17 14 14 15 15 16 17 17 15 14 16 16 16 14 13 12 11 11 11 10 11 10 10 10 11 11 10 10 11 11 11 11 10 11 11 11 12 12 12 13 14 14 15
15 15 13 14 15 16 17 18 16 17 16 16 17 18 16 14 13 12 11 10 10 10 10 10 11 12 13 12 12 11 11 11 11 11 11 15 15 16 15 15 14 14 14 15
16 14 14 16 16 15 17 15 16 16 18 20 17 21 18 14 14 14 12 12 12 12 11 11 11 12 13 12 12 11 11 11 12 11 12 12 12 13 13 13 13 14 14 15
16 16 16 16 15 15 16 15 16 17 19 20 20 21 18 17 17 15 13 13 13 12 12 12 11 11 11 12 12 12 12 12 12 12 12 13 12 12 13 13 14 14 15 15
16 15 15 15 15 14 15 16 17 19 19 21 18 19 19 18 16 15 14 13 12 12 12 12 12 12 12 13 13 13 13 13 13 13 12 13 13 13 15 15 15 15 15 16
18 16 15 14 17 16 16 18 21 22 23 21 19 20 16 15 14 14 12 12 13 12 12 12 12 12 12 13 13 14 14 14 13 13 13 13 13 14 14 14 14 15 16 16
19 17 16 15 15 16 17 17 20 25 23 19 20 20 16 14 14 13 14 14 13 12 13 13 12 12 12 13 13 14 14 14 14 14 14 14 13 14 14 15 14 15 15 15
19 18 16 15 15 15 18 18 16 18 24 24 18 17 13 14 14 15 14 14 13 13 12 12 12 12 12 13 13 14 14 14 14 14 14 14 14 14 14 15 15 15 15 15
15 18 16 16 15 16 16 15 19 19 21 24 19 19 17 15 14 13 13 13 13 12 10 8 11 11 12 12 14 14 14 14 14 15 14 14 14 14 14 15 15 15 14 15
13 15 16 16 17 17 17 16 16 16 16 19 20 17 13 14 14 14 11 10 11 11 10 11 12 12 12 13 14 14 15 15 15 15 14 14 14 14 15 15 15 14 15 15
11 13 16 15 12 13 13 12 12 15 18 16 16 16 11 10 10 10 10 8 9 11 13 13 13 13 12 12 12 14 14 14 14 14 15 15 14 15 15 14 14 14 15 15
10 14 18 15 15 13 14 12 12 12 13 16 18 16 9 9 9 8 10 13 12 12 12 13 13 14 14 14 13 12 12 13 14 15 15 15 16 16 14 14 14 15 15 15
8 13 15 18 15 13 15 13 13 14 17 16 16 15 12 11 12 15 14 14 14 14 13 13 13 13 13 13 14 13 13 13 13 15 15 15 15 15 15 14 15 15 16 16
10 15 14 14 14 13 15 15 15 16 15 17 16 15 14 16 16 14 14 14 15 14 14 14 13 13 13 13 13 13 12 12 13 14 14 15 15 15 15 15 15 16 16 16
12 17 15 17 14 14 15 16 16 15 15 15 14 15 16 16 15 15 15 15 16 15 14 13 13 12 12 12 13 13 12 13 13 13 14 14 14 16 15 15 16 16 16 16
15 17 22 19 16 17 21 18 16 15 15 15 18 18 16 17 16 16 15 15 15 14 13 12 13 12 12 12 13 13 13 13 13 13 13 14 14 14 15 15 16 16 16 16
16 19 22 23 24 28 17 13 15 15 16 16 16 14 15 14 13 13 11 13 14 13 13 13 13 13 13 12 13 13 13 13 13 14 13 15 15 15 15 16 16 16 17 17
13 15 24 25 26 18 15 16 17 19 19 16 16 13 12 12 13 14 12 12 12 12 11 11 11 11 13 12 13 13 13 13 14 14 15 16 16 16 17 17 17 17 17 17
15 14 17 28 25 28 19 15 13 14 22 16 16 15 14 13 18 16 12 10 11 11 10 11 11 12 13 13 13 14 14 14 14 14 15 16 17 17 17 17 17 17 17 17
27 28 26 29 30 23 17 14 13 23 19 16 14 12 12 14 14 12 11 12 12 11 11 11 13 13 14 14 15 15 15 15 14 16 15 15 16 18 17 17 17 16 16 17
21 26 28 31 32 27 14 14 19 15 13 14 12 12 12 12 12 12 12 13 13 13 13 12 13 14 14 14 15 17 16 15 16 16 15 15 15 16 17 17 18 18 18 19
20 18 22 20 20 13 13 12 10 10 12 11 12 11 11 12 12 12 13 13 13 13 13 13 15 14 14 15 15 17 17 17 16 16 17 17 15 16 17 17 18 19 19 19
15 13 16 16 14 12 11 10 10 9 10 9 10 11 11 13 13 13 12 12 13 13 14 14 15 16 17 16 16 17 17 17 18 19 19 18 17 15 16 17 17 19 19 19
13 14 16 15 13 11 10 10 9 8 8 10 10 11 11 12 12 12 13 13 13 13 13 14 15 16 17 17 18 19 19 19 20 20 20 20 19 17 16 17 17 18 17 17
12 13 14 14 10 10 10 8 8 10 10 11 12 12 11 11 12 13 14 13 14 14 14 15 16 17 18 18 19 19 21 22 22 22 21 20 20 19 17 17 17 15 14 15

GFSCGP_con_lsi_033.txt.gz
Lid_Strength_Index
13 16 17 14 14 15 17 18 18 16 14 16 15 15 14 12 13 12 11 11 11 11 9 9 9 9 10 10 10 10 10 9 8 8 9 10 10 9 9 9 9 10 10 11
16 18 15 14 15 15 16 17 17 15 14 16 16 16 14 13 12 12 11 11 11 11 10 10 10 10 10 10 10 10 10 10 9 8 8 8 9 9 9 10 10 10 10 11
16 15 14 15 16 16 17 18 17 17 16 16 17 17 16 14 13 12 11 11 11 11 11 10 10 10 10 11 10 10 10 11 10 9 9 12 11 12 11 11 11 11 11 11
16 15 15 17 17 16 18 15 16 17 18 20 17 21 16 13 13 12 13 13 12 12 11 11 11 11 10 10 10 10 10 11 11 10 11 11 11 12 11 11 11 12 12 12
16 16 17 17 16 15 16 16 16 17 18 19 19 20 18 16 15 14 13 12 12 11 12 11 11 11 11 11 10 11 11 11 11 11 10 11 11 11 12 11 12 12 13 12
16 15 15 15 15 15 15 17 17 19 19 22 19 19 19 17 15 14 13 12 12 12 12 12 12 12 11 11 12 11 12 11 11 11 11 11 11 11 13 13 13 13 13 13
17 16 15 15 16 16 16 18 21 21 22 20 19 20 16 15 13 14 13 12 12 12 13 12 11 11 11 11 12 12 12 12 12 12 12 11 11 11 13 13 13 14 14 14
19 17 16 15 14 15 16 16 18 23 23 18 20 20 17 14 13 13 13 13 12 11 12 12 12 12 12 12 12 12 12 13 13 13 12 12 12 12 12 13 13 13 13 13
16 17 16 15 15 14 17 17 15 18 25 22 17 15 13 14 14 13 13 12 12 12 13 13 13 13 12 12 12 12 13 13 13 13 13 13 12 12 12 13 13 13 13 13
14 17 14 15 15 15 15 14 18 18 21 21 18 17 17 15 13 13 13 15 14 13 14 13 13 13 13 13 12 12 12 13 13 13 13 13 13 12 12 14 14 14 13 14
11 14 15 14 15 14 14 15 15 15 16 20 21 18 14 14 14 15 14 14 15 15 15 14 13 13 13 13 12 13 13 13 13 13 13 13 13 13 13 14 14 14 14 14
10 13 16 14 12 12 12 13 13 15 17 15 16 16 11 11 12 13 14 15 14 14 14 14 13 13 12 12 12 13 13 13 13 13 13 13 13 14 14 14 14 14 15 15
10 14 18 16 14 12 13 12 12 13 14 17 19 17 11 11 11 13 15 15 15 14 14 14 14 13 12 12 12 13 13 13 13 14 14 13 14 14 14 14 14 15 14 14
8 12 15 18 14 13 14 14 14 15 18 17 17 15 13 12 15 14 14 14 14 15 15 14 13 13 12 12 12 12 12 12 13 15 14 13 13 13 14 14 14 14 14 14
10 14 14 13 13 14 15 15 15 16 16 18 16 16 13 14 16 16 15 15 14 15 16 15 14 13 13 13 12 12 12 12 13 14 15 15 14 12 12 13 13 14 14 14
12 16 15 19 14 13 15 16 16 16 15 15 15 15 13 13 13 14 14 15 15 16 15 15 14 14 14 13 13 13 13 13 13 13 13 12 13 13 13 13 13 14 15 15
14 15 20 18 15 18 22 18 15 15 16 16 17 15 14 14 14 13 14 13 13 14 13 14 13 13 14 14 13 14 14 14 13 13 12 12 13 14 14 14 14 13 14 14
14 18 22 26 26 29 17 15 14 14 15 16 16 16 14 14 12 13 12 13 13 13 13 13 13 13 13 13 13 13 14 14 13 13 12 12 14 15 15 15 14 14 14 14
13 15 26 27 30 21 16 16 17 19 20 16 18 16 14 12 12 14 11 11 12 11 11 11 11 11 12 12 13 13 14 14 13 13 12 14 16 15 15 15 15 15 15 14
13 13 18 29 28 29 19 16 14 15 22 16 16 15 14 12 18 15 12 11 11 11 11 11 11 11 12 12 12 12 13 14 14 13 13 15 15 14 15 15 14 14 15 15
26 25 20 22 22 22 17 13 13 23 20 16 15 13 13 14 12 11 11 11 11 11 11 11 12 12 12 12 12 13 13 14 13 13 15 15 15 15 15 14 14 15 15 16
20 26 29 33 32 26 15 14 18 15 12 14 12 12 13 11 11 10 11 11 11 12 12 12 12 13 12 13 13 14 15 14 14 15 15 16 17 17 17 16 15 15 16 16
20 18 21 20 20 14 13 13 10 10 12 11 11 11 11 11 11 11 12 12 12 12 11 11 13 13 13 12 13 15 15 15 16 17 18 18 18 18 19 18 17 16 15 16
16 14 16 15 13 12 11 10 9 10 10 9 9 10 11 12 11 11 12 12 12 12 12 12 13 14 14 13 13 14 15 15 18 20 20 20 20 20 19 19 18 16 16 16
13 14 16 15 12 11 11 10 9 9 9 10 11 11 11 12 13 12 13 13 13 13 13 13 14 14 15 14 15 16 16 17 19 20 20 21 21 21 21 19 18 17 15 14
12 13 14 15 11 11 11 9 10 10 11 12 13 13 12 12 13 13 14 14 14 15 15 16 16 17 18 18 19 18 18 19 21 22 22 22 22 22 22 21 20 16 14 12

GFSCGP_con_lsi_036.txt.gz
Lid_Strength_Index
10 12 13 11 10 11 12 13 14 12 10 12 12 12 11 10 9 9 9 8 8 8 7 7 6 6 6 6 6 6 6 5 5 5 5 4 4 4 4 3 4 5 5 6
12 13 10 10 11 13 13 14 14 12 11 13 12 13 11 10 10 9 9 8 8 8 7 7 7 6 6 6 6 7 7 6 6 5 5 5 5 5 4 4 5 5 6 7
12 10 10 11 12 13 13 14 13 14 12 12 14 13 12 10 10 9 9 9 9 9 8 8 7 7 6 7 7 7 7 7 7 6 6 6 6 7 6 6 6 6 6 7
12 11 12 13 13 12 14 11 13 14 15 16 13 17 12 10 10 10 9 9 9 9 8 8 8 8 8 8 7 7 7 8 8 7 7 7 8 8 8 7 7 7 7 8
12 13 14 13 13 12 13 13 13 14 15 15 15 16 12 12 12 10 10 9 9 9 9 9 9 9 9 8 9 8 8 8 8 8 8 8 8 7 7 7 8 8 9 8
13 12 12 12 12 12 12 13 13 14 15 17 14 15 14 12 12 10 10 10 10 10 11 11 11 10 11 10 10 10 10 10 9 8 8 8 8 8 8 8 9 9 9 9
12 12 12 12 13 12 13 14 16 17 17 17 15 16 14 11 11 12 12 12 11 11 11 12 12 12 12 12 11 11 11 11 11 10 9 9 9 8 9 8 9 9 10 10
16 15 13 12 11 11 13 13 17 22 19 17 14 16 13 10 11 12 11 11 11 12 12 12 12 12 12 12 12 12 12 12 12 11 11 10 10 9 9 9 9 9 9 9
15 14 11 12 11 11 13 15 11 16 15 18 15 12 11 11 12 11 12 12 12 12 12 12 11 11 11 11 12 12 12 12 12 12 11 10 10 10 10 9 9 9 9 9
11 15 10 10 12 12 12 11 16 15 21 20 16 15 14 13 12 12 11 12 13 12 12 12 12 11 11 11 10 10 11 11 11 11 11 10 11 11 10 10 10 10 10 10
9 11 12 11 12 12 13 13 13 13 16 19 20 15 11 12 13 13 13 13 14 14 13 13 12 12 11 11 11 11 10 11 11 11 11 11 11 11 11 11 10 10 10 10
9 13 16 13 9 8 9 11 11 16 17 15 16 16 8 11 13 13 14 14 13 13 13 13 13 12 12 11 11 11 12 11 11 11 11 11 11 12 12 12 12 11 11 11
10 14 17 15 12 10 12 11 11 12 13 17 19 16 8 8 10 13 14 14 14 14 14 14 13 12 12 12 11 11 11 11 11 11 11 11 11 12 13 13 12 12 12 12
8 12 15 17 14 12 14 12 12 13 16 16 15 14 12 12 13 15 15 14 13 13 13 13 13 12 11 12 12 12 11 11 12 12 12 12 12 12 13 14 13 13 13 13
9 14 12 12 11 11 12 12 13 14 14 16 15 14 12 13 14 15 14 15 14 13 13 13 13 12 11 11 12 12 12 12 12 13 13 13 12 12 13 14 14 13 13 13
11 13 13 15 12 12 13 13 13 13 13 13 13 14 11 11 10 11 12 13 13 12 12 13 12 12 11 11 11 11 12 12 13 14 13 12 12 13 15 14 14 13 12 12
13 13 15 17 13 15 18 16 13 13 12 12 15 13 12 13 13 12 12 12 12 11 12 11 11 11 11 11 11 11 11 11 12 12 12 12 11 13 14 14 13 13 13 13
13 14 14 17 19 22 15 12 12 12 13 12 12 12 12 12 11 11 10 11 11 10 11 10 10 10 10 10 10 10 11 11 12 12 12 12 12 14 14 13 13 13 13 14
12 13 16 19 18 16 15 12 13 14 14 11 12 12 11 11 10 11 9 8 9 9 9 9 8 9 9 9 9 10 10 10 11 11 12 11 13 15 14 15 13 13 13 13
14 12 15 21 20 21 14 12 11 12 16 12 11 11 11 11 14 12 9 8 8 8 7 8 8 9 9 9 9 11 11 11 11 11 11 11 12 14 14 14 14 13 12 12
17 16 17 16 18 15 11 11 10 17 15 10 9 10 11 11 10 8 8 8 7 7 8 8 9 10 10 10 10 12 12 12 11 12 12 12 13 14 14 14 14 14 14 13
16 17 18 20 20 20 12 11 14 10 8 9 9 9 9 9 9 8 8 8 8 8 9 9 10 10 10 10 11 12 13 12 12 13 14 14 15 15 15 16 16 16 15 14
17 14 15 15 14 11 10 9 8 7 9 9 8 8 8 9 9 9 9 9 9 9 9 9 11 12 12 11 11 13 13 12 13 15 16 16 16 17 17 17 17 17 16 16
12 10 14 13 11 10 9 8 7 7 8 7 7 8 9 10 10 11 10 10 10 11 11 11 13 14 14 13 14 14 14 15 17 18 18 17 18 18 18 17 17 17 17 16
11 11 12 12 11 9 9 8 7 7 7 9 11 11 11 11 12 12 12 13 13 13 13 14 15 16 16 16 17 17 17 18 20 20 20 20 19 19 19 19 18 17 17 16
10 11 13 13 10 9 10 7 8 9 10 12 12 12 12 13 13 13 14 14 15 15 16 17 17 18 19 20 20 20 21 21 22 23 22 22 22 21 21 21 21 17 16 15

GFSCGP_con_lsi_039.txt.gz
Lid_Strength_Index
9 11 12 10 9 10 10 11 12 10 9 10 11 11 10 9 9 8 8 7 7 7 6 6 6 6 5 5 6 5 5 5 4 4 4 3 3 2 2 1 1 1 2 3
12 13 9 9 9 11 11 12 12 10 9 10 11 12 10 9 8 8 8 8 8 7 8 7 7 7 7 7 7 6 6 6 5 5 4 4 4 3 2 2 2 2 2 3
13 10 9 11 11 11 11 12 12 12 10 10 12 13 11 9 7 9 9 9 8 8 9 9 9 9 8 8 8 8 7 6 6 6 5 5 5 5 6 5 4 3 3 3
11 11 12 12 13 12 14 10 11 13 13 15 12 17 12 9 9 10 10 10 10 10 10 10 10 10 10 9 8 8 8 8 7 7 7 6 7 7 6 6 5 5 5 5
12 13 13 13 12 11 13 11 12 13 14 14 14 15 12 9 11 11 11 11 11 11 11 11 11 11 11 10 10 9 9 9 9 8 7 7 7 7 7 6 5 6 6 6
11 10 11 11 11 11 11 12 12 12 13 16 13 13 12 11 11 12 11 11 11 10 10 11 10 11 11 10 10 10 10 11 10 9 9 9 9 8 8 7 7 7 7 7
10 10 10 11 12 11 12 13 16 17 17 17 12 13 12 10 11 11 11 11 10 10 11 11 11 11 11 11 11 11 11 12 11 11 10 10 10 9 9 9 8 8 8 8
13 14 11 10 11 11 11 11 15 22 19 17 12 16 12 10 10 10 10 10 11 12 11 12 12 11 11 11 11 11 11 12 12 11 11 11 10 10 10 9 9 9 9 8
13 14 9 10 9 10 11 13 10 15 16 19 14 12 10 10 10 10 11 12 12 12 12 12 12 12 11 12 11 11 12 12 12 12 12 11 11 11 11 10 10 9 8 9
10 14 9 9 10 10 11 10 14 15 20 20 15 13 13 11 11 11 12 12 12 12 12 12 12 12 11 11 11 11 11 12 12 12 12 11 11 11 11 11 11 10 10 10
8 11 11 9 11 11 11 12 12 12 16 19 19 15 9 10 11 12 12 12 12 12 12 12 12 12 12 11 11 11 12 12 12 12 11 11 11 11 11 11 11 10 10 10
9 12 16 12 8 7 9 11 11 17 17 16 16 15 7 9 11 11 12 12 12 12 13 13 12 12 12 12 12 12 11 11 11 12 12 12 12 11 11 12 12 12 11 10
9 13 17 14 11 10 12 11 11 12 14 17 19 16 8 10 11 11 12 12 11 11 12 13 12 12 12 12 12 12 11 11 11 11 12 12 11 11 11 12 12 12 12 11
8 12 15 17 13 12 14 12 11 12 16 15 15 13 11 9 10 12 12 12 13 12 12 12 13 13 12 12 12 12 12 11 11 11 11 12 12 11 11 13 13 13 12 12
9 14 12 12 11 10 11 12 11 12 12 15 13 12 10 8 8 11 10 11 12 12 11 11 12 11 11 12 12 12 12 12 12 12 11 11 11 11 10 13 13 13 13 13
10 13 12 14 11 11 12 12 11 11 11 11 11 11 8 9 10 11 11 11 11 11 11 11 11 11 11 11 11 10 10 10 10 11 11 11 11 11 11 13 13 13 13 13
11 12 13 16 13 14 17 15 13 12 11 11 13 11 11 12 12 11 12 11 11 10 10 10 10 10 9 10 10 10 9 9 10 10 11 11 11 12 11 13 13 13 13 13
12 13 13 16 16 21 14 12 12 13 12 11 10 11 11 11 10 10 9 9 10 10 9 9 9 8 8 8 8 9 9 9 10 10 11 11 11 12 12 13 13 14 13 14
11 13 15 18 18 16 15 13 13 14 14 10 9 10 10 10 10 10 8 8 8 8 7 7 7 7 7 8 8 9 9 10 10 10 10 10 10 11 11 13 13 13 13 14
13 12 14 17 20 21 14 13 11 11 16 9 9 10 10 10 14 11 8 7 7 6 6 6 6 7 7 8 9 10 10 11 11 11 11 11 11 12 13 13 14 13 14 14
17 16 17 17 17 16 11 10 10 16 14 9 8 9 10 11 9 8 7 7 7 7 7 7 7 9 9 9 10 11 12 12 11 12 12 13 12 13 13 14 14 15 15 15
16 17 17 16 18 19 10 10 13 9 8 7 8 8 9 8 8 8 8 8 8 8 8 9 10 10 10 10 11 13 13 13 13 14 14 15 15 15 15 16 16 16 16 17
17 13 14 14 13 9 8 8 7 7 8 8 8 7 8 8 8 8 9 9 9 10 10 10 12 13 12 12 13 15 15 15 16 18 19 19 18 18 17 18 18 18 18 18
11 10 12 12 11 9 8 7 6 6 7 7 6 7 8 9 9 11 11 11 11 11 12 12 13 15 15 15 15 16 16 17 19 21 21 20 21 21 20 20 19 19 19 19
10 10 11 11 9 8 8 7 7 7 6 7 8 10 10 11 12 12 12 13 12 12 13 13 15 16 17 17 17 18 18 20 22 22 22 23 22 23 22 21 21 21 20 19
9 10 11 12 8 8 8 6 6 7 7 8 11 11 11 13 13 13 14 13 14 15 15 17 17 18 18 19 19 20 21 22 24 24 24 24 24 24 23 23 23 20 18 17

GFSCGP_con_lsi_042.txt.gz
Lid_Strength_Index
10 13 14 12 12 12 13 14 14 12 10 11 12 12 11 9 10 10 10 11 10 10 9 9 9 9 9 9 9 8 8 7 7 6 6 6 5 4 4 4 3 3 4 4
12 14 11 10 11 12 13 14 15 13 10 12 13 13 11 10 10 11 11 11 11 11 11 11 11 11 11 11 10 10 9 9 8 8 7 7 7 6 6 5 4 4 4 5
13 12 10 11 12 13 14 15 14 15 13 13 14 15 13 11 11 11 11 11 12 12 12 13 13 12 12 12 11 11 10 10 9 9 8 8 8 8 8 8 7 6 5 6
12 12 12 13 13 13 15 13 14 14 16 19 15 20 15 12 13 13 13 13 13 13 13 12 13 13 13 13 12 12 11 11 10 10 10 10 10 10 9 9 8 7 6 6
12 13 13 14 13 12 14 13 14 15 17 17 16 19 16 13 15 14 13 13 13 12 12 13 13 12 13 13 13 13 13 12 11 11 11 11 11 10 10 9 9 9 8 7
12 12 12 12 11 12 12 14 14 14 16 20 15 16 16 15 14 14 13 12 12 12 12 12 12 12 13 13 13 13 13 13 12 12 11 12 12 12 12 11 11 10 10 9
12 12 11 11 13 12 13 15 18 19 20 19 14 16 14 13 12 12 12 12 13 13 13 13 13 13 13 13 13 13 13 13 13 13 13 12 13 13 13 13 12 13 12 11
15 16 12 11 12 13 13 13 18 22 21 19 15 18 14 12 11 11 12 12 12 13 13 13 13 13 14 13 13 13 13 14 14 13 13 13 13 13 13 13 13 13 12 12
14 14 11 11 10 11 13 14 11 16 17 19 16 14 12 11 12 12 13 13 14 14 13 13 13 13 13 13 13 14 14 14 14 14 14 14 13 14 14 14 14 13 13 12
11 15 10 11 10 11 12 11 15 15 22 23 17 16 14 12 11 12 13 14 13 13 14 14 13 13 13 13 14 14 14 15 15 15 15 14 14 14 14 14 15 15 15 13
9 12 13 10 12 12 12 13 12 13 16 20 20 17 11 12 12 13 13 13 13 14 15 14 14 13 13 14 15 15 14 14 15 15 15 14 14 14 14 15 15 15 16 15
10 13 16 14 9 9 11 12 12 16 18 16 16 16 10 11 12 12 13 12 13 13 14 14 14 14 14 14 14 15 14 13 12 13 13 14 13 13 13 14 16 16 16 16
10 14 18 16 13 11 13 12 11 12 14 17 19 17 10 11 12 12 12 13 13 12 13 14 14 14 14 13 12 12 12 13 12 13 13 14 14 14 14 14 17 17 16 16
8 12 15 17 14 12 15 13 11 12 16 16 16 14 11 10 11 12 13 13 13 14 13 12 13 13 12 12 12 12 12 11 12 12 13 14 14 13 14 14 16 16 16 15
9 16 13 13 12 12 13 14 14 14 13 15 14 13 11 9 9 12 11 12 13 13 13 13 12 13 13 12 12 12 11 11 11 12 13 13 13 12 12 13 15 16 16 16
10 19 15 20 13 13 14 14 13 13 13 12 12 13 9 10 12 13 13 13 13 13 12 12 12 12 12 12 12 12 12 12 11 12 12 12 12 12 12 13 13 14 15 15
14 16 21 23 15 17 21 17 14 14 13 13 15 13 14 14 13 14 14 13 13 12 12 12 11 11 11 10 10 11 11 10 11 11 11 11 11 11 12 12 12 13 14 14
14 17 18 23 22 28 17 14 15 15 15 14 14 16 15 14 14 14 13 13 13 11 11 10 10 10 9 9 10 10 10 10 10 11 11 10 10 11 11 11 12 12 12 14
12 14 21 24 26 19 16 15 16 17 18 15 16 15 14 13 14 15 10 10 10 10 9 9 9 9 9 10 10 10 10 10 11 11 11 11 11 12 12 12 12 12 12 13
14 13 17 26 27 29 19 16 13 14 22 16 15 15 14 13 18 14 10 9 9 9 9 9 9 10 10 11 11 11 12 12 13 12 12 13 13 14 14 14 14 13 13 14
23 23 20 19 21 21 16 14 13 22 18 14 14 12 12 13 12 10 9 9 9 9 10 10 11 11 11 11 12 14 14 14 14 14 15 16 16 17 18 17 17 17 17 17
20 23 25 24 27 25 13 14 17 13 11 12 10 10 11 10 10 9 9 10 10 11 11 11 13 13 13 13 14 15 16 15 16 17 18 19 20 20 20 21 21 20 20 20
21 17 21 19 19 13 12 12 9 9 11 9 10 9 9 10 10 10 11 11 11 12 12 13 15 15 15 14 15 18 17 17 18 20 21 21 21 21 22 23 23 23 22 22
16 14 18 17 13 12 10 9 8 8 9 8 8 9 9 10 10 11 12 12 12 13 13 15 16 17 17 16 16 18 18 19 21 22 22 22 23 23 23 23 23 24 24 24
15 14 16 14 11 10 9 8 8 7 8 8 9 9 10 11 12 12 13 14 14 14 15 16 17 17 18 18 18 19 19 20 22 23 23 23 23 23 23 22 23 22 22 22
11 12 13 14 10 9 9 8 8 8 9 9 10 12 11 12 13 14 15 15 16 17 17 18 18 18 19 19 19 20 20 22 23 24 24 24 24 24 23 24 23 19 17 16

GFSCGP_con_lsi_045.txt.gz
Lid_Strength_Index
12 14 15 14 13 13 15 15 16 14 12 14 14 14 13 11 12 13 12 12 12 13 12 12 12 12 12 12 11 11 10 10 9 7 7 7 6 6 5 4 4 4 4 4
14 16 12 12 12 13 14 16 16 14 13 14 15 15 13 14 14 13 14 14 14 14 13 13 13 13 13 13 13 12 11 11 10 9 9 8 8 8 8 7 6 5 5 5
15 13 11 12 13 14 15 16 16 16 15 15 16 17 15 14 14 13 14 14 14 14 14 14 14 14 14 14 14 13 12 11 11 11 10 10 10 10 10 10 9 8 6 6
14 12 12 13 14 14 16 13 14 15 17 19 16 21 17 15 15 15 15 15 15 14 14 13 14 14 14 14 14 14 13 13 12 11 12 12 12 12 12 11 10 10 8 7
14 14 14 14 14 13 15 14 14 15 17 18 17 20 17 15 16 15 15 14 14 13 13 13 13 13 13 13 14 14 13 13 13 12 12 13 13 12 12 12 12 11 11 9
14 13 13 13 12 12 12 14 15 16 17 20 16 17 17 16 15 15 14 14 13 13 14 13 13 12 13 13 14 14 14 14 13 13 13 13 13 13 13 13 13 13 12 11
14 14 13 12 14 13 14 16 18 20 21 20 15 17 15 13 13 13 14 14 14 14 14 14 14 14 13 13 14 13 14 14 14 13 13 13 13 13 14 14 14 14 14 13
16 16 13 12 12 14 14 14 19 24 21 20 15 18 15 13 13 13 14 14 14 14 14 14 13 13 14 13 13 14 14 14 14 14 14 14 14 14 14 14 14 15 15 14
15 15 12 12 12 11 13 14 12 16 18 21 16 14 12 12 13 13 14 14 15 15 15 15 15 14 14 14 13 14 14 14 14 15 15 15 15 15 15 16 16 16 16 15
12 15 11 13 11 12 12 11 15 15 23 24 18 17 15 13 14 13 14 14 14 14 14 15 14 14 14 14 13 13 14 14 14 14 15 14 14 14 15 16 17 17 16 16
11 12 13 11 12 13 13 14 13 13 16 20 21 17 12 11 13 13 13 13 14 15 15 15 14 14 14 14 14 14 14 13 13 13 15 15 15 15 14 15 15 16 17 17
10 13 16 14 10 10 11 12 12 16 18 16 17 16 11 11 11 12 12 12 13 14 15 14 14 14 14 13 14 14 14 13 13 13 13 14 14 15 16 16 16 16 16 16
10 15 21 18 13 11 13 12 12 13 14 17 19 17 11 12 12 12 13 14 12 12 14 13 14 14 13 13 12 12 12 14 14 14 14 14 15 15 15 14 15 15 15 15
7 13 16 18 15 13 15 13 12 13 18 18 16 15 13 12 12 12 13 13 14 14 13 13 13 13 13 12 13 13 12 12 12 12 13 14 14 13 14 14 14 14 14 14
10 17 14 14 13 13 14 14 14 15 14 17 14 14 13 11 12 12 12 13 14 13 13 14 13 13 13 13 13 13 13 12 12 13 13 13 12 13 13 13 13 13 13 13
12 19 17 22 14 14 15 14 14 14 13 13 13 14 10 12 14 15 14 14 13 14 13 13 13 13 13 13 13 12 13 13 13 13 13 12 12 11 11 11 12 12 12 12
15 17 23 25 16 18 22 18 15 14 14 14 16 13 15 14 14 15 14 14 14 14 13 13 13 13 12 12 12 12 12 12 12 11 11 11 11 11 11 11 11 11 11 12
15 19 23 27 26 29 17 15 15 14 14 15 16 17 15 15 14 14 14 14 13 13 12 12 12 11 11 10 11 11 11 11 11 11 12 11 11 11 11 11 12 12 12 12
13 14 23 24 30 21 17 15 16 18 18 18 17 17 15 14 15 16 13 12 12 11 11 10 10 10 11 11 11 11 11 11 12 12 13 13 14 15 15 15 15 15 15 15
15 12 15 30 26 28 19 17 15 15 21 18 19 18 15 15 20 17 12 11 10 10 10 10 11 11 11 12 12 13 14 14 15 14 15 15 16 17 18 18 18 18 18 18
24 25 18 19 25 23 17 15 14 22 19 18 16 14 14 16 15 12 11 10 10 10 11 11 12 12 12 13 14 15 15 16 16 16 17 17 18 19 20 20 20 21 21 20
21 23 26 25 22 24 15 15 18 15 14 14 13 13 13 12 11 10 10 10 11 12 12 12 14 14 13 14 15 17 17 16 17 18 19 20 21 21 21 22 22 22 23 23
21 19 22 20 20 15 14 14 12 11 13 12 12 11 10 11 10 10 10 11 11 13 12 14 16 16 15 16 17 19 18 18 18 21 22 22 22 22 22 23 23 23 23 23
17 15 18 19 15 14 12 11 10 10 10 10 9 9 10 10 9 10 11 12 13 13 14 15 17 18 18 18 17 20 18 18 22 23 22 22 22 23 23 23 23 23 24 24
16 16 18 18 14 12 12 11 9 9 9 9 9 9 9 10 12 12 13 14 14 15 15 17 18 18 19 19 19 21 20 21 22 22 22 23 23 24 24 23 23 23 22 21
14 14 16 17 12 11 11 9 9 9 9 9 9 12 12 11 12 14 15 15 15 16 17 18 18 19 20 20 20 21 22 22 22 22 22 23 24 25 24 24 24 20 18 17

GFSCGP_con_lsi_048.txt.gz
Lid_Strength_Index
12 15 16 15 14 14 15 16 17 15 12 14 14 15 15 14 14 15 15 15 15 15 14 13 13 13 13 13 13 12 12 12 10 10 9 8 7 7 8 7 6 4 3 3
15 17 13 13 13 14 15 16 16 15 13 15 15 16 16 15 15 15 15 16 15 15 15 14 14 14 14 14 14 13 13 13 12 11 11 10 10 10 10 10 10 9 7 6
16 14 12 13 14 14 15 16 16 16 15 16 17 17 17 15 15 14 15 15 14 15 15 15 15 15 15 15 15 14 13 13 13 12 12 11 11 12 12 11 11 11 10 8
15 13 13 14 14 14 16 14 14 15 17 19 16 20 17 16 16 15 15 16 15 15 14 14 14 14 14 15 14 14 14 13 13 13 13 13 14 14 14 13 12 12 11 11
14 14 15 15 14 13 15 14 15 16 18 18 18 19 18 15 17 16 15 15 15 14 14 14 14 14 14 14 15 15 14 13 13 13 14 14 14 14 14 14 14 14 13 12
14 13 14 13 13 13 13 15 15 17 18 21 17 18 18 17 15 15 15 15 15 15 15 14 14 14 14 14 14 15 15 14 14 14 14 15 15 14 15 15 15 15 14 13
15 14 14 13 14 14 15 16 19 20 21 20 16 18 16 14 14 14 15 15 15 15 15 15 15 15 14 15 15 14 15 15 15 14 15 15 15 15 15 16 16 16 16 15
16 17 14 13 13 13 15 15 19 24 22 19 16 18 16 14 14 13 13 14 14 14 14 14 14 14 14 14 14 15 14 15 15 14 15 15 15 15 14 15 16 16 16 16
16 15 13 13 12 12 14 16 14 17 21 21 17 16 14 14 15 14 14 15 15 15 15 14 13 14 14 13 14 14 15 15 15 15 13 13 14 14 15 15 15 15 16 15
13 16 13 13 12 13 13 12 16 17 23 23 19 17 17 16 15 14 15 15 15 14 14 14 14 14 14 14 14 14 14 14 15 15 15 14 13 13 14 14 15 15 15 16
12 13 15 13 14 14 14 15 15 14 17 20 22 18 13 13 14 14 14 13 14 14 13 14 13 13 14 14 15 14 13 14 14 14 14 15 15 14 14 14 15 16 16 16
11 14 19 15 12 12 12 13 13 18 19 16 17 17 12 11 12 12 12 12 13 14 14 14 14 14 14 15 14 14 14 14 14 14 14 15 14 15 15 15 15 14 14 13
10 15 22 18 15 13 13 13 12 13 14 19 19 18 12 12 12 12 12 13 13 14 15 14 14 15 14 14 13 13 13 13 13 13 13 13 13 14 14 13 13 13 13 14
8 14 16 17 16 14 15 13 12 14 20 16 17 15 14 13 12 12 13 13 14 14 14 14 14 14 14 13 14 14 14 13 13 13 14 14 14 14 14 14 14 14 14 14
11 16 16 14 14 14 14 15 14 15 15 18 16 15 13 11 12 12 12 14 14 14 14 14 13 13 13 13 13 13 13 13 13 13 13 13 13 13 13 13 13 13 13 13
13 19 17 20 14 14 16 15 15 14 14 14 13 14 11 13 13 14 13 14 14 14 13 13 13 13 13 13 13 13 13 13 13 14 14 13 13 12 13 13 13 13 12 13
14 17 21 22 18 19 22 19 16 15 15 15 17 14 14 15 14 15 15 14 14 14 13 13 13 13 13 13 13 14 14 13 13 13 13 13 12 13 12 12 13 14 14 14
15 18 18 24 25 28 18 17 16 16 15 15 16 18 16 15 14 14 14 14 14 13 13 13 13 13 12 13 13 13 12 13 12 13 14 13 13 15 14 15 15 15 15 16
13 15 19 23 28 22 17 17 18 18 19 18 17 18 15 15 15 17 13 13 13 13 12 12 12 13 13 13 13 13 13 13 13 14 14 14 15 17 16 18 17 17 18 18
15 12 15 26 27 27 20 18 16 16 22 19 19 18 15 15 20 17 14 12 12 12 12 13 13 12 12 13 13 13 14 14 15 15 15 16 16 18 19 19 20 20 20 20
24 21 17 20 20 22 17 15 14 22 19 18 17 15 14 16 14 13 13 12 12 11 12 13 13 13 13 13 14 15 16 17 16 16 17 17 18 20 20 21 21 22 22 22
21 22 22 20 20 23 16 15 18 15 14 15 13 13 14 13 13 13 12 12 12 13 12 13 14 14 14 14 16 17 18 17 18 18 19 20 21 21 20 22 22 22 23 24
21 18 21 19 19 14 15 14 12 12 14 13 12 12 12 13 13 12 12 12 12 13 13 15 16 16 16 16 17 20 18 18 19 23 23 23 22 21 21 22 23 24 24 24
17 15 18 19 16 14 12 11 10 11 11 11 11 12 12 12 11 11 12 12 13 14 15 16 17 18 18 19 18 21 20 19 26 27 24 22 22 22 22 21 22 24 25 25
15 15 18 18 15 13 12 11 10 10 10 11 11 11 11 11 11 11 13 14 14 15 16 17 18 18 19 19 21 23 21 23 24 23 22 22 21 22 22 22 23 23 22 22
15 15 17 17 12 12 11 10 10 10 10 10 10 12 11 10 11 12 14 14 16 17 18 19 19 20 21 23 23 24 25 26 26 23 22 21 21 22 22 23 23 19 18 17

GFSCGP_con_lsi_051.txt.gz
Lid_Strength_Index
14 17 17 16 15 15 16 17 18 16 13 15 15 15 16 15 15 16 16 16 16 16 15 15 15 15 15 14 14 13 13 12 11 11 10 10 10 9 10 10 10 8 7 6
16 18 15 14 15 16 17 18 17 16 14 15 15 16 16 16 16 16 16 16 16 16 15 15 15 15 15 15 14 14 14 13 13 12 12 12 12 11 11 11 11 11 11 10
16 14 13 14 16 16 17 17 17 16 16 16 18 17 17 16 15 15 15 15 15 15 15 15 15 15 15 15 15 14 14 14 13 13 13 13 13 14 14 14 13 13 12 13
16 14 14 15 16 15 17 14 15 16 17 19 17 20 18 17 17 16 16 16 16 16 15 15 15 16 16 16 15 14 14 14 14 13 14 14 15 16 15 15 15 15 14 14
15 15 15 16 15 14 15 15 15 16 18 19 19 19 19 17 18 17 16 16 16 15 15 15 15 15 15 15 16 15 15 14 14 14 15 15 16 16 16 16 17 16 16 15
14 14 14 14 14 13 14 16 16 17 18 21 18 17 19 18 16 16 15 15 15 15 15 15 15 15 15 15 16 16 15 15 14 14 15 15 16 17 17 17 18 17 16 16
16 15 14 14 15 15 15 16 19 21 21 20 18 19 17 16 15 14 15 15 16 15 15 15 15 15 15 15 15 15 15 15 15 15 15 15 16 17 17 18 17 17 16 16
17 17 14 14 14 15 16 15 19 24 22 20 17 19 17 16 15 14 14 15 15 14 14 14 14 15 15 15 15 15 15 15 15 15 15 15 14 15 16 16 16 16 16 15
17 16 14 14 13 13 16 17 14 18 20 23 18 17 16 16 16 16 16 15 15 15 14 14 14 14 14 15 14 14 15 15 14 14 14 15 15 14 15 15 15 15 15 15
14 16 14 14 13 15 14 13 17 18 23 24 19 18 17 18 17 16 15 15 15 15 14 14 14 14 14 14 14 13 13 13 14 15 15 15 15 15 15 15 17 16 16 15
13 14 16 14 15 15 15 16 16 15 18 23 24 19 15 15 15 15 15 14 14 14 15 14 14 13 13 13 14 14 14 14 14 13 14 15 15 15 15 15 16 16 15 16
12 15 20 16 14 14 14 15 14 16 18 17 18 17 14 13 13 13 13 13 14 14 14 14 13 14 14 14 14 14 14 14 15 14 15 14 14 14 14 14 15 15 14 15
11 16 21 16 16 15 15 14 14 14 16 16 18 18 13 13 13 12 13 13 13 14 14 14 14 14 14 14 14 14 14 14 14 14 13 14 14 14 14 14 14 14 14 14
9 14 17 17 16 15 15 13 13 14 17 16 16 14 15 14 13 13 12 12 13 14 15 15 15 15 15 14 14 14 14 14 14 14 14 14 14 14 14 14 14 14 14 14
11 15 16 16 15 15 15 15 14 16 14 16 15 15 13 12 12 12 12 13 14 15 15 15 15 15 14 14 14 14 14 14 14 14 14 14 14 14 14 14 14 14 14 15
13 17 16 17 16 15 16 15 15 14 14 15 14 14 12 12 12 13 13 14 14 14 14 14 13 13 13 13 14 13 14 14 14 15 14 14 15 15 15 15 15 16 16 16
14 17 18 17 19 19 20 18 16 15 15 14 16 12 15 15 14 13 13 14 14 14 13 13 13 13 13 13 13 14 15 14 15 15 16 16 15 16 16 16 16 16 16 16
15 16 18 22 23 23 17 19 18 16 15 16 16 18 16 15 14 14 14 14 13 13 13 13 13 14 13 14 14 14 15 15 15 16 17 16 16 17 16 16 17 17 17 17
15 16 22 21 24 21 18 18 19 20 19 17 16 17 15 15 16 17 14 14 13 13 13 13 13 14 14 15 15 16 16 16 16 16 15 16 16 18 17 19 18 18 19 19
16 15 15 25 23 25 20 20 17 16 22 20 18 17 16 16 19 16 14 13 13 12 12 13 13 14 15 16 16 16 16 16 17 15 16 16 17 20 20 19 20 20 20 20
22 19 18 21 19 21 18 17 15 22 19 19 17 15 15 16 14 14 13 13 13 12 13 14 14 15 16 16 16 17 17 17 16 17 17 18 18 20 21 21 21 21 22 21
22 22 23 20 20 22 16 15 17 15 15 15 14 14 14 13 13 13 13 13 13 14 14 15 16 16 16 16 17 17 18 17 18 18 19 21 22 22 21 23 22 22 23 23
21 19 20 18 19 15 15 14 12 12 14 13 12 12 12 13 13 13 13 13 13 14 15 16 17 16 16 16 17 19 18 18 19 24 25 25 23 22 22 23 23 23 23 23
19 17 20 19 17 15 13 11 11 11 11 11 11 12 12 13 13 13 13 13 14 15 16 17 18 18 18 19 18 20 20 19 27 30 26 23 23 22 22 21 21 22 23 24
17 17 19 19 15 13 12 11 10 10 11 12 12 12 12 13 13 12 13 14 14 14 15 17 17 18 19 19 21 24 22 25 26 25 23 23 22 23 22 21 21 21 20 20
16 17 17 18 13 12 12 11 11 11 11 11 12 13 12 11 11 12 12 13 14 16 17 18 19 19 21 22 23 25 27 28 29 25 22 22 22 22 22 22 22 17 16 15

GFSCGP_con_lsi_054.txt.gz
Lid_Strength_Index
14 16 17 15 16 16 17 18 18 17 15 16 15 16 16 15 16 17 17 17 16 16 15 15 15 15 15 14 14 14 14 13 11 11 10 11 12 12 12 12 12 11 11 10
16 18 15 15 15 16 17 19 18 16 15 15 16 16 17 16 17 17 17 17 17 16 16 15 15 15 15 15 14 14 14 14 13 13 13 13 13 14 14 14 14 14 13 13
17 15 14 15 16 17 18 18 18 17 16 17 18 18 18 17 16 16 16 16 16 16 16 16 16 17 16 16 16 15 14 14 13 13 13 14 15 16 16 16 16 15 15 15
16 14 14 16 16 16 18 15 16 17 18 19 18 21 19 18 18 17 17 17 17 17 16 16 17 17 17 17 16 15 15 15 14 14 15 16 17 17 17 17 16 16 16 16
15 15 16 16 15 14 16 15 16 17 19 20 19 20 19 18 19 18 17 17 17 17 17 17 17 16 17 17 17 16 15 15 15 15 15 16 16 16 17 17 17 16 16 15
14 14 14 14 15 14 14 16 16 18 19 21 18 18 19 19 17 17 17 17 16 16 16 16 16 16 16 16 17 16 15 15 15 15 15 16 17 17 16 16 16 16 16 16
16 15 15 14 16 16 16 17 20 21 22 21 19 19 17 16 15 15 16 16 16 16 16 16 17 17 16 16 16 16 16 16 15 15 16 16 16 16 16 16 16 16 16 16
17 18 15 14 15 16 16 16 19 24 23 21 18 19 17 17 16 14 14 15 16 16 16 16 16 16 16 16 16 16 15 15 15 15 15 14 14 14 15 16 15 15 15 14
17 17 15 15 14 14 17 18 16 20 21 23 19 17 17 17 18 17 16 16 16 16 16 16 15 15 16 16 16 15 15 15 15 15 15 15 14 15 15 15 15 15 15 15
14 17 15 15 14 15 15 14 18 19 24 26 20 19 18 18 18 17 16 16 16 15 15 15 15 15 15 15 15 15 15 15 15 15 15 14 15 15 15 15 16 16 16 16
13 14 16 15 16 16 17 17 17 17 20 23 25 20 16 15 15 16 16 15 15 15 15 15 15 15 15 15 15 15 15 14 14 14 14 14 15 15 15 15 15 15 15 15
12 16 20 17 16 15 16 16 15 17 20 19 20 18 14 14 14 14 14 14 14 14 15 15 15 15 15 15 15 15 15 15 14 14 14 14 14 14 14 14 14 14 14 14
12 15 22 18 17 16 16 15 15 16 17 18 20 18 15 14 14 13 13 13 14 14 15 15 15 15 15 15 15 15 15 15 14 14 14 14 14 14 14 14 14 14 14 14
10 15 17 17 17 16 16 16 15 15 18 17 16 14 16 14 14 14 13 13 14 14 14 15 15 15 15 15 15 15 15 14 14 14 14 14 14 14 15 14 15 15 15 15
12 15 17 17 17 16 16 16 15 16 14 16 14 15 13 13 12 12 12 13 14 15 16 15 15 16 15 15 15 15 15 15 15 15 15 15 14 15 15 15 16 16 17 17
14 16 19 20 17 17 17 16 16 14 13 14 16 15 13 12 13 14 13 13 14 14 14 14 14 14 14 14 14 14 15 14 14 15 15 15 15 15 16 17 17 18 18 18
15 17 17 17 19 18 17 16 15 15 15 14 16 13 15 15 14 13 14 14 13 13 13 14 14 13 13 13 13 14 14 14 15 15 16 16 17 18 18 18 19 19 19 19
17 17 17 19 21 21 16 19 17 14 15 15 18 19 16 15 15 15 14 14 13 14 14 14 13 14 13 13 13 14 15 15 16 17 18 18 18 20 19 19 19 19 19 19
16 16 20 20 22 19 17 19 19 19 19 18 17 16 17 17 17 17 14 15 14 14 13 13 12 13 14 14 15 15 16 16 17 18 18 18 19 21 20 21 20 19 20 20
16 15 14 23 22 22 19 20 18 18 23 20 17 18 18 17 20 17 15 14 13 13 13 13 13 13 14 16 16 17 18 18 19 18 18 18 19 22 21 20 21 20 21 20
20 19 17 18 20 20 19 18 18 22 19 21 19 17 17 18 16 14 14 14 13 13 13 13 13 14 15 17 17 18 18 19 18 19 18 18 19 22 22 22 21 22 22 21
21 20 24 21 20 21 18 18 18 16 17 17 17 15 15 14 14 13 14 13 13 13 13 14 15 16 17 17 18 19 19 18 19 19 19 22 24 23 22 26 24 23 23 24
22 19 20 18 19 18 16 15 13 13 15 14 14 14 13 14 14 13 14 14 13 14 14 16 16 17 18 18 19 19 18 18 19 24 26 27 25 23 23 25 24 23 23 24
20 19 21 20 19 17 14 13 12 12 13 12 12 13 13 13 13 14 14 14 14 15 16 17 17 18 18 19 18 20 19 19 28 29 26 24 25 24 24 22 21 23 23 23
18 18 21 21 17 15 13 13 12 12 12 13 13 12 13 13 14 13 14 14 14 15 16 16 16 17 18 19 20 23 22 24 26 27 24 24 24 25 22 21 21 21 19 18
17 18 19 20 14 13 13 11 11 12 12 12 12 14 13 13 13 13 14 13 14 15 16 17 17 18 19 20 22 24 27 27 28 25 23 23 23 22 22 22 22 17 15 14

GFSCGP_con_lsi_057.txt.gz
Lid_Strength_Index
13 15 16 15 15 15 16 17 17 16 15 15 15 15 16 16 16 17 17 17 16 16 15 15 15 15 14 14 13 13 12 11 10 11 11 12 14 14 14 14 14 13 13 12
16 17 14 14 15 16 17 18 18 16 15 15 16 16 17 17 17 17 17 17 16 16 16 16 16 16 16 15 14 14 13 13 12 12 13 13 14 15 15 15 15 15 14 14
17 15 14 15 16 17 18 18 18 17 16 16 17 17 18 17 17 16 16 16 16 16 17 17 17 17 16 16 16 15 15 14 14 13 13 14 14 15 15 15 15 15 15 14
16 14 14 16 16 16 18 16 16 16 17 18 17 20 18 18 18 17 17 17 17 17 17 17 17 17 17 17 16 15 15 15 15 14 15 15 16 16 16 15 15 14 14 14
15 15 16 16 15 15 16 15 16 16 17 19 18 20 18 18 19 18 17 17 17 16 17 17 17 17 17 16 16 15 15 15 15 15 14 15 15 15 15 14 14 14 14 13
14 14 14 14 15 14 15 16 16 18 19 21 18 18 18 19 17 17 16 16 16 16 16 16 16 16 17 16 16 15 15 15 14 14 14 15 15 15 14 15 15 14 14 14
16 15 15 14 16 15 16 17 20 21 21 20 19 19 17 16 16 15 16 16 16 16 16 16 17 17 17 17 16 15 15 15 14 14 14 14 14 14 14 14 14 14 14 14
17 18 15 14 15 16 17 16 19 23 23 21 18 20 16 16 15 14 14 15 15 16 16 16 16 16 16 16 16 15 15 15 14 14 14 14 14 14 14 13 13 14 13 13
18 17 15 15 15 14 17 18 16 20 21 22 19 17 16 17 17 16 16 16 16 16 16 16 16 16 16 16 16 15 15 15 15 14 14 14 13 13 14 14 13 13 13 13
15 17 16 16 15 15 16 15 18 19 24 25 20 19 17 18 17 17 16 16 16 16 16 16 15 16 15 15 15 15 15 15 14 14 14 14 14 14 14 14 14 14 14 14
14 15 17 15 16 17 17 17 17 17 19 22 24 20 16 15 15 17 16 15 15 15 15 15 15 15 15 15 15 15 15 15 15 14 14 14 14 14 14 14 14 14 14 14
13 15 19 17 16 15 16 16 16 18 20 20 20 18 15 14 15 15 15 14 14 14 14 14 15 15 15 15 15 15 15 15 14 14 14 14 14 14 14 14 14 14 14 14
13 15 19 19 17 16 16 16 16 16 18 20 20 18 15 15 15 15 15 14 14 14 15 15 15 15 15 15 15 15 15 14 14 14 14 14 14 14 14 14 14 14 14 15
10 15 16 17 17 16 17 16 16 15 21 17 17 15 16 15 15 15 15 14 14 14 15 15 14 14 14 14 15 15 15 14 14 14 14 14 14 14 14 15 15 15 16 16
12 15 15 18 17 16 17 17 16 16 14 15 14 15 14 13 13 13 13 14 15 15 15 15 14 14 14 14 15 15 15 14 14 14 14 14 14 15 15 16 16 16 16 17
14 15 16 18 17 17 18 17 16 15 14 14 14 15 12 12 13 13 13 14 14 14 14 14 14 13 14 13 14 14 14 14 14 14 15 15 15 16 16 17 17 17 17 18
15 17 17 17 19 18 18 17 17 16 16 13 16 12 13 14 13 13 13 14 13 13 14 15 13 13 13 13 13 13 14 14 14 15 15 16 17 17 18 18 18 19 19 19
16 16 16 24 21 22 18 21 18 15 14 15 17 17 14 13 14 14 14 14 14 14 14 14 13 13 13 13 13 13 14 14 15 16 17 17 18 19 19 19 19 20 19 20
17 16 20 21 21 19 19 21 19 18 18 16 14 15 17 17 17 16 16 15 14 14 14 14 13 13 13 13 13 14 15 15 16 17 17 18 19 20 20 22 20 20 20 20
16 16 15 22 22 22 19 21 19 17 21 19 14 14 18 18 20 17 16 16 15 15 14 13 13 13 13 14 14 15 16 17 18 17 17 18 19 21 22 21 21 20 20 20
20 20 18 19 20 20 19 19 18 21 19 19 18 18 18 18 17 16 16 16 15 14 14 14 14 13 14 15 16 17 18 18 18 18 19 19 20 21 21 21 21 21 22 21
19 19 21 21 20 21 19 19 18 16 18 18 18 17 17 17 16 16 15 14 14 14 14 13 14 15 16 16 16 17 18 18 19 19 19 21 23 22 21 26 23 23 23 24
20 17 19 18 18 18 16 16 15 14 16 17 16 16 16 16 16 15 15 15 14 14 14 15 15 17 18 18 17 18 18 18 19 21 24 25 24 22 23 25 23 23 23 23
20 19 20 19 18 17 16 15 15 14 15 14 14 15 15 15 14 15 15 14 15 14 15 17 17 17 18 19 18 19 19 19 23 25 24 23 24 23 23 21 21 22 23 22
17 18 20 20 18 16 15 14 13 13 14 14 14 14 13 14 15 14 14 15 15 14 16 16 16 16 17 19 20 21 20 22 23 24 23 23 23 24 22 21 21 20 19 19
17 18 19 20 16 15 14 12 12 13 13 13 13 14 14 13 13 14 15 14 14 15 16 17 17 17 19 19 20 22 23 23 23 22 22 22 22 22 21 21 21 17 15 13

GFSCGP_con_lsi_063.txt.gz
Lid_Strength_Index
7 10 11 9 8 8 9 10 10 9 9 11 10 10 9 11 11 11 11 11 11 11 11 11 10 9 10 10 10 9 9 9 9 11 11 11 11 11 10 10 10 10 10 9
11 12 9 8 8 9 10 11 11 10 11 12 11 11 9 10 11 11 11 11 11 11 11 11 10 9 10 10 10 10 10 9 9 10 10 10 11 11 11 11 11 11 10 10
11 9 9 10 11 11 11 11 11 12 12 12 12 12 11 10 11 12 11 10 11 11 12 11 10 9 10 10 10 10 9 9 9 9 10 10 10 11 11 12 12 11 11 11
11 9 11 11 12 11 13 10 11 12 13 14 11 15 10 11 13 13 12 12 12 11 11 11 11 10 10 11 10 10 10 9 9 9 9 9 11 12 12 12 12 12 11 11
12 12 12 12 12 11 12 11 12 12 13 13 12 15 12 12 13 13 12 12 11 12 12 12 12 12 11 11 10 10 10 10 10 10 10 10 11 11 12 12 12 12 11 11
11 11 11 11 11 11 11 12 12 13 13 16 13 14 13 13 13 12 12 12 12 12 12 12 12 12 12 11 11 11 12 12 11 11 11 11 11 12 12 12 12 12 12 12
12 12 11 11 13 12 12 13 17 18 18 18 14 13 12 10 11 10 12 12 11 12 12 13 14 13 13 12 12 12 12 12 11 11 11 11 11 11 12 12 12 12 12 12
14 15 12 11 11 12 13 12 16 21 20 16 16 17 13 11 10 11 10 11 11 12 13 13 13 13 13 13 12 12 12 12 12 12 12 12 12 12 12 12 12 12 12 12
13 13 11 11 10 10 13 14 11 16 18 17 15 13 11 13 13 12 11 11 11 12 13 13 13 13 13 13 13 12 12 12 12 12 12 12 12 12 12 12 12 12 12 13
11 14 13 13 12 12 12 11 16 15 20 20 15 14 13 14 13 13 12 11 11 11 12 13 13 13 13 13 12 12 12 12 12 12 12 12 11 11 11 12 12 13 13 13
10 12 15 14 15 14 14 14 13 13 14 18 18 14 10 10 11 12 12 11 11 11 12 12 13 13 13 12 12 12 12 12 12 12 12 12 12 12 12 12 12 12 13 13
10 12 15 15 12 11 11 13 13 15 17 15 15 14 11 10 9 10 11 10 10 10 11 12 12 13 13 13 13 13 12 12 12 12 11 12 12 12 12 12 13 13 14 14
10 13 18 15 14 14 14 13 12 12 13 16 17 15 12 11 10 9 10 10 10 10 11 12 12 13 13 13 12 12 12 12 11 11 11 12 12 12 12 13 13 14 14 14
10 12 15 17 13 12 15 14 13 13 15 15 14 12 13 12 11 10 9 9 9 10 11 12 12 12 12 12 12 12 12 11 11 11 11 12 12 12 12 13 14 15 15 14
11 16 13 12 11 12 12 13 13 14 13 14 12 12 10 11 11 10 9 9 10 10 11 11 12 12 12 12 12 12 11 11 11 11 12 12 12 12 13 14 15 15 15 15
12 15 14 15 12 12 14 13 12 13 13 12 12 11 8 8 9 9 9 10 11 11 11 11 11 11 12 12 12 12 11 11 11 12 12 12 13 14 15 15 16 16 16 15
15 15 16 17 13 14 17 14 13 12 11 11 14 11 12 11 11 10 10 10 11 10 10 11 11 11 11 11 11 12 12 12 12 12 13 14 14 15 15 16 16 16 16 15
15 15 15 17 16 21 13 13 13 11 11 11 11 12 11 11 10 10 10 10 11 11 11 11 11 10 10 10 11 11 12 12 13 13 14 14 15 15 15 16 16 16 16 16
13 14 15 17 17 15 13 15 14 13 13 11 12 13 13 15 14 12 12 10 10 10 10 10 10 9 10 11 11 12 13 13 13 14 14 15 15 15 15 16 16 16 16 16
16 15 15 18 18 20 14 15 14 12 16 12 11 12 14 15 15 11 13 12 12 11 10 10 10 10 10 11 11 13 13 14 14 14 14 14 15 16 16 16 16 16 16 16
18 17 17 16 17 15 13 16 15 17 14 13 12 11 14 14 12 14 13 13 12 11 12 11 11 12 11 13 13 14 14 14 13 13 14 15 15 16 16 16 16 17 17 17
16 17 17 16 17 18 16 17 15 12 14 13 12 12 13 13 15 15 14 14 15 14 13 13 13 14 14 13 13 14 14 13 13 14 15 16 17 16 17 18 18 18 18 18
16 13 14 14 14 15 14 14 13 13 12 14 13 13 12 14 15 14 14 14 14 13 14 13 14 15 14 13 12 13 13 14 15 16 17 18 18 17 17 18 18 17 16 16
15 15 14 13 14 14 14 14 14 14 14 13 13 13 13 14 14 14 14 14 14 14 14 14 14 14 14 13 13 12 14 15 17 17 18 18 19 18 18 17 16 16 15 15
14 14 15 15 15 15 14 13 12 13 14 14 14 13 13 13 13 13 13 13 13 13 14 13 13 13 13 14 14 15 15 17 16 17 18 17 17 17 17 16 15 15 14 14
14 15 15 14 13 12 12 11 11 13 13 13 13 14 13 12 12 12 12 12 12 13 13 13 13 13 13 14 14 15 16 16 16 17 17 16 16 17 16 15 15 13 12 12

GFSCGP_con_lsi_069.txt.gz
Lid_Strength_Index
10 13 14 12 13 12 13 14 15 13 12 14 13 13 12 12 13 13 14 13 13 13 13 12 12 12 12 11 10 10 10 10 10 10 11 12 13 13 12 12 12 12 12 11
12 14 11 11 11 12 13 15 15 13 12 14 14 14 12 12 12 12 12 13 14 15 14 12 13 13 12 12 10 10 10 10 10 10 11 12 13 13 13 13 13 12 13 13
14 12 9 11 12 13 14 14 14 14 14 14 15 16 15 12 12 12 11 12 13 14 14 13 13 13 13 12 10 10 10 11 11 12 12 13 13 13 14 14 14 14 13 13
13 10 11 13 13 12 15 12 13 13 15 18 15 18 16 14 14 13 12 13 13 14 14 13 13 14 13 11 10 10 11 11 11 12 12 13 14 15 16 15 15 15 14 14
14 13 13 13 13 12 14 12 13 14 16 17 17 18 18 14 14 14 13 14 14 14 14 13 13 13 13 11 11 11 11 11 11 12 13 14 15 15 15 16 16 16 15 15
14 13 13 13 13 12 12 13 14 15 16 20 17 17 16 14 12 11 13 14 15 14 14 13 13 13 13 12 12 12 12 12 12 13 14 15 15 16 16 16 16 16 16 16
14 14 13 12 14 13 13 16 19 20 21 20 16 17 15 13 13 12 14 14 15 14 14 14 14 15 14 13 13 13 13 14 14 14 15 15 15 15 16 16 16 16 16 17
17 17 13 13 13 15 15 15 19 23 22 20 18 19 16 13 14 13 13 13 14 14 14 15 15 15 15 14 14 14 14 15 15 14 15 14 15 15 15 15 16 16 16 16
17 16 13 13 13 12 16 16 13 16 24 22 18 17 14 14 15 15 15 14 15 14 15 15 15 15 15 15 15 15 15 15 14 14 14 14 15 15 15 16 16 16 16 16
13 16 14 15 13 14 14 13 17 15 22 22 19 19 16 16 16 15 15 14 14 14 15 15 15 16 15 15 16 15 15 15 15 15 14 14 15 15 15 16 16 17 17 16
12 13 17 15 16 15 16 16 15 14 18 22 23 18 14 13 14 15 14 14 14 14 15 16 15 15 15 15 15 15 15 15 15 15 15 15 15 15 16 16 17 17 17 17
11 13 17 17 14 13 13 14 13 17 20 18 19 17 15 14 13 13 13 13 13 14 15 16 16 16 15 16 16 15 15 15 15 15 15 15 15 16 16 17 17 17 17 17
10 14 18 16 15 14 15 14 13 14 16 17 20 16 15 14 14 14 14 13 13 14 15 16 16 16 16 16 16 15 15 15 15 15 15 16 16 17 17 17 18 17 18 18
9 13 15 18 16 16 18 15 14 13 16 18 16 15 15 15 15 15 14 13 13 14 15 16 16 16 16 16 16 16 16 15 15 15 16 17 17 17 17 17 18 18 18 18
10 15 14 13 13 13 15 17 15 15 14 16 14 14 12 13 14 13 13 14 14 14 15 16 16 16 16 16 16 16 15 15 15 16 16 17 17 17 17 17 17 18 18 18
11 15 14 15 13 13 14 14 13 15 14 13 13 14 12 11 13 13 13 13 14 14 14 15 15 16 16 16 16 15 15 15 15 16 16 16 16 16 17 17 18 18 18 18
13 14 16 17 15 14 17 14 14 13 12 14 15 13 12 11 11 13 13 13 13 13 13 14 15 15 15 15 15 15 15 15 15 16 16 16 16 16 17 17 18 18 18 18
14 14 14 17 15 21 15 15 11 12 11 10 12 12 14 12 11 12 12 12 12 12 13 13 14 14 15 15 15 15 15 16 16 16 15 15 16 16 17 18 18 18 18 19
12 14 15 17 18 16 15 17 15 14 14 11 11 10 10 15 15 14 13 13 13 13 13 12 12 13 14 15 15 15 16 15 15 15 15 15 16 17 18 18 18 18 18 19
15 13 14 16 19 20 17 17 15 13 18 15 11 11 14 13 15 13 14 13 12 12 12 12 13 14 14 14 15 15 16 15 15 14 14 15 15 16 17 17 18 18 18 19
18 17 17 16 18 16 15 16 16 18 16 17 15 14 14 13 12 11 12 11 11 12 12 12 13 13 13 14 14 15 15 15 14 14 15 15 15 16 16 17 18 19 19 18
17 18 18 17 18 19 16 16 15 14 16 16 15 14 14 15 14 14 14 14 14 14 14 14 15 16 16 15 15 16 16 15 16 16 16 16 16 16 17 17 19 19 19 20
16 14 16 14 15 15 16 16 15 14 14 14 14 14 13 15 16 16 16 16 15 15 15 17 16 17 18 16 15 16 17 17 16 16 16 16 17 17 17 18 19 20 22 21
16 15 16 15 16 15 15 15 14 14 15 15 15 14 13 14 15 16 16 16 16 16 16 18 17 17 18 18 16 16 16 16 16 16 18 18 18 19 19 18 19 20 21 21
15 16 17 18 17 15 13 13 11 12 14 15 15 14 13 14 15 15 16 16 16 16 17 17 17 17 17 18 18 17 16 16 16 17 18 19 19 19 21 20 20 19 19 18
16 16 15 16 14 13 13 11 11 12 13 14 14 15 15 14 15 15 16 15 16 16 17 17 17 18 18 18 18 19 17 16 18 19 20 20 20 21 20 20 22 14 14 13

GFSCGP_con_lsi_072.txt.gz
Lid_Strength_Index
11 13 15 12 13 13 14 15 15 14 12 13 14 13 12 13 14 13 13 13 13 13 13 12 12 11 11 12 12 12 11 10 10 11 11 12 13 13 13 12 12 12 12 12
13 15 11 10 12 13 14 15 14 13 12 13 14 14 13 14 13 12 12 12 12 14 14 13 13 13 12 12 11 11 10 10 10 10 12 12 13 13 13 13 13 13 13 13
13 11 10 11 13 14 14 15 15 14 13 15 16 15 15 13 13 13 12 11 12 13 14 13 13 13 13 13 11 10 10 10 11 12 13 13 13 14 14 14 14 14 14 14
13 11 11 13 13 13 15 13 13 14 15 17 15 18 16 14 14 13 12 12 13 14 13 13 13 13 14 13 10 10 10 11 12 12 13 13 14 15 15 15 14 15 15 15
13 13 13 13 13 12 14 13 14 15 17 18 17 19 17 15 15 13 12 13 14 14 14 13 13 13 13 11 10 10 12 12 12 12 12 14 15 15 15 15 16 16 16 15
14 13 12 12 13 12 13 14 15 16 17 20 17 17 15 14 13 11 11 14 14 14 14 13 13 13 12 10 10 11 12 12 12 13 13 14 15 15 16 16 17 17 17 16
14 14 14 13 14 14 14 16 20 21 21 20 17 18 14 13 13 12 12 14 15 15 14 14 15 14 13 12 12 12 12 13 13 14 14 14 15 16 16 17 17 17 17 17
17 18 14 13 13 14 15 15 19 23 22 20 18 19 16 13 12 14 13 13 15 15 14 14 14 14 14 13 13 12 13 14 14 14 15 15 16 16 16 16 17 17 17 17
17 17 14 14 14 12 15 16 14 18 25 22 18 16 13 13 14 14 14 15 16 15 15 14 14 14 14 14 14 13 13 14 14 14 15 15 15 16 16 17 17 17 17 17
14 17 15 15 13 14 15 14 18 17 23 23 19 18 16 14 14 14 15 16 16 15 15 15 15 15 15 14 14 14 13 14 14 14 15 15 15 16 16 16 17 17 17 17
12 13 17 15 16 16 16 16 16 15 18 21 23 18 14 13 13 14 15 15 15 15 16 16 15 15 15 16 16 14 14 15 15 15 15 16 16 16 17 17 17 17 17 18
12 13 18 16 14 13 14 14 14 16 20 19 19 16 14 14 14 13 14 14 15 14 15 16 16 16 16 16 16 15 15 15 15 15 16 16 16 17 17 18 18 18 18 18
10 14 18 17 15 14 15 14 13 14 17 18 19 17 15 14 14 15 14 15 15 15 16 16 16 16 16 16 16 16 16 16 16 16 16 17 17 17 18 18 18 18 19 19
9 13 15 18 16 15 17 15 14 13 16 18 16 15 16 15 15 14 14 15 15 16 16 17 17 16 16 16 16 16 16 16 16 16 17 17 17 18 18 18 18 19 19 19
10 15 13 13 13 15 16 15 14 14 14 16 14 14 12 13 13 13 14 15 15 15 16 16 17 17 16 16 16 16 16 16 16 17 17 17 17 17 18 18 19 19 19 19
10 15 13 15 13 13 15 14 15 14 13 13 13 13 12 11 12 14 13 14 15 15 15 16 16 16 16 16 16 16 16 16 16 16 17 17 17 17 18 18 19 19 19 19
12 14 15 17 14 14 17 14 13 13 13 12 15 12 10 11 11 12 13 14 14 14 14 15 15 16 16 16 16 16 16 16 16 16 16 17 17 17 18 18 19 18 18 18
12 13 14 17 15 21 13 13 10 12 11 12 12 11 11 11 10 10 12 13 13 13 12 13 14 15 15 15 15 16 16 16 16 16 16 16 17 17 18 18 18 18 18 19
12 13 15 18 18 15 14 16 15 13 13 10 11 11 10 10 14 13 12 13 12 12 12 12 13 14 15 15 15 16 16 16 16 16 16 16 16 17 18 18 18 18 18 18
13 12 14 16 19 20 17 17 14 12 15 14 10 10 10 14 15 11 13 13 13 13 13 14 15 15 15 15 15 16 16 16 16 15 15 15 15 16 17 17 18 17 17 17
17 16 16 16 17 16 15 16 14 16 16 17 14 12 14 14 12 12 13 13 13 13 13 13 14 15 14 15 15 15 16 16 15 14 14 15 15 15 16 16 17 17 18 18
16 17 17 15 17 19 16 15 14 14 16 15 14 14 14 13 14 14 14 13 13 13 13 13 14 14 14 15 14 15 15 14 14 14 15 15 15 15 15 16 17 18 18 19
16 15 16 15 15 12 15 13 13 13 13 14 13 14 13 13 14 15 15 15 15 15 16 17 16 17 17 15 14 15 15 15 15 15 16 16 16 15 15 16 18 18 17 17
14 14 14 15 15 15 15 15 14 13 14 15 15 14 13 14 15 16 16 16 16 17 17 18 17 18 18 19 17 16 16 16 16 16 17 17 16 17 17 16 16 16 18 18
14 15 17 17 16 15 14 14 13 14 15 15 15 15 13 13 16 16 16 16 16 16 17 17 16 17 18 19 19 18 17 16 16 17 18 18 16 17 17 17 17 16 18 16
15 15 15 16 13 12 12 12 12 12 13 15 15 16 15 14 14 15 16 16 17 18 19 19 20 19 21 20 20 21 18 16 17 18 18 17 18 19 19 20 23 15 16 13

GFSCGP_con_lsi_075.txt.gz
Lid_Strength_Index
11 13 15 12 13 13 14 15 15 14 12 14 14 14 12 12 14 14 14 14 13 12 12 12 11 12 11 11 12 12 10 10 10 11 11 11 12 12 12 12 12 11 11 12
13 15 11 11 12 13 14 15 15 14 13 14 14 14 13 13 13 13 12 13 13 13 14 12 12 12 12 11 11 12 10 10 10 10 12 12 12 13 13 13 13 13 13 13
13 12 11 11 13 14 14 15 16 15 14 15 16 16 15 13 13 12 12 11 11 12 14 14 13 12 12 11 11 11 10 10 10 12 13 14 13 14 14 14 14 14 14 14
13 11 11 12 13 13 16 13 13 14 16 18 16 18 16 14 14 14 12 11 12 13 13 13 13 13 12 11 10 10 10 10 12 12 13 13 13 14 15 15 15 15 14 15
13 13 13 14 13 12 14 13 14 15 17 18 19 19 17 15 15 13 11 11 13 13 13 13 13 13 12 12 10 10 10 12 12 12 12 12 13 15 15 15 16 16 15 15
13 12 11 12 12 12 13 14 15 16 17 20 18 17 15 16 14 13 11 12 13 14 14 13 13 13 13 12 10 10 12 12 12 12 13 14 15 16 16 16 17 16 16 17
14 14 13 13 14 14 14 16 20 21 22 20 19 19 15 13 13 12 12 12 13 14 15 14 14 13 13 12 11 12 12 13 13 13 14 14 15 15 16 16 16 17 18 18
17 18 14 13 13 14 16 16 19 23 22 20 18 20 17 14 13 12 13 13 14 15 15 14 14 13 13 12 11 12 12 13 13 14 14 14 15 15 16 16 16 17 17 17
17 17 15 14 14 12 16 17 14 18 25 23 19 17 14 14 13 12 14 15 15 16 15 15 14 13 13 11 11 12 13 14 13 14 14 15 15 16 16 17 17 17 17 17
14 17 16 15 13 14 15 14 18 18 24 24 20 19 17 14 13 13 14 15 16 16 15 15 14 14 13 13 12 13 13 14 14 15 15 15 16 16 16 17 17 17 18 18
13 15 17 15 16 16 16 17 16 15 18 22 23 18 15 14 14 14 13 14 15 16 15 15 15 14 14 14 14 14 14 14 15 15 15 15 16 16 17 17 18 18 18 18
12 14 20 17 15 14 15 15 14 16 20 19 20 17 14 14 14 14 13 14 15 15 15 15 15 16 16 16 16 15 15 15 15 15 15 16 16 17 17 18 18 18 18 19
11 14 18 17 14 14 15 15 13 14 16 19 19 17 15 14 14 14 14 15 15 16 17 16 16 16 16 16 16 15 15 15 15 15 16 16 17 18 18 18 18 18 19 19
9 13 16 17 15 14 16 15 14 13 16 17 16 14 13 15 14 14 14 15 16 16 16 17 17 16 16 16 16 16 16 15 15 16 16 17 18 18 18 18 19 19 19 19
10 15 14 13 14 14 15 14 14 15 14 16 14 14 12 11 12 11 13 14 15 16 17 17 17 16 16 16 16 16 16 16 16 16 17 17 18 18 18 19 19 19 19 19
10 15 13 15 13 13 14 14 14 13 13 13 13 13 10 11 11 13 12 14 15 15 15 16 16 16 16 16 16 16 16 17 16 16 17 17 18 18 18 19 19 19 19 20
13 14 15 17 13 14 17 14 13 13 12 12 14 12 10 11 11 11 12 13 14 14 14 16 16 16 16 16 15 16 16 17 17 17 17 17 18 18 18 18 19 19 19 19
13 13 14 17 15 21 14 12 10 11 11 11 11 10 9 10 9 10 12 12 13 13 13 14 14 15 15 15 15 15 16 16 16 16 17 17 17 18 18 19 19 19 19 19
10 12 15 17 18 15 14 16 14 14 13 10 10 10 10 11 13 11 12 12 11 12 12 12 13 14 15 15 15 16 17 16 16 17 17 17 17 17 18 18 18 18 18 19
13 11 14 16 19 20 15 15 13 12 15 13 10 9 9 12 14 10 12 13 13 13 13 13 14 16 15 15 15 16 17 17 16 16 16 16 16 16 17 18 18 17 18 18
15 15 17 16 17 15 16 16 13 16 15 17 14 11 13 12 10 12 14 13 15 14 14 15 15 16 15 16 16 16 17 16 15 15 15 16 15 16 16 16 17 18 18 18
15 16 16 15 17 19 16 15 14 13 17 16 15 14 15 14 14 14 14 14 14 13 14 15 17 17 17 15 15 16 16 15 15 15 15 15 15 15 16 16 17 17 17 18
15 14 15 14 14 13 14 14 12 13 14 13 13 13 13 13 13 14 13 14 14 15 16 17 16 17 17 16 14 15 15 14 14 14 14 14 14 14 15 16 17 17 17 17
13 13 13 13 13 12 13 13 14 13 13 13 13 12 12 13 13 14 15 15 16 18 18 19 18 18 19 18 17 17 16 15 14 14 14 14 15 15 16 16 16 16 16 16
13 13 14 15 14 14 13 13 13 13 14 15 15 14 13 13 15 16 16 17 16 17 19 19 18 18 18 19 19 19 17 15 15 15 16 16 15 16 17 16 16 16 15 14
14 14 14 14 11 11 11 11 12 12 14 14 15 16 16 14 14 16 17 16 17 17 19 18 19 18 20 19 19 20 18 16 17 19 19 18 18 18 18 18 21 13 14 12

GFSCGP_con_lsi_078.txt.gz
Lid_Strength_Index
12 14 15 13 13 14 15 16 16 14 12 14 14 14 12 13 14 14 13 13 13 13 11 13 11 11 11 11 11 11 9 9 9 10 10 10 12 11 12 12 11 9 10 10
13 15 11 11 12 13 14 16 16 14 13 14 14 14 13 12 13 12 11 12 12 12 14 14 13 12 12 9 10 11 9 10 9 9 11 11 12 13 13 13 13 12 12 12
14 12 11 11 13 14 15 16 15 14 14 15 16 16 15 13 13 12 11 11 11 11 13 14 13 12 12 10 11 11 9 10 10 12 13 13 13 13 14 14 14 14 13 14
13 12 12 13 14 13 16 13 14 15 16 18 16 19 16 14 13 14 12 12 12 13 13 13 13 13 12 10 11 10 9 10 11 12 12 12 12 13 14 14 15 15 15 15
13 13 13 14 13 12 14 13 14 15 17 18 19 19 17 16 16 14 11 11 13 13 13 13 13 12 12 10 11 10 10 10 12 12 11 12 12 14 15 15 16 16 15 15
13 12 12 12 12 12 12 14 15 17 17 20 17 17 16 16 15 13 12 13 12 13 14 14 13 13 12 10 10 10 10 11 13 12 12 12 14 15 16 16 16 16 16 16
14 13 13 12 14 13 14 15 18 20 21 19 19 19 15 14 14 14 12 13 14 14 15 14 14 13 13 11 10 10 11 13 13 13 13 13 14 14 15 16 16 17 17 17
16 17 14 13 13 14 15 15 18 23 22 20 19 20 17 14 13 13 13 14 13 14 15 15 14 13 13 11 10 11 12 13 13 13 13 14 14 14 15 15 16 16 16 17
17 16 14 14 14 12 16 17 15 18 26 23 19 17 15 14 14 13 13 14 14 14 15 15 14 13 13 11 11 12 12 13 13 13 14 15 14 15 16 16 16 17 17 17
14 17 16 15 14 14 15 14 18 19 24 25 20 19 17 15 13 13 14 14 14 15 16 15 15 14 13 11 11 12 12 13 13 14 14 14 15 16 16 17 17 17 17 17
14 15 17 16 16 16 16 17 17 16 19 22 24 18 15 14 14 14 14 14 14 15 16 15 15 14 13 13 13 13 12 13 14 14 14 15 15 16 16 17 17 17 17 18
13 15 20 17 16 15 15 15 14 16 20 19 20 17 14 14 14 14 13 14 15 15 15 15 15 15 15 15 15 13 13 14 14 14 15 15 16 16 17 17 17 17 18 18
11 14 18 16 15 14 16 15 13 14 16 19 21 17 15 14 14 14 14 14 14 16 16 16 16 16 15 15 15 14 13 13 14 15 15 16 16 17 17 17 18 18 19 19
9 13 15 17 16 15 17 16 14 13 16 17 16 14 13 15 14 13 14 14 15 16 16 17 17 16 15 15 15 15 15 15 15 16 16 16 17 17 17 18 18 19 19 20
10 15 14 13 14 15 15 15 14 15 14 16 14 14 12 11 11 10 11 14 15 16 16 17 16 16 16 16 16 16 16 16 16 16 16 17 17 17 17 18 18 19 19 19
10 15 14 15 14 15 16 15 14 13 13 13 13 14 10 11 10 11 11 12 14 14 15 16 16 16 16 16 16 16 16 16 16 16 16 16 17 17 18 18 19 19 19 19
12 14 15 17 13 14 17 14 13 13 12 12 14 12 10 11 11 11 10 11 13 13 13 15 15 15 15 15 15 16 16 16 16 16 17 17 17 18 18 18 19 19 20 19
13 14 14 17 15 21 14 12 10 12 11 11 11 10 9 10 10 10 10 12 12 12 12 13 14 14 15 15 15 15 16 16 16 17 17 17 17 18 18 19 19 19 19 19
11 13 15 18 18 15 15 15 14 13 13 10 11 10 9 9 12 10 12 11 10 11 11 11 12 13 15 16 15 16 17 17 17 17 17 17 17 18 18 19 19 19 19 19
11 11 14 16 19 20 13 12 13 11 15 10 10 9 10 11 14 10 10 11 12 12 12 12 13 15 16 16 16 17 17 17 17 16 16 16 16 17 18 17 18 18 18 19
15 14 16 16 17 16 16 16 14 16 14 14 11 9 10 12 10 12 13 13 14 14 14 14 15 15 16 16 16 17 17 17 16 16 16 16 16 17 17 17 18 18 18 18
15 16 16 15 17 19 15 14 14 13 16 17 15 14 14 13 12 13 13 13 13 14 15 16 17 18 18 17 16 16 17 16 16 16 16 16 17 16 16 17 17 18 18 18
15 14 16 13 14 13 14 14 12 13 14 14 14 13 13 13 13 14 13 13 13 15 15 17 17 18 18 17 17 17 16 16 16 16 16 15 15 16 16 16 17 17 17 17
12 11 12 12 12 11 12 12 13 12 13 11 12 13 13 13 13 13 15 14 15 18 17 19 18 18 18 18 17 15 15 15 14 14 15 14 15 15 15 15 15 16 17 17
11 11 12 13 12 12 11 11 9 10 12 13 14 12 12 12 14 14 15 16 15 16 18 18 17 18 18 20 20 18 16 14 14 14 14 14 14 14 15 15 15 16 15 15
12 12 12 13 11 11 11 11 11 12 11 12 14 15 15 13 14 15 16 16 17 17 19 19 20 20 20 19 20 20 17 15 15 17 15 14 14 14 15 15 17 12 12 11

GFSCGP_con_lsi_081.txt.gz
Lid_Strength_Index
12 13 15 12 13 14 15 16 16 14 13 13 14 13 12 11 13 12 11 12 11 11 9 11 11 10 10 10 9 8 7 7 8 8 8 9 9 10 11 11 9 8 8 8
13 15 11 12 12 13 14 15 15 14 13 13 14 14 13 11 12 11 10 10 11 10 11 12 12 11 10 10 9 10 8 9 8 7 8 9 11 12 12 12 12 10 9 10
14 12 11 12 13 14 15 15 15 14 14 14 15 16 14 12 11 11 11 10 9 11 11 13 13 12 11 10 9 9 8 8 8 9 11 12 12 12 13 13 13 13 12 11
13 11 12 13 14 12 15 13 14 14 15 17 15 18 15 13 12 12 11 10 11 12 12 12 12 12 11 10 9 9 8 8 9 10 10 10 10 11 12 13 14 14 13 13
13 13 13 14 13 12 14 13 14 15 16 17 17 17 16 15 14 12 10 10 12 12 12 12 12 11 11 10 9 9 9 8 10 10 10 10 10 12 12 14 15 15 15 15
13 12 12 12 12 12 12 14 14 16 16 19 17 16 16 15 14 13 12 11 12 12 13 13 13 12 11 10 10 9 9 9 10 11 10 10 12 14 14 15 15 15 15 16
14 13 12 12 13 13 13 14 17 19 20 19 18 18 14 13 13 13 12 12 12 12 13 14 13 13 12 10 10 10 9 10 11 11 11 11 12 13 13 14 14 16 16 16
15 16 13 12 12 13 14 14 17 22 21 19 18 19 16 14 13 13 13 13 13 12 13 14 13 13 12 11 10 10 10 11 11 12 12 13 13 13 13 13 14 15 16 16
16 16 14 13 13 11 15 16 14 17 25 21 18 17 14 14 14 13 12 13 13 13 13 14 14 13 12 11 10 10 10 11 11 11 13 13 13 14 15 15 15 16 16 17
13 16 15 14 13 14 14 13 17 18 22 23 19 19 17 14 14 13 14 13 13 14 14 14 14 13 12 11 10 10 11 12 11 12 13 14 14 14 15 16 17 17 17 17
13 14 17 16 16 16 16 16 16 16 18 21 23 18 15 14 13 13 13 13 13 13 14 14 14 14 13 11 11 12 12 12 12 12 13 14 14 15 16 16 17 17 17 17
12 14 19 17 16 15 16 15 15 18 20 19 20 17 14 13 13 13 13 13 13 14 14 15 14 14 13 12 12 13 12 12 12 13 13 14 15 15 16 16 17 17 17 17
12 14 18 16 16 15 16 15 13 15 17 19 19 16 15 14 14 13 13 13 14 14 15 15 15 15 14 13 13 13 13 13 13 13 14 15 16 16 16 17 17 17 18 18
9 14 14 17 15 15 17 16 15 13 17 16 16 14 14 14 13 13 13 13 13 14 15 15 15 15 15 14 13 13 13 13 14 14 14 15 16 16 16 17 17 18 18 18
10 15 14 13 14 14 15 15 14 15 14 15 14 14 12 11 11 10 11 13 14 14 15 15 15 15 15 15 14 14 14 14 14 15 15 16 16 16 16 17 18 18 18 18
10 15 14 15 13 14 15 15 14 14 13 13 13 13 10 11 10 10 10 10 12 13 13 14 15 15 15 15 15 14 14 15 15 15 15 15 16 16 17 18 18 19 19 19
13 15 15 17 14 15 17 14 15 14 13 13 15 12 9 12 10 10 10 11 10 12 12 12 13 14 14 14 14 14 14 15 15 15 15 16 16 17 17 18 18 19 19 19
14 15 14 17 15 21 14 12 10 12 12 12 12 11 10 10 10 10 9 10 10 10 11 11 12 13 13 13 14 14 14 15 15 15 16 16 17 17 17 18 18 18 19 19
10 13 15 17 18 15 14 14 13 13 13 10 11 10 9 9 12 10 11 10 9 9 10 10 11 12 13 14 14 15 15 15 15 16 16 16 16 17 18 18 18 18 18 19
12 11 14 16 19 20 15 17 13 11 15 9 10 9 10 11 14 10 10 11 11 11 12 12 12 13 14 15 15 15 16 16 16 15 16 16 16 17 18 17 18 18 18 18
14 14 16 16 17 15 13 16 13 16 14 16 11 9 9 11 10 11 12 12 12 13 13 14 13 14 15 15 15 16 16 16 15 16 16 16 16 16 17 17 17 17 18 18
14 15 16 15 17 19 16 15 14 14 14 16 14 13 13 12 11 12 12 12 13 13 14 15 16 17 17 15 15 16 16 16 16 16 17 17 16 16 16 17 17 17 17 18
15 12 14 13 14 12 13 13 12 12 13 12 13 12 12 12 13 12 13 13 13 14 15 18 17 18 18 17 16 17 17 16 17 17 17 17 16 16 17 17 17 17 17 17
13 10 12 12 11 10 10 10 10 10 10 11 12 12 12 12 13 13 15 14 14 18 17 19 18 19 19 20 18 17 16 16 15 15 16 16 16 17 17 16 16 16 17 17
12 12 14 13 11 10 9 10 9 9 10 10 10 12 11 11 12 14 14 15 14 16 18 18 17 18 18 19 19 18 16 15 15 15 15 15 15 16 16 16 15 16 15 15
12 12 13 13 10 10 9 8 9 10 10 11 11 13 14 13 12 13 13 14 15 15 17 18 18 19 20 19 19 19 16 15 15 16 15 14 14 14 15 15 15 13 13 12

GFSCGP_con_lsi_084.txt.gz
Lid_Strength_Index
8 9 11 9 8 10 11 11 11 10 10 10 10 10 8 7 7 8 7 6 6 6 5 5 6 6 5 4 4 4 4 4 4 4 4 5 5 6 8 7 6 5 5 6
9 11 8 8 9 10 11 11 11 10 10 11 10 10 9 8 7 7 6 6 6 5 5 6 7 7 7 6 5 5 5 4 4 4 4 4 5 7 7 9 9 7 6 6
10 10 9 9 11 11 11 11 11 11 10 10 11 11 9 8 8 7 6 6 6 6 6 6 7 7 7 6 6 6 5 5 4 4 4 7 8 10 11 10 10 10 8 9
10 9 10 11 11 10 12 10 10 11 12 13 11 15 10 9 8 8 7 6 6 6 6 7 7 8 7 7 6 6 5 5 4 4 6 6 7 9 9 9 10 11 11 10
10 11 11 11 10 9 11 10 11 11 11 12 12 14 11 10 10 8 6 5 5 6 7 7 8 8 7 7 6 6 5 5 5 5 5 5 5 5 8 9 11 12 13 13
10 9 9 9 10 9 10 10 11 11 11 15 12 13 13 10 9 8 6 6 7 8 8 8 9 8 8 7 7 6 6 5 5 6 6 5 5 8 10 10 12 13 14 14
11 11 10 9 11 10 10 11 14 16 17 16 13 14 12 9 8 8 7 7 8 8 8 8 9 10 9 8 7 7 6 6 6 6 6 6 6 9 9 9 12 14 15 15
13 14 11 9 9 10 11 10 13 20 17 14 15 16 11 9 7 7 8 8 8 8 8 9 9 9 9 9 8 7 7 7 7 7 7 7 7 7 8 9 10 10 13 14
13 13 10 11 10 9 12 13 9 13 17 16 13 11 10 9 9 9 8 8 8 8 9 9 10 10 9 9 8 8 7 7 8 7 7 8 9 10 11 11 11 12 12 15
10 13 12 11 10 10 10 9 13 13 20 19 14 14 12 10 10 9 9 8 8 9 9 10 10 10 10 9 8 8 7 7 8 8 8 10 10 11 11 13 14 15 16 16
10 11 14 12 12 11 12 12 12 11 13 17 18 14 9 9 8 9 8 8 8 9 9 10 10 10 10 9 8 8 8 8 8 9 9 10 11 12 12 13 15 15 16 17
10 11 14 13 12 11 9 10 11 14 16 14 15 14 10 9 8 8 8 9 8 9 10 10 10 10 10 10 9 9 9 9 9 9 10 10 11 13 14 14 15 16 16 17
11 13 18 16 13 12 14 12 11 11 13 15 17 14 11 10 10 10 9 9 9 10 11 11 11 11 10 10 9 9 9 9 9 9 10 11 12 14 14 15 16 16 17 17
10 13 15 17 13 11 14 13 12 12 15 14 14 12 11 11 10 9 10 9 9 10 10 10 10 10 10 10 9 9 9 9 10 10 11 12 13 14 14 15 16 16 17 17
11 16 14 13 11 12 12 13 13 13 12 14 12 12 10 9 9 8 8 9 10 10 10 9 9 10 10 10 10 10 10 10 11 11 12 12 13 13 14 16 16 16 17 17
10 15 14 15 12 13 14 13 12 12 12 12 11 11 8 7 7 7 7 7 9 10 9 9 10 11 11 11 10 10 10 11 11 12 12 12 14 14 15 16 16 17 17 18
13 14 15 17 13 14 17 14 13 12 11 11 13 10 8 8 8 8 7 7 7 7 7 8 8 9 10 10 10 11 10 11 12 12 12 13 14 14 15 16 16 17 18 18
13 14 14 16 14 20 13 10 9 11 10 10 10 9 8 8 8 7 6 6 7 7 7 7 7 8 8 9 10 10 11 11 12 12 13 13 14 15 15 16 17 17 17 18
10 12 15 17 16 14 12 11 11 12 12 8 9 9 9 8 8 8 7 7 6 6 6 6 6 6 8 10 10 11 12 12 13 12 13 13 14 15 15 16 16 17 17 18
10 10 14 15 18 19 13 11 11 9 16 11 8 8 8 7 11 8 6 7 7 6 8 8 8 9 10 11 11 12 13 13 13 12 12 13 14 14 15 15 16 16 17 17
14 13 15 16 17 15 10 11 10 16 13 13 12 11 11 11 8 7 8 8 8 9 10 10 11 11 11 13 13 13 13 14 13 13 13 14 14 14 14 15 15 16 17 17
13 14 15 14 17 18 12 11 13 12 12 12 10 10 11 11 10 9 9 10 9 9 11 12 13 13 13 13 13 14 14 13 13 14 14 14 14 14 14 15 16 16 17 18
14 11 12 13 13 9 9 10 9 10 10 9 10 10 10 10 9 9 9 10 10 10 12 14 14 14 15 14 13 14 14 14 14 14 15 15 14 14 15 15 16 16 16 16
11 9 11 11 10 9 7 7 8 8 8 8 8 9 9 9 8 10 10 11 12 12 13 14 15 15 15 15 15 14 14 14 15 15 15 15 15 15 15 15 15 15 15 15
10 10 11 11 10 9 8 8 7 8 8 8 8 9 9 8 9 10 10 11 11 12 13 14 14 14 14 15 14 14 14 14 14 14 15 15 14 15 15 15 14 15 14 13
10 11 13 13 10 10 10 8 6 7 8 8 9 9 11 11 10 10 11 11 12 12 13 14 14 14 14 14 14 14 13 13 14 14 14 14 15 15 15 15 15 13 13 12

GFSCGP_con_lsi_087.txt.gz
Lid_Strength_Index
6 9 10 8 8 8 9 10 10 9 8 9 9 9 8 7 7 7 6 6 5 5 3 3 3 4 3 1 1 1 1 1 2 2 3 4 4 4 5 4 4 1 1 2
8 10 8 7 8 9 9 11 11 9 8 10 10 10 8 7 7 6 6 6 5 5 4 3 4 4 4 3 1 1 1 1 1 2 2 3 3 2 4 6 7 5 4 5
10 9 7 8 9 10 10 11 11 11 9 9 10 10 9 7 6 6 6 5 5 5 4 4 4 5 4 5 3 2 2 2 2 2 2 3 3 5 7 8 8 9 6 6
9 7 9 9 10 9 12 9 10 10 11 13 10 14 10 9 8 7 6 5 5 4 4 4 4 5 5 5 4 3 3 3 3 2 3 4 6 7 6 6 8 10 9 8
10 9 9 10 10 8 10 9 9 10 11 11 11 13 11 9 9 8 6 5 4 3 4 4 5 4 5 5 4 4 4 4 4 3 3 4 5 4 4 6 9 11 11 10
9 8 8 8 9 8 8 9 10 10 10 15 12 12 12 10 9 8 6 5 4 5 5 5 6 6 6 5 5 4 5 5 4 4 3 4 4 4 6 8 9 12 12 13
10 10 9 8 10 9 9 10 14 15 16 15 11 12 11 8 7 7 6 5 6 6 6 5 7 8 7 7 6 6 6 6 5 4 4 4 4 3 6 7 9 11 12 13
12 13 10 9 9 10 10 10 13 19 16 14 13 14 12 7 6 6 5 5 5 6 5 6 6 7 7 7 7 6 6 6 5 5 5 4 4 4 6 6 7 9 10 11
12 12 8 9 8 8 11 12 9 13 14 15 13 11 9 7 7 7 6 6 6 5 6 6 7 7 7 7 7 7 7 6 6 6 5 5 5 5 6 6 7 7 9 11
9 12 10 10 9 8 9 8 13 12 19 18 14 13 12 9 8 7 7 6 6 6 7 8 8 8 8 7 7 7 7 7 6 6 6 6 6 6 7 8 9 10 11 13
9 10 12 11 11 11 11 11 10 10 12 16 17 13 8 8 7 7 6 6 6 7 7 8 8 8 8 7 7 7 7 7 6 7 6 7 7 8 9 11 12 13 14 15
10 11 14 12 9 9 9 10 10 14 16 13 14 14 7 7 6 6 6 7 6 7 7 8 8 8 8 8 8 7 7 7 7 7 7 8 8 9 10 11 13 14 15 15
10 14 17 15 11 11 13 11 10 10 11 15 17 14 9 8 8 7 7 7 7 8 8 8 8 9 8 8 8 8 8 7 7 8 8 9 9 10 11 12 13 14 15 16
10 14 15 17 14 12 14 12 11 12 15 14 14 12 9 8 8 8 8 8 7 8 8 8 8 8 8 8 8 8 8 8 8 8 9 9 10 11 12 13 14 15 15 16
10 15 13 12 12 12 13 13 12 13 12 14 12 12 9 8 7 7 6 6 8 8 9 9 8 7 8 8 8 8 7 8 8 9 9 10 10 11 12 14 15 15 16 17
11 15 14 15 12 12 14 13 13 13 11 11 10 11 7 7 7 7 6 7 8 8 8 8 7 8 8 9 8 8 8 8 8 9 10 10 12 13 14 15 15 16 16 17
13 14 15 17 13 13 16 14 13 12 11 11 13 10 8 8 8 7 6 6 6 6 6 6 7 7 8 8 8 9 8 8 9 10 10 11 12 13 14 15 16 16 17 17
12 13 14 16 15 20 12 9 9 11 11 10 10 9 8 8 7 6 6 6 6 6 6 6 5 5 6 7 8 8 9 9 10 11 11 12 13 14 14 15 16 16 16 17
9 11 14 16 16 14 13 11 12 12 12 9 10 9 8 8 7 7 7 7 6 6 5 5 6 6 6 7 7 10 11 10 11 12 12 12 13 14 14 15 15 16 16 17
9 10 13 15 17 18 13 9 9 9 15 12 12 11 11 10 11 9 9 9 8 8 7 7 7 8 8 9 10 11 12 11 12 12 11 12 13 13 14 14 15 15 15 16
13 13 15 15 17 14 10 9 8 15 14 12 11 11 11 12 10 9 8 8 9 9 9 9 10 10 11 12 12 12 12 12 12 12 12 13 13 14 14 14 14 15 16 16
13 15 15 15 17 18 8 9 12 10 11 11 10 10 11 10 10 9 8 8 9 9 9 11 13 13 13 13 13 13 13 13 13 13 14 14 14 14 14 14 15 15 16 17
13 10 12 12 12 8 7 8 6 7 8 8 9 9 10 9 9 9 8 8 9 10 12 13 13 14 13 14 13 13 13 13 14 14 15 14 14 14 14 15 15 16 16 17
9 9 12 11 10 9 8 6 7 7 7 7 7 7 8 8 9 10 9 9 11 12 12 13 14 14 14 15 15 14 14 14 15 15 15 15 15 15 14 14 15 15 16 17
10 10 11 11 10 9 8 7 8 9 8 8 7 8 8 8 8 8 9 9 9 11 12 13 13 13 14 14 14 14 14 14 14 14 14 14 14 14 14 14 14 15 14 14
10 12 12 13 10 10 10 8 8 8 9 8 8 8 8 9 9 9 9 9 10 10 11 11 12 13 13 14 14 14 13 13 13 14 14 14 14 14 14 15 15 13 13 13

GFSCGP_con_lsi_090.txt.gz
Lid_Strength_Index
8 11 12 11 10 10 11 13 13 12 10 11 11 11 10 9 9 10 9 9 8 8 7 6 6 6 5 3 2 2 3 3 2 2 3 4 3 4 5 3 3 1 1 3
10 12 9 8 9 10 11 13 13 11 10 12 12 12 10 9 9 9 8 8 8 8 7 7 6 6 5 4 2 3 3 3 2 2 3 4 4 5 5 6 5 3 2 2
11 10 8 9 11 11 12 13 13 13 11 11 13 14 12 10 9 8 8 7 7 7 8 7 7 7 6 5 4 3 3 2 2 2 3 6 6 7 9 9 8 7 4 3
10 8 10 11 11 10 13 11 11 12 14 17 12 18 14 11 10 9 8 8 8 8 7 7 7 7 7 6 6 3 3 3 2 3 4 5 6 9 8 8 8 8 7 5
11 11 11 11 10 9 12 10 11 12 14 14 15 17 15 12 12 11 9 9 8 7 7 7 7 7 7 7 7 6 4 4 4 3 5 5 7 8 7 7 9 8 8 8
10 9 9 10 10 9 9 11 11 12 13 18 15 15 16 14 12 10 10 9 8 7 8 8 8 7 7 7 7 7 6 6 5 5 6 6 7 7 7 9 9 9 10 10
11 11 10 9 11 10 11 13 17 19 19 19 14 16 15 12 11 10 9 9 9 8 8 8 9 9 8 8 7 7 7 7 6 6 6 6 7 7 7 9 9 10 11 12
14 15 11 10 10 12 12 12 17 21 20 18 16 18 14 10 10 9 8 9 8 8 7 8 8 9 9 8 8 8 8 8 7 7 7 7 7 6 6 8 9 10 10 10
13 14 10 10 10 9 12 14 11 15 19 19 17 14 12 10 10 9 9 8 8 8 8 8 8 9 9 9 8 8 8 8 7 7 7 7 7 7 7 8 9 9 10 10
11 14 11 11 10 10 11 10 15 15 20 21 18 17 15 12 11 10 9 9 8 8 9 9 9 9 9 9 9 8 8 8 8 8 8 8 8 7 8 8 9 10 10 11
11 12 14 12 13 13 12 13 12 12 15 19 20 17 12 11 10 10 9 8 8 9 9 10 10 10 10 9 9 9 9 9 8 8 8 9 9 9 9 10 11 12 14 14
10 12 17 14 11 11 11 12 11 16 17 16 16 16 10 9 9 8 8 8 9 9 9 10 10 10 10 10 10 9 9 9 9 8 9 9 9 10 11 12 13 14 15 16
10 13 18 16 12 12 14 12 11 11 14 16 18 15 10 9 9 9 9 10 9 10 10 10 10 11 11 10 10 10 9 9 9 9 9 9 10 11 12 13 14 15 16 16
9 13 15 17 15 13 15 13 12 12 15 15 15 13 11 10 10 10 10 10 9 9 10 10 10 11 10 10 10 10 10 9 9 9 9 10 11 11 12 14 15 16 16 16
11 15 14 13 12 12 14 14 13 14 13 16 14 13 11 10 9 9 8 9 9 9 9 10 10 10 10 10 10 10 10 10 9 9 10 10 11 11 13 15 16 16 16 16
11 14 14 15 13 13 14 13 13 13 13 13 13 13 9 9 9 8 7 7 8 9 9 9 10 10 9 10 10 10 10 10 10 10 10 11 12 13 14 15 16 17 17 17
12 13 15 18 14 15 17 16 14 13 12 12 15 11 9 10 9 9 8 8 8 9 8 8 9 9 9 10 10 10 10 11 11 12 12 13 13 14 14 16 16 17 17 16
12 13 13 17 15 20 14 11 10 11 11 10 10 10 11 12 11 9 11 11 11 10 10 9 8 8 8 8 9 10 11 11 12 13 13 13 14 14 15 16 16 17 17 17
9 12 15 18 19 15 13 12 12 14 14 12 12 12 11 11 10 11 10 10 10 10 10 9 9 9 10 10 10 12 13 13 13 13 14 14 14 14 15 16 16 16 17 17
11 10 15 20 21 22 15 12 9 9 16 13 11 11 12 12 15 11 10 10 9 10 10 10 10 11 12 13 14 14 14 14 14 14 14 14 15 15 15 16 17 18 18 17
14 13 15 15 16 17 13 12 9 16 14 12 11 10 10 12 12 10 9 9 9 9 10 10 11 13 14 15 15 15 15 15 14 15 15 15 15 15 16 17 18 18 19 17
14 15 15 14 17 18 12 11 13 11 11 10 10 9 10 9 9 9 9 10 10 9 10 12 14 13 14 14 15 16 16 15 16 16 16 17 17 16 16 17 18 18 18 17
17 13 14 13 14 10 11 11 9 9 11 10 10 10 9 9 9 9 9 9 10 10 11 12 14 14 14 15 15 16 15 16 17 19 19 19 19 17 17 17 18 18 17 17
14 12 16 15 13 12 10 8 10 10 11 10 10 10 9 10 10 10 9 9 9 10 11 14 15 14 14 14 15 16 16 16 18 18 19 19 18 18 19 17 16 17 17 17
13 13 16 16 12 12 10 10 10 11 11 11 11 11 10 10 11 10 10 10 10 10 10 12 12 13 13 14 15 16 16 16 17 18 18 18 18 18 19 17 16 16 16 15
13 14 15 17 12 12 13 11 10 11 11 11 11 11 10 11 10 11 10 11 11 10 10 11 12 12 11 14 14 13 15 15 14 15 16 16 16 17 17 17 17 13 13 12

GFSCGP_con_lsi_093.txt.gz
Lid_Strength_Index
10 13 15 13 13 12 14 15 15 13 11 12 13 13 12 11 11 11 11 11 10 9 8 8 7 7 6 3 2 2 3 3 3 4 4 2 2 2 1 0 1 2 2 3
12 14 11 10 11 12 13 15 15 13 11 13 13 13 12 11 11 9 10 11 10 11 9 8 8 8 7 3 2 2 3 4 3 2 3 4 5 4 3 3 2 1 3 3
13 11 9 10 12 12 14 14 15 14 13 13 14 15 13 12 11 10 9 9 9 9 9 9 9 9 7 5 3 3 3 4 3 3 5 6 6 7 7 6 4 5 2 3
12 10 11 12 12 12 15 12 12 13 15 18 14 19 15 13 12 11 10 9 9 10 9 9 8 9 8 6 4 3 2 3 3 4 4 4 4 5 6 4 4 6 7 3
13 12 12 12 12 11 13 11 12 13 15 16 17 18 17 14 14 12 11 11 10 10 9 9 8 8 8 7 6 4 4 4 4 4 4 4 4 6 9 9 9 7 8 6
12 10 11 11 11 11 10 12 12 13 15 19 17 17 18 15 13 12 11 11 9 9 9 9 9 8 8 8 7 6 5 4 4 4 4 4 4 8 9 10 9 8 8 8
12 12 11 10 12 11 12 14 18 19 20 20 16 18 17 13 11 11 11 10 9 9 9 9 9 9 9 8 8 7 6 6 5 5 6 5 6 7 7 9 9 8 8 9
15 16 12 10 11 12 13 14 18 22 20 19 16 18 15 12 10 9 9 10 9 9 9 9 9 9 9 9 8 7 7 7 7 6 6 7 7 7 7 8 8 8 8 7
16 16 11 11 10 10 13 14 12 16 22 20 18 16 13 11 10 10 10 9 9 10 9 8 9 9 9 9 8 8 8 8 8 7 7 7 8 8 8 9 9 9 9 9
13 15 13 12 10 11 12 11 15 15 21 22 19 18 16 13 12 11 10 10 10 10 9 9 10 9 9 9 9 8 8 8 8 8 8 8 8 8 8 9 10 10 10 10
11 13 15 12 13 13 13 14 13 13 15 19 21 18 14 13 11 10 10 10 10 10 10 10 10 10 10 9 9 9 9 9 9 8 8 8 8 8 9 9 10 10 12 12
11 13 18 15 12 11 13 13 13 17 18 17 17 16 11 10 10 9 9 9 10 10 10 10 10 10 10 10 10 9 9 9 9 9 9 9 9 9 10 10 11 12 12 14
11 15 21 17 14 13 14 13 12 12 15 16 19 17 11 10 10 9 9 9 9 9 10 10 10 11 11 11 10 10 10 9 9 9 9 10 10 10 11 12 13 14 15 16
9 13 16 17 16 13 15 14 12 12 17 16 16 14 12 11 11 10 10 10 10 10 10 11 10 10 10 10 10 10 10 10 9 9 10 10 10 10 11 12 14 15 16 16
10 15 13 13 12 12 13 14 13 14 14 16 14 13 12 11 10 10 9 9 9 9 10 10 11 11 10 11 11 10 10 10 10 10 10 10 11 11 12 14 15 16 16 16
11 15 14 15 13 13 14 13 13 13 12 13 13 13 9 9 9 10 9 9 10 11 10 10 9 9 10 10 10 10 10 10 10 10 10 10 12 13 14 14 15 16 16 17
13 14 15 19 15 15 17 15 13 13 12 12 15 12 10 12 11 11 12 11 11 11 10 10 9 9 10 10 9 10 10 11 12 12 11 13 13 14 14 15 16 16 16 16
12 13 15 18 16 20 15 13 11 12 12 10 11 12 12 12 12 11 11 11 11 11 10 10 9 10 10 10 11 11 13 12 13 13 13 14 14 14 15 16 16 16 17 17
10 12 15 17 22 17 15 13 12 12 13 12 12 12 11 11 11 11 11 10 10 10 10 9 10 10 10 11 12 14 14 14 14 14 14 14 14 15 16 16 17 17 18 18
11 11 14 18 23 24 17 12 10 10 17 12 11 11 11 12 16 13 10 10 10 10 10 10 10 10 11 12 14 14 14 15 14 14 14 14 15 14 15 15 17 19 18 18
14 13 15 17 17 19 15 12 11 17 16 13 12 11 11 14 12 10 10 10 9 10 10 10 11 12 12 13 14 15 14 15 14 14 14 15 15 15 15 17 19 19 19 19
15 16 17 15 17 20 13 12 14 13 13 12 11 12 12 12 11 11 10 11 10 9 9 10 11 11 12 13 14 15 15 14 15 15 15 15 15 16 17 18 21 20 19 19
17 14 17 16 15 12 13 11 10 10 12 12 12 12 11 11 12 11 11 11 11 11 11 10 10 11 10 12 14 15 13 14 14 16 16 17 18 17 17 17 18 18 18 17
15 12 15 15 12 11 10 9 10 11 11 11 11 12 11 11 12 11 11 11 11 11 11 12 12 11 11 10 12 13 13 13 15 15 16 17 16 17 18 17 16 17 17 16
14 13 16 17 12 12 10 10 11 12 12 12 12 12 12 12 12 12 12 12 12 11 11 13 12 12 12 11 12 12 13 16 14 14 15 15 16 16 16 16 15 16 16 15
13 14 15 17 12 12 12 12 12 13 14 14 14 14 13 13 13 13 14 13 13 14 14 14 13 13 12 12 12 13 15 15 13 13 13 13 14 15 16 15 16 12 13 13

GFSCGP_con_lsi_096.txt.gz
Lid_Strength_Index
11 13 15 13 13 14 15 15 16 15 12 12 13 13 12 11 12 11 11 11 11 10 9 9 9 8 6 4 3 2 2 2 2 2 2 2 2 2 1 1 2 2 1 2
12 16 12 12 13 13 14 15 16 14 13 13 14 14 12 12 11 10 10 11 11 11 11 9 9 9 9 5 2 2 2 2 2 2 2 2 2 2 1 1 2 2 2 2
14 13 10 11 13 13 14 15 15 14 14 15 15 16 15 13 12 11 10 10 10 11 11 10 10 10 9 8 4 2 2 2 1 2 5 8 6 7 5 3 2 2 2 2
13 11 11 12 13 13 15 13 13 14 16 18 16 20 17 14 13 12 11 10 12 11 10 10 9 10 10 8 4 2 2 2 2 2 4 5 4 4 3 2 3 3 2 3
13 12 12 13 13 12 14 12 13 14 16 17 18 18 17 16 15 13 12 11 11 11 11 10 10 9 9 9 6 3 3 3 3 4 4 4 4 3 9 8 5 5 6 4
12 11 11 11 12 12 11 13 13 15 16 20 17 18 19 16 14 14 12 11 10 9 9 9 9 9 9 9 6 4 4 3 3 4 4 4 3 8 10 10 7 6 6 6
13 13 12 11 12 12 13 15 19 20 20 20 18 19 17 14 13 12 11 11 10 9 10 10 10 9 9 9 8 5 4 5 5 5 5 6 5 8 8 9 8 7 7 9
15 16 12 11 12 13 14 14 18 23 21 20 17 19 16 13 11 10 10 10 10 11 10 10 9 9 9 9 9 8 7 6 6 6 7 7 7 7 7 9 8 7 6 6
15 15 12 11 11 10 13 15 13 17 23 21 18 17 14 12 11 11 11 11 12 10 10 10 9 9 9 9 9 8 8 8 7 6 6 7 8 8 8 9 8 8 9 8
13 16 13 12 10 11 12 11 15 16 22 23 19 19 17 13 13 11 11 10 10 9 9 9 9 10 9 9 9 8 8 8 8 8 7 7 8 8 8 9 9 10 9 10
13 15 16 14 15 15 14 15 15 14 16 19 21 18 14 13 11 11 11 10 10 10 10 10 10 10 10 10 9 9 9 9 9 8 8 8 8 8 9 9 9 10 10 11
12 15 19 16 13 13 13 14 14 17 19 18 18 17 12 11 11 10 11 10 11 11 11 11 11 10 10 10 10 10 9 9 9 9 9 9 9 9 9 10 10 11 11 12
11 15 21 17 14 13 15 13 12 13 15 17 19 18 12 12 11 10 10 11 10 10 10 11 11 11 11 11 11 10 10 10 9 9 10 10 10 10 10 11 11 12 12 13
9 14 16 17 16 14 15 14 13 13 18 17 16 16 13 12 12 11 10 10 10 11 11 10 11 11 11 11 11 11 10 10 10 10 10 10 10 10 10 11 12 13 14 14
10 15 14 13 13 13 14 14 13 14 14 16 15 15 13 11 11 11 11 10 11 11 11 11 11 11 11 11 11 11 10 10 10 10 10 10 11 11 11 12 13 14 15 15
11 15 14 15 13 13 15 13 14 14 13 13 14 13 10 11 11 12 12 12 12 12 11 11 11 11 11 11 10 11 11 11 11 11 11 11 12 13 13 13 14 14 15 16
12 14 15 17 15 15 17 15 13 14 13 12 14 12 12 13 12 13 13 12 12 12 11 11 11 11 11 11 11 12 12 12 12 13 13 13 13 13 13 14 14 15 15 16
13 14 15 17 16 20 16 14 12 13 12 11 13 14 13 13 11 11 11 12 12 11 11 10 10 11 11 11 11 12 14 14 14 14 13 13 14 14 14 14 14 15 16 16
11 13 16 18 22 19 17 15 14 13 13 12 13 13 13 12 11 12 11 11 11 10 10 10 10 10 11 11 12 14 14 14 14 14 14 14 14 14 15 15 15 15 17 17
13 13 15 19 22 24 18 16 13 13 17 14 12 12 12 12 14 13 11 11 11 11 10 11 11 11 12 12 13 14 14 15 14 14 14 13 14 15 14 14 14 17 16 15
15 14 15 18 21 21 16 14 12 16 17 15 12 12 13 14 13 12 11 12 12 11 11 11 12 13 13 13 13 13 13 13 12 13 14 14 14 15 14 14 17 18 17 18
15 15 16 17 19 19 15 13 14 14 14 14 13 13 13 13 13 13 12 12 12 12 12 12 13 13 12 12 13 13 12 11 13 14 14 14 14 14 14 16 18 20 19 18
17 15 16 14 14 13 14 12 11 11 13 13 13 13 12 13 13 13 12 12 12 12 12 13 14 13 13 13 14 13 12 11 12 14 14 14 15 15 16 17 17 18 17 16
16 13 15 14 12 13 12 12 12 12 12 11 12 12 12 13 13 13 13 13 13 13 13 14 14 14 14 13 13 14 13 12 14 15 14 14 15 14 14 15 15 14 14 14
14 13 16 16 13 11 12 12 12 11 12 12 12 12 13 14 14 14 14 14 14 14 15 16 16 15 15 15 15 14 13 14 15 14 14 14 14 15 13 13 13 13 12 12
13 14 15 16 11 12 12 12 12 13 14 14 14 15 15 14 15 16 17 17 17 18 18 18 18 18 19 19 18 16 15 14 15 14 13 13 15 14 15 13 13 11 10 11

GFSCGP_con_lsi_102.txt.gz
Lid_Strength_Index
11 13 15 14 13 15 14 16 17 16 14 14 14 14 13 12 13 12 12 11 11 11 10 10 10 10 6 4 2 2 2 2 2 1 2 1 2 1 2 3 3 3 4 5
13 15 13 12 13 14 15 16 17 15 14 14 15 14 13 13 12 11 11 12 12 12 12 11 11 11 10 6 3 2 1 1 1 1 1 1 1 1 1 2 2 3 3 4
14 14 12 12 14 14 16 16 17 16 16 15 16 17 16 14 14 13 12 11 11 12 11 11 11 11 12 10 6 3 2 1 1 1 1 3 2 3 2 2 3 3 3 4
14 13 13 14 15 14 17 14 14 15 16 18 17 21 18 16 14 14 12 13 13 13 13 13 12 12 12 12 11 6 3 2 1 1 1 2 2 3 2 1 2 3 3 4
14 13 14 15 14 13 15 13 14 16 17 18 19 19 18 17 15 13 14 13 12 11 11 10 10 10 11 11 12 10 5 3 2 1 1 1 2 1 1 2 3 3 3 3
14 12 12 13 13 13 12 14 15 16 17 20 18 18 19 17 15 15 14 13 12 12 11 11 11 10 10 10 8 8 6 4 3 2 2 1 2 2 4 2 3 4 3 3
14 14 12 12 13 13 15 15 19 20 21 20 19 19 18 15 15 15 14 13 13 13 11 11 11 11 11 10 10 7 5 5 4 4 4 3 3 5 4 4 3 5 5 6
17 18 13 12 13 14 15 15 18 23 22 20 18 19 17 15 14 13 12 12 12 12 11 11 11 11 11 10 10 9 7 6 6 5 6 6 6 7 7 5 5 5 4 4
17 17 13 13 12 11 14 16 15 18 26 22 19 18 14 14 12 12 12 12 12 13 12 12 11 11 11 10 10 10 9 9 8 7 7 7 7 7 7 7 7 6 5 5
13 16 14 13 12 12 13 12 16 18 24 24 20 20 18 15 13 13 13 13 12 12 12 11 11 11 11 10 10 9 9 9 9 8 7 7 7 7 7 8 8 8 8 8
13 14 15 13 14 14 15 15 15 15 17 21 23 20 16 14 12 13 13 12 13 12 13 12 12 12 11 11 11 10 10 9 9 9 9 9 8 8 8 9 8 9 9 9
12 14 17 15 13 13 14 14 14 16 19 19 18 18 13 12 12 12 12 11 12 12 13 12 11 11 11 11 11 11 11 10 10 10 10 10 10 10 10 10 10 10 10 11
12 15 21 17 14 14 15 15 14 15 16 18 20 18 13 12 12 12 12 12 12 12 13 12 11 12 12 12 12 12 12 12 12 11 11 11 11 11 11 11 11 11 11 11
9 14 14 17 17 15 15 15 14 13 17 16 17 16 14 13 12 12 13 13 13 13 12 12 12 12 12 12 12 13 13 13 13 12 12 12 12 12 12 12 12 12 12 12
11 16 15 15 15 15 15 15 14 14 14 16 15 15 12 12 12 12 13 13 12 12 12 12 12 12 13 12 12 13 13 13 14 13 13 14 14 13 13 14 14 13 13 13
11 18 16 17 14 14 16 15 14 13 13 13 16 16 14 13 13 14 13 13 13 13 13 13 13 13 13 13 13 13 13 14 14 13 14 14 14 14 14 14 14 14 14 14
12 14 16 17 15 14 16 15 14 14 13 13 16 13 13 14 13 14 14 13 13 13 13 14 14 14 14 14 14 14 14 14 14 14 14 14 14 15 14 14 15 14 14 14
13 13 14 17 15 20 14 14 12 13 13 13 14 13 12 13 14 14 13 14 14 14 15 15 15 15 15 15 15 14 14 14 14 14 14 14 14 14 14 15 15 15 14 14
11 12 15 17 18 16 16 16 14 14 13 12 12 15 15 15 15 16 15 14 14 14 15 15 15 15 15 15 15 15 15 15 14 14 14 14 14 15 15 15 15 14 16 14
12 12 14 18 19 20 18 17 14 12 15 13 13 15 15 14 16 17 14 15 15 15 15 16 16 16 17 16 16 16 16 16 16 15 15 15 15 17 17 15 15 16 18 15
15 14 16 18 19 20 17 15 14 17 17 17 12 13 14 14 14 14 15 16 16 16 16 17 18 18 18 17 17 18 17 17 17 16 16 16 16 16 16 16 18 16 16 16
15 16 16 17 18 20 17 15 15 15 17 16 14 13 15 16 15 15 16 16 17 17 17 18 19 19 18 18 19 19 19 18 18 18 18 18 17 16 15 16 16 16 18 17
16 13 15 15 16 15 16 16 14 14 16 16 16 15 15 16 16 15 16 17 17 18 17 19 20 19 19 19 19 21 20 19 19 21 20 20 18 17 16 17 16 15 19 14
17 15 16 16 15 16 16 16 15 15 16 16 15 16 16 16 16 17 17 17 18 19 20 21 21 21 21 22 21 23 22 22 23 23 22 21 20 18 16 14 14 15 15 15
16 15 17 17 16 17 16 16 16 15 15 16 16 16 17 17 18 18 19 19 19 20 21 21 21 21 22 22 23 24 22 24 24 24 23 22 19 19 17 14 13 12 12 13
15 15 16 17 15 14 15 15 15 15 16 17 18 18 18 17 17 18 19 20 21 22 22 22 22 23 24 24 25 26 27 28 26 25 23 23 22 21 19 18 16 12 10 9

GFSCGP_con_lsi_105.txt.gz
Lid_Strength_Index
11 13 15 14 13 14 14 15 16 15 13 14 14 14 13 12 12 12 11 11 10 10 9 9 9 9 7 3 1 1 1 1 1 1 2 2 2 2 2 3 3 3 3 3
13 16 13 12 13 14 15 16 16 14 13 13 15 14 13 12 12 11 11 11 11 11 10 10 10 10 10 7 3 1 1 1 1 1 1 1 1 1 1 2 3 3 3 3
14 13 12 12 14 14 16 16 16 15 15 15 16 16 15 14 13 12 12 11 11 11 11 11 11 10 10 10 7 3 1 1 1 0 1 1 1 2 1 2 3 3 3 4
14 14 14 15 15 14 16 14 14 15 16 18 16 20 17 15 14 13 12 13 12 11 11 10 10 10 10 10 10 5 2 1 1 0 1 1 2 3 1 1 1 2 3 4
14 14 15 16 15 13 15 13 14 14 16 17 18 18 17 16 14 13 13 12 11 11 10 10 10 10 9 8 9 9 5 2 1 1 1 1 2 1 1 2 2 2 3 2
14 12 12 13 13 13 13 14 15 16 17 20 18 18 18 17 15 14 13 13 12 12 11 11 10 10 9 9 6 7 7 4 1 1 1 1 2 2 3 2 2 3 3 3
14 14 13 12 13 13 14 15 19 20 20 20 19 18 17 15 14 14 13 12 12 11 11 11 11 10 10 9 9 5 4 4 2 2 2 1 1 1 2 3 2 3 3 4
17 18 13 12 13 14 15 15 18 22 22 20 17 19 17 14 13 12 11 12 11 11 11 11 11 10 10 10 9 8 7 5 3 3 3 3 3 3 3 3 3 3 3 2
17 17 13 13 12 11 14 16 15 18 24 21 18 17 15 14 12 12 12 12 12 12 12 11 11 11 10 10 9 9 8 8 7 6 4 4 4 4 5 5 5 5 5 5
13 16 14 13 12 12 13 12 16 17 23 23 20 19 17 15 13 13 13 13 12 12 12 12 12 11 11 10 10 9 9 9 9 8 7 7 7 6 7 7 6 6 6 6
13 14 15 13 14 14 15 15 16 15 17 20 23 19 16 15 13 13 13 13 13 13 12 12 11 11 11 11 11 11 11 10 9 9 8 8 8 8 7 7 7 7 7 7
12 14 16 14 13 13 14 14 14 16 19 20 19 18 14 13 12 12 12 12 12 12 12 12 11 11 11 12 12 12 11 11 10 10 9 9 9 9 9 9 8 8 8 9
12 15 21 16 15 14 14 15 14 15 16 18 20 17 13 13 12 12 12 12 12 12 12 12 12 12 12 12 12 12 12 12 12 11 11 11 11 11 11 11 10 10 10 10
9 14 14 17 16 15 15 15 14 14 17 16 16 16 14 13 13 12 12 12 12 12 12 12 12 12 13 13 13 12 12 12 12 12 12 13 13 13 12 12 12 12 12 12
11 15 14 14 16 15 14 14 13 14 13 15 14 16 13 12 12 11 12 13 12 13 13 13 13 13 13 13 12 13 13 13 13 13 13 13 13 13 13 14 13 13 13 13
11 15 15 16 14 14 16 15 14 13 13 13 16 15 13 10 12 12 12 13 13 13 13 14 14 14 13 13 14 14 14 14 14 14 14 14 14 14 14 14 14 14 13 13
12 13 16 16 15 14 16 15 15 14 12 13 15 13 13 14 11 12 13 12 13 13 14 14 14 14 15 15 15 15 15 15 15 15 15 15 15 15 15 14 14 14 13 13
13 13 13 16 15 20 14 12 12 13 13 12 14 13 13 12 12 13 13 13 14 14 15 15 15 15 15 15 16 16 16 16 16 16 16 16 15 15 15 15 14 14 14 14
10 12 15 17 17 16 14 16 15 14 13 12 12 14 15 14 14 15 14 13 14 15 15 15 15 16 16 16 16 16 17 17 17 17 16 16 16 16 16 17 15 15 15 15
13 12 14 16 19 20 16 16 14 12 15 12 12 15 15 13 15 15 14 13 14 15 15 16 16 16 17 17 17 18 18 19 19 19 18 17 17 19 19 18 17 17 17 16
15 15 16 16 17 16 17 16 14 17 16 17 12 13 14 12 13 14 14 15 15 15 17 17 17 18 18 18 19 19 20 21 20 20 20 20 20 21 20 19 19 18 17 16
15 16 16 16 18 19 17 14 15 15 16 16 14 14 16 16 15 15 16 17 16 17 18 19 19 19 20 20 21 21 22 21 22 22 23 23 23 21 19 20 18 18 18 17
16 13 15 15 15 14 16 15 14 14 16 16 15 15 15 16 16 16 17 17 17 17 19 20 20 20 21 22 22 24 23 23 23 25 25 24 23 21 20 20 19 17 16 16
16 14 15 15 14 14 14 15 14 15 15 15 15 15 15 16 16 17 17 17 19 19 20 21 21 22 23 24 24 25 24 25 28 28 27 25 24 23 22 20 18 17 15 14
15 15 17 17 17 16 16 15 15 15 15 16 16 16 16 16 17 17 18 19 20 21 22 22 23 24 25 25 26 27 26 28 28 27 26 25 24 24 23 20 19 18 16 15
15 16 16 16 14 14 15 15 14 15 16 16 17 17 18 17 18 18 20 20 21 23 23 24 24 25 25 26 26 26 28 29 30 27 25 25 25 24 23 22 21 17 15 14

GFSCGP_con_lsi_108.txt.gz
Lid_Strength_Index
8 10 12 10 10 12 11 12 12 12 11 10 10 10 9 8 8 8 7 6 6 6 5 5 5 5 4 1 1 1 1 0 1 1 1 1 1 1 1 1 0 0 1 1
9 11 9 9 11 12 12 12 12 12 11 10 11 11 9 8 8 7 7 6 6 6 6 6 6 5 5 5 2 1 1 1 1 1 0 0 1 0 1 1 2 1 1 1
10 10 9 10 12 12 12 12 13 12 12 12 12 12 10 9 10 9 8 7 7 7 7 7 7 7 6 6 5 3 1 0 0 1 0 1 0 1 2 2 3 4 3 2
9 10 11 11 11 11 13 11 11 12 12 14 12 15 12 10 10 10 9 8 8 7 7 7 7 6 6 6 6 5 3 0 0 0 1 1 2 3 1 1 1 1 2 4
11 11 11 11 11 10 11 11 11 12 12 13 13 14 12 13 12 9 9 8 8 8 7 7 7 7 5 4 5 6 4 1 0 0 1 1 2 1 1 1 1 2 2 2
10 9 10 10 12 10 11 11 12 12 13 16 13 14 13 13 11 11 10 9 9 8 7 7 7 6 6 3 3 6 5 2 0 0 0 1 1 2 2 1 1 2 2 2
11 11 10 11 12 11 12 12 15 16 16 17 16 15 13 11 11 11 9 9 8 8 7 7 7 7 6 6 3 3 4 3 1 1 1 1 1 1 1 1 1 2 2 2
14 15 11 10 11 12 12 12 15 19 18 16 16 17 13 11 10 10 9 8 8 8 8 8 8 7 7 6 5 3 3 3 1 1 1 1 1 1 1 1 1 1 2 2
14 13 10 10 10 9 12 13 11 16 19 16 14 13 11 11 11 9 9 9 9 9 8 8 8 7 7 6 6 5 4 4 4 3 2 3 3 3 3 3 2 2 3 5
11 14 11 11 9 10 11 10 14 13 17 17 15 15 13 12 11 10 10 9 9 9 9 9 8 8 7 7 7 6 6 6 5 5 5 5 5 6 5 5 6 6 6 6
11 12 13 11 11 12 12 13 13 12 13 16 17 15 11 10 9 10 9 9 9 9 9 9 9 9 8 8 8 7 7 6 6 6 6 6 6 5 5 5 5 4 4 4
10 11 14 12 10 10 10 11 11 14 16 14 14 14 10 11 8 8 9 10 9 9 9 9 9 9 9 9 8 8 8 8 7 7 7 8 7 7 6 6 6 6 6 5
10 12 15 14 12 11 12 11 11 11 12 15 15 14 10 10 9 9 10 9 9 9 9 9 9 9 9 9 9 9 9 9 9 9 9 9 9 8 9 9 8 8 7 7
8 12 13 16 14 11 13 12 12 12 13 14 13 13 11 11 10 10 9 9 9 9 9 9 9 9 9 9 9 9 9 9 9 9 10 9 9 9 9 10 10 10 10 9
9 14 12 12 12 12 11 12 12 13 12 13 12 12 10 9 9 8 8 9 9 10 9 9 9 9 9 10 10 10 10 10 10 11 11 11 10 10 11 11 11 11 11 11
10 13 12 14 12 12 13 12 12 12 12 12 12 12 9 8 7 9 9 9 10 10 10 10 10 10 11 11 11 12 12 12 12 12 13 13 13 13 13 13 13 12 12 12
11 12 14 16 12 13 16 14 13 12 11 11 13 11 9 9 9 9 9 9 9 10 10 11 11 11 12 12 12 13 13 13 13 13 14 14 14 15 14 14 14 14 13 13
12 13 13 16 14 20 13 9 10 11 11 10 10 10 9 9 8 7 7 9 9 10 11 12 12 13 13 13 13 14 14 14 15 15 15 15 16 16 16 16 15 14 14 13
10 11 15 17 17 14 12 12 11 12 12 10 10 10 10 10 10 10 8 9 10 11 11 12 13 14 15 15 15 15 16 16 16 17 17 17 17 18 17 17 16 15 15 14
11 11 14 15 18 20 12 10 11 10 14 9 9 10 12 11 12 10 10 10 12 13 13 15 15 15 16 17 16 16 18 18 19 19 19 18 18 19 19 18 18 16 16 16
14 14 15 16 17 15 12 12 10 15 13 13 11 9 11 11 9 10 12 13 14 14 15 16 16 17 18 18 18 18 19 20 20 20 20 20 20 21 19 19 18 18 17 16
14 15 15 15 17 18 13 12 12 12 13 13 11 11 11 12 12 13 14 15 16 17 17 17 18 20 20 20 19 20 21 21 22 22 23 23 23 22 20 21 19 18 17 16
14 12 14 13 14 11 12 12 11 12 12 12 12 12 13 13 14 15 16 16 17 18 19 18 19 21 21 21 22 22 23 23 24 25 25 24 23 22 22 21 21 19 17 16
12 12 12 11 11 11 12 12 12 12 12 13 12 13 13 14 14 16 16 18 19 19 20 20 20 21 23 23 24 24 24 25 26 26 25 23 23 23 22 21 20 20 19 18
10 11 13 12 13 13 12 13 12 14 14 14 13 13 13 14 15 16 17 18 20 21 21 21 21 22 24 24 25 25 26 26 26 25 24 23 23 23 22 21 21 20 18 17
10 11 12 12 11 11 11 11 12 13 14 14 14 15 14 14 15 16 18 19 20 21 22 22 23 23 25 25 25 26 27 27 28 25 24 24 23 22 22 21 20 17 17 16

GFSCGP_con_lsi_111.txt.gz
Lid_Strength_Index
7 10 11 10 9 9 10 11 11 10 10 10 10 10 8 7 7 7 7 6 6 5 5 4 4 3 1 1 1 1 1 0 0 1 1 1 1 1 0 -0 1 -0 -0 -0
9 11 9 8 8 10 10 11 11 11 10 10 10 10 8 7 7 7 7 6 6 5 5 5 5 4 4 3 1 1 1 1 1 1 1 1 1 0 -0 0 1 1 0 -0
10 9 8 9 10 11 11 11 11 12 11 10 11 11 10 8 7 7 6 6 5 5 5 5 5 5 4 4 3 2 1 1 0 0 0 0 1 1 2 1 2 2 1 2
9 9 9 10 11 10 12 10 10 11 12 14 11 15 10 9 9 9 8 7 6 6 6 6 6 5 5 4 3 4 2 0 0 0 1 1 2 3 1 1 0 1 2 2
10 10 10 10 10 9 11 9 10 11 12 12 12 14 12 11 11 9 8 7 7 6 6 6 6 5 5 4 3 4 4 3 0 0 1 1 2 1 1 1 1 2 2 1
10 9 8 9 10 9 9 10 10 10 11 16 13 13 13 12 10 9 8 8 7 7 6 6 6 5 4 3 2 4 5 4 1 0 1 1 2 2 2 1 1 1 1 1
11 11 9 9 10 9 9 11 14 15 16 17 13 14 13 9 10 9 9 8 7 7 6 6 6 6 5 4 2 3 5 3 1 1 1 1 1 1 2 2 1 2 2 2
13 15 11 9 10 11 11 11 13 18 17 15 15 15 13 9 9 9 9 8 7 7 7 7 6 6 6 5 3 2 3 3 2 1 1 1 1 1 1 1 1 1 2 2
13 13 9 9 9 9 11 13 10 15 16 15 14 13 10 9 10 9 9 8 7 7 7 7 7 6 6 5 5 3 3 3 2 1 1 1 1 2 2 2 2 2 2 3
10 13 11 10 9 9 10 9 14 13 18 18 16 14 14 12 11 10 9 9 8 7 7 7 7 6 6 6 5 5 4 3 4 3 3 3 3 3 4 4 5 5 5 5
9 11 12 10 12 12 12 12 11 11 12 15 17 15 10 9 9 10 9 8 7 8 8 7 7 7 7 6 6 6 5 5 4 4 4 5 5 6 5 5 5 5 5 5
10 11 13 13 9 8 9 11 11 13 15 13 13 13 9 10 9 7 8 8 7 7 7 7 7 7 7 7 7 7 7 7 6 6 6 6 6 5 6 6 6 6 6 5
10 12 16 15 12 11 12 10 10 10 11 13 15 14 8 9 9 7 7 8 8 8 8 8 8 8 8 8 8 8 8 8 7 7 7 8 8 8 8 8 8 8 7 7
9 11 14 16 14 11 13 12 11 11 13 13 13 12 10 10 9 8 8 8 8 8 8 8 8 8 8 8 8 8 8 8 8 8 8 9 9 9 9 9 9 9 8 9
9 14 12 12 12 11 11 12 11 12 12 13 13 12 11 9 9 8 7 8 8 8 8 8 8 8 8 9 9 9 9 9 9 10 10 11 11 11 11 11 11 10 10 10
9 15 11 14 11 11 13 12 11 12 12 11 12 11 9 7 7 8 8 8 8 8 8 8 8 8 9 9 10 10 11 11 11 12 13 12 13 13 13 13 13 12 12 12
11 13 14 15 12 12 15 13 12 11 10 11 13 11 9 9 8 8 8 8 8 8 8 8 9 9 10 11 10 11 12 12 12 13 14 14 14 15 14 14 14 14 14 14
12 13 14 16 15 20 12 9 9 10 10 9 9 9 9 8 7 7 6 8 8 8 8 8 9 10 11 11 12 12 13 14 14 14 15 16 16 16 16 16 16 15 15 15
10 12 15 17 17 13 11 10 10 11 11 9 9 9 8 8 7 8 6 6 7 7 8 9 10 11 12 13 13 14 15 15 16 17 17 17 18 18 18 17 17 16 16 16
10 10 14 15 18 19 11 10 7 8 14 8 8 9 8 9 12 10 7 7 7 8 10 12 13 14 14 15 15 16 17 18 19 19 19 19 19 19 19 18 18 17 17 16
14 13 15 15 17 15 11 11 9 15 13 12 11 10 9 9 8 7 7 8 9 12 13 14 15 16 17 16 17 18 19 20 20 20 20 20 20 20 19 19 19 18 18 17
14 15 15 15 17 18 10 10 12 11 10 11 10 10 11 9 10 9 10 12 13 15 15 16 18 19 19 18 18 19 21 21 21 22 21 22 21 21 20 21 20 19 19 18
14 11 13 13 13 8 9 8 8 10 11 10 11 11 10 11 11 12 13 14 15 16 17 18 19 21 21 21 19 21 22 22 23 23 23 22 22 21 21 21 20 19 19 19
10 9 11 11 9 8 7 8 9 9 10 11 11 11 10 11 13 14 15 17 17 18 18 19 20 22 23 23 23 23 23 24 24 23 23 22 22 22 21 20 20 20 20 19
9 9 10 11 8 8 7 9 9 10 12 12 12 12 11 12 14 15 17 18 18 19 19 19 20 22 23 23 24 24 25 25 24 23 22 22 22 22 21 20 20 20 19 19
9 10 10 11 8 8 8 9 9 10 11 12 12 13 13 13 14 15 17 18 19 20 20 21 22 23 24 24 25 26 26 26 25 23 23 23 23 22 22 21 21 18 18 17

GFSCGP_con_lsi_114.txt.gz
Lid_Strength_Index
8 11 13 12 11 11 13 13 14 12 11 12 12 12 10 9 10 10 10 10 9 9 8 7 6 4 3 3 2 2 1 1 1 1 1 1 1 1 0 -0 1 1 1 0
11 13 10 9 10 11 12 13 14 13 11 12 13 12 10 10 10 9 10 10 9 9 8 7 7 7 6 4 3 2 2 1 1 1 1 1 1 0 0 0 1 1 1 1
12 11 9 9 11 12 13 13 14 13 12 13 14 15 13 11 9 9 9 9 9 8 8 8 8 8 7 7 6 4 3 2 1 1 0 1 1 1 2 1 1 1 1 1
11 10 10 11 12 11 14 12 12 13 14 17 14 19 15 13 12 11 10 10 9 9 9 8 8 8 8 8 6 6 5 4 2 1 2 1 2 3 1 1 1 2 1 1
12 12 12 12 11 10 12 11 12 12 14 16 16 18 16 13 13 12 11 10 10 9 8 8 7 7 7 6 6 6 6 6 4 2 2 2 2 1 1 1 1 1 1 2
11 10 10 11 11 10 10 12 12 14 15 19 16 17 18 15 13 13 12 10 9 8 8 8 7 7 6 5 4 5 6 7 6 3 2 2 2 2 2 2 2 1 2 2
12 12 11 10 12 11 12 14 18 19 19 20 16 17 16 14 13 12 11 10 10 8 8 8 8 8 7 6 4 4 6 7 5 4 2 2 2 1 2 2 2 2 2 3
15 16 12 11 12 13 13 13 17 21 20 19 17 19 16 11 12 12 11 10 10 9 8 8 8 8 7 7 5 5 5 4 4 2 2 2 2 1 1 2 2 2 2 2
14 14 10 10 11 11 13 15 13 17 21 20 17 16 13 12 12 11 12 10 9 9 9 9 8 8 7 7 7 5 5 4 3 3 4 4 3 2 3 3 3 3 3 3
12 15 12 11 10 11 12 11 16 16 22 22 19 19 17 14 13 13 12 11 10 9 8 8 8 8 8 7 7 6 5 5 5 5 5 5 4 4 4 5 5 5 6 5
11 12 14 12 13 14 13 14 13 14 15 19 21 18 14 13 12 13 13 11 10 10 9 9 9 9 8 8 8 7 7 6 5 5 5 5 5 5 5 6 6 5 6 5
10 11 16 14 12 11 11 13 13 16 18 17 17 17 12 12 12 12 11 10 10 9 9 9 9 9 9 9 8 8 8 8 8 7 7 7 7 7 7 7 7 7 7 8
10 13 18 16 14 12 14 13 12 12 14 16 19 17 11 11 12 11 10 10 10 9 10 9 9 9 9 10 9 10 10 9 9 9 9 10 10 10 10 10 10 10 9 10
9 12 15 18 15 13 15 13 12 12 16 15 16 15 14 13 12 11 10 10 10 10 9 10 10 10 10 10 10 10 10 10 10 10 10 11 11 11 11 11 11 11 11 12
11 17 15 15 14 14 14 14 14 14 14 16 15 15 13 13 12 11 10 10 10 10 10 10 10 10 11 11 10 10 11 11 11 12 13 13 13 13 13 13 13 14 14 14
11 16 15 18 14 14 16 14 13 13 13 13 13 14 10 12 12 11 10 10 10 10 9 9 9 10 10 10 11 12 12 13 13 14 14 14 14 15 15 15 15 15 15 15
13 16 18 22 14 15 18 14 14 13 12 12 14 12 10 11 12 11 10 10 10 10 9 9 9 10 11 12 12 13 13 13 14 15 15 15 15 16 16 16 16 16 16 16
14 15 17 20 17 21 15 11 11 12 11 11 11 10 10 9 11 10 9 9 9 10 10 10 10 12 12 12 13 13 14 15 15 16 16 16 17 17 17 17 17 17 17 16
10 14 15 17 17 16 13 12 12 13 13 10 11 10 9 9 10 10 9 8 8 9 9 9 11 13 14 14 14 15 16 16 16 17 17 18 18 19 18 19 18 18 17 17
11 11 16 15 19 20 16 13 11 10 15 13 12 12 12 11 14 10 9 8 9 9 10 11 13 14 15 16 16 16 17 18 19 19 19 19 19 19 19 19 19 18 18 17
14 13 15 15 17 15 14 13 11 16 15 15 13 11 12 13 11 10 9 10 10 11 13 14 15 16 16 17 17 19 19 20 20 20 20 20 20 20 20 20 19 19 20 19
15 15 15 15 17 18 13 13 13 12 12 13 11 12 14 12 12 13 13 15 14 15 16 17 18 18 18 17 18 20 21 21 21 21 21 21 21 20 20 20 20 20 21 21
15 14 14 13 14 10 12 12 10 10 11 11 12 12 11 11 13 14 15 16 17 17 18 19 20 20 20 19 19 21 22 22 22 22 22 21 21 20 20 21 21 21 21 22
14 12 14 14 12 11 11 10 9 9 11 12 12 12 11 12 13 15 16 17 18 18 19 20 21 22 22 22 22 23 23 23 22 22 21 21 21 21 21 20 20 22 24 24
14 12 14 14 12 11 11 11 11 11 12 12 12 12 11 12 13 14 17 18 18 19 19 19 20 21 23 23 24 24 25 24 23 22 22 22 22 22 21 21 22 21 22 22
13 13 13 15 11 10 11 12 12 11 11 11 12 12 11 12 13 15 16 17 18 19 18 19 21 22 23 24 25 26 26 24 23 22 23 23 23 22 22 22 23 20 19 18

GFSCGP_con_lsi_117.txt.gz
Lid_Strength_Index
11 14 15 13 12 12 13 14 15 14 12 12 13 13 12 11 12 12 12 11 11 10 9 8 6 4 4 3 2 2 2 1 1 1 1 1 1 1 1 1 0 1 1 1
13 16 11 10 11 12 13 15 15 14 12 13 14 13 12 12 11 11 11 11 11 11 10 9 8 6 4 4 3 2 2 2 1 1 1 1 1 0 0 1 1 1 1 1
14 12 10 10 12 13 14 14 15 14 13 14 15 16 14 12 11 11 11 10 10 10 9 9 9 8 7 6 5 4 2 1 1 2 1 2 1 1 1 1 1 1 1 1
12 10 11 12 13 12 15 13 13 13 16 18 16 20 16 14 13 12 11 11 10 10 10 9 9 10 10 9 8 9 8 3 1 2 2 2 2 3 1 1 0 0 1 1
13 12 12 13 12 11 13 12 13 13 15 17 18 19 17 15 15 12 11 11 11 11 10 9 8 7 7 7 7 6 6 8 8 2 2 2 2 2 2 1 1 1 1 1
12 11 11 12 11 11 11 12 13 15 16 20 18 18 19 16 14 13 12 11 11 9 9 9 8 8 7 5 5 5 5 6 7 7 2 2 3 2 2 2 2 1 2 2
14 13 12 11 13 12 13 15 19 19 20 21 18 19 17 14 13 12 12 11 10 10 10 9 9 8 8 8 5 5 6 8 7 7 3 2 2 2 2 2 1 1 2 3
16 17 13 12 12 14 14 15 18 22 21 20 18 20 16 13 13 13 12 11 11 10 10 9 9 9 8 7 6 6 6 5 4 4 3 3 3 3 2 1 1 1 2 2
16 15 12 11 11 11 14 16 13 17 24 21 19 17 14 13 12 13 14 11 11 10 10 9 9 9 8 8 7 6 5 5 5 4 4 4 4 4 3 2 2 2 3 3
13 15 12 12 11 12 13 12 16 17 24 24 20 20 18 15 14 14 13 12 11 11 10 10 9 9 9 8 8 7 6 6 6 6 6 6 5 5 4 5 5 6 6 6
12 14 15 13 14 14 14 15 15 15 17 21 23 20 16 14 13 13 13 13 12 11 11 11 10 10 9 9 8 8 7 6 6 6 7 7 6 6 6 7 7 7 7 6
11 14 17 15 12 12 12 14 14 17 19 18 18 18 14 13 13 12 13 12 11 11 10 10 10 10 11 10 10 9 9 9 8 7 8 8 8 7 8 8 8 7 8 8
11 16 21 17 14 13 15 14 13 14 16 17 20 18 13 13 12 11 12 11 10 10 10 10 10 10 10 11 11 11 11 11 10 9 9 9 9 10 10 10 10 10 10 11
9 14 16 18 17 14 15 14 12 13 17 17 17 16 15 13 13 11 11 11 11 10 10 10 11 10 10 11 11 11 11 11 11 11 12 13 12 12 12 12 12 12 12 12
11 18 15 15 14 13 14 14 13 14 14 16 15 15 13 13 12 11 11 11 11 11 11 11 11 11 11 11 11 11 12 12 13 13 14 14 14 14 14 14 14 15 14 14
12 19 16 18 14 14 16 15 14 13 13 14 15 15 13 13 13 12 11 12 12 12 11 11 11 11 12 12 12 12 13 13 13 14 15 15 15 15 15 15 15 15 15 15
15 17 19 19 15 15 19 17 15 15 14 14 16 13 12 13 12 12 12 11 11 10 11 11 11 11 11 12 13 14 14 14 15 16 16 16 16 16 16 15 16 16 16 15
16 17 18 19 21 24 16 13 13 13 13 12 12 11 11 11 11 11 11 10 10 10 10 10 10 11 12 14 14 15 15 16 17 17 17 17 17 17 17 17 17 17 16 16
13 16 17 19 26 18 15 13 13 14 14 12 12 12 12 11 11 11 10 10 9 9 9 9 10 11 14 14 15 16 17 17 18 18 18 18 18 18 18 19 18 17 17 17
12 14 16 22 24 23 17 14 12 12 16 13 12 12 13 12 15 13 11 10 10 10 10 12 13 14 15 16 16 17 18 19 19 19 19 19 18 20 20 18 19 18 18 18
15 14 17 17 23 19 14 13 12 17 15 14 12 12 12 14 12 12 13 14 14 14 14 14 15 15 16 16 17 18 19 20 19 19 20 20 19 20 20 20 19 19 19 18
15 16 16 16 18 20 14 14 14 13 14 14 12 12 13 12 12 14 15 16 17 17 17 16 17 18 18 17 18 20 21 20 20 21 21 21 20 20 20 20 20 20 19 20
18 15 16 14 16 13 14 13 11 11 12 12 13 12 12 12 12 13 15 16 17 18 18 18 18 19 20 20 19 21 22 21 21 21 21 21 20 20 20 20 20 20 20 21
16 14 16 16 15 13 12 12 11 11 12 12 13 12 12 12 13 14 16 17 18 18 19 19 20 20 21 22 20 20 20 20 20 20 21 21 21 21 21 20 20 21 21 22
15 13 16 17 14 12 12 12 12 12 12 12 12 12 12 13 13 14 16 17 18 19 19 19 20 20 21 21 22 22 22 21 20 21 21 21 22 22 21 21 21 20 20 21
15 14 14 15 12 12 12 12 12 12 12 12 13 13 12 12 13 15 17 17 18 19 19 20 20 20 21 22 24 23 22 21 20 22 22 22 22 22 22 22 22 19 18 17

GFSCGP_con_lsi_120.txt.gz
Lid_Strength_Index
12 15 17 15 15 14 15 15 15 15 13 13 13 13 12 12 12 12 12 12 12 11 10 10 7 4 3 1 2 2 2 2 1 1 1 1 1 1 1 1 1 0 -0 0
14 16 14 14 14 14 15 16 16 14 13 15 15 14 12 12 12 12 11 12 12 11 10 10 9 7 4 2 2 2 2 2 2 1 1 0 1 1 0 0 1 0 0 0
15 13 11 13 15 15 17 15 15 15 14 15 16 16 15 13 12 12 11 11 11 10 10 10 10 9 6 3 2 2 2 2 2 2 1 2 1 1 1 1 1 1 1 1
14 12 12 14 14 13 15 13 13 14 16 18 17 20 17 15 14 13 11 11 10 10 11 10 10 10 9 6 7 4 2 2 2 2 2 2 2 3 1 1 1 1 1 1
14 14 14 14 13 12 13 12 13 14 16 18 18 20 17 16 15 13 12 12 10 11 11 10 10 9 8 8 8 9 10 7 2 2 2 2 2 2 2 2 2 1 1 1
12 12 12 12 12 12 12 13 14 15 17 20 18 18 19 17 14 13 13 12 12 11 11 10 9 8 7 6 6 6 6 8 9 5 2 2 2 3 4 2 2 1 1 1
14 14 13 12 13 12 13 15 19 20 20 21 19 20 18 15 14 14 13 12 12 10 10 10 9 8 8 8 6 5 6 7 7 8 6 2 2 3 3 3 1 2 2 2
17 17 14 12 13 14 15 15 19 22 22 20 18 20 17 14 14 13 13 13 11 10 10 10 10 10 9 9 7 6 6 6 5 8 8 3 2 2 2 3 1 1 1 1
17 16 13 13 12 11 14 16 14 18 24 21 19 18 15 13 13 14 14 13 11 11 10 10 10 9 9 9 8 7 7 7 6 5 4 4 3 4 4 4 3 1 2 3
14 16 13 13 11 12 13 12 16 18 23 23 20 20 18 16 14 15 13 13 12 11 10 10 10 10 9 10 9 7 6 6 7 7 6 5 4 5 5 6 5 5 5 5
12 13 15 13 14 15 15 16 16 15 18 21 23 20 16 15 14 14 14 13 12 11 10 10 10 10 10 10 9 9 8 7 7 7 7 7 7 7 7 7 7 7 7 7
11 13 16 16 14 13 13 13 13 17 20 20 19 19 15 15 13 13 13 14 13 11 10 10 10 11 11 11 11 11 10 9 9 9 10 9 9 8 8 8 8 8 9 9
12 15 19 16 14 14 15 15 14 15 16 18 20 20 13 14 13 12 12 12 11 11 11 11 11 11 11 11 11 11 11 11 11 10 11 11 11 11 10 10 10 10 10 11
9 14 16 18 17 14 16 14 14 14 17 18 17 18 16 14 13 12 11 12 11 11 11 11 11 11 11 11 11 12 11 11 12 11 10 11 11 11 11 11 12 12 11 12
12 19 16 16 15 14 15 15 14 15 14 16 16 16 15 13 13 14 12 12 11 11 11 11 11 12 12 12 12 12 12 12 13 13 13 13 13 13 14 14 15 15 15 15
12 19 16 18 15 15 16 15 13 13 14 15 16 16 13 13 12 12 12 12 11 11 11 11 12 12 12 12 13 13 14 14 14 15 15 15 15 15 15 16 16 16 16 16
13 16 19 22 16 16 19 16 15 15 14 14 16 13 12 13 13 13 13 13 12 11 11 11 11 11 12 12 13 14 15 15 16 17 17 17 16 16 16 16 17 17 17 16
15 15 16 19 18 21 16 14 13 14 13 13 13 13 13 13 13 12 13 13 12 12 11 11 11 11 12 13 14 15 16 16 17 17 17 17 17 18 18 18 18 18 17 17
12 14 17 18 26 19 16 15 15 15 15 13 13 13 13 13 13 13 12 12 11 11 10 10 10 11 13 13 15 16 16 16 17 18 18 18 18 19 19 20 19 19 18 18
13 14 14 22 21 23 17 15 13 13 17 14 13 13 13 13 15 13 12 13 13 13 12 12 13 14 14 15 15 16 17 18 18 18 18 18 19 21 21 20 21 21 20 18
17 17 19 24 24 20 16 14 13 17 16 16 13 13 13 14 12 12 13 14 15 16 15 15 15 15 15 15 15 17 18 19 19 19 19 20 20 21 21 22 21 21 19 18
17 17 19 21 23 20 15 14 15 14 15 15 14 14 14 13 13 14 14 15 16 17 16 16 17 17 17 16 16 18 19 19 19 20 21 22 23 20 21 21 20 20 19 19
17 15 17 16 16 14 14 14 13 13 13 13 13 13 13 13 13 14 15 16 16 17 17 18 19 19 20 19 18 19 20 19 20 21 22 20 19 19 19 19 20 20 20 20
16 14 17 16 15 14 13 13 13 12 12 12 13 13 13 14 13 14 15 16 17 19 19 20 20 21 22 22 20 21 21 20 20 19 19 19 20 20 20 19 19 20 20 21
14 14 15 18 15 14 14 14 13 13 13 13 13 13 14 14 14 14 17 18 18 19 20 20 20 21 23 23 22 20 19 18 18 18 19 20 19 20 20 20 20 20 20 20
15 15 15 16 12 13 14 14 14 14 14 13 14 15 15 14 14 15 17 17 19 20 20 21 21 22 24 24 21 20 19 18 18 19 19 20 20 20 20 21 21 18 18 17

GFSCGP_con_lsi_123.txt.gz
Lid_Strength_Index
13 15 17 17 16 15 16 16 16 17 13 13 14 13 13 13 14 13 12 12 12 10 8 9 6 4 4 3 3 3 2 2 1 1 1 1 1 1 1 1 0 -0 -0 0
15 17 14 13 14 15 16 17 17 15 13 14 15 14 13 13 12 12 12 13 12 11 11 10 11 8 4 3 2 2 2 2 1 1 1 1 1 0 0 -0 1 0 0 0
17 15 12 13 15 15 18 18 18 16 16 16 16 16 15 13 13 12 12 11 11 10 10 10 11 10 6 3 2 2 2 2 2 1 2 2 1 1 1 1 1 1 1 1
15 13 13 15 16 16 18 16 16 16 17 19 17 20 18 16 14 14 12 11 11 10 11 10 11 11 9 4 3 2 1 2 2 2 2 2 2 3 1 1 2 1 1 1
16 15 14 15 15 15 17 15 16 17 18 19 19 20 18 18 16 14 12 12 11 11 11 11 11 11 11 8 6 5 3 3 2 2 2 2 2 2 3 3 2 2 2 2
14 13 13 13 14 14 14 16 17 18 19 22 19 18 19 18 15 14 14 13 12 12 12 10 9 8 8 7 7 7 8 8 5 3 2 3 3 3 4 4 3 2 1 1
16 15 14 13 14 14 16 17 20 21 21 23 20 20 18 15 14 14 14 13 13 12 11 10 9 9 8 8 7 6 6 7 8 10 6 2 2 2 3 3 3 2 2 2
17 19 15 13 14 16 16 16 20 24 23 22 19 20 18 14 13 13 14 14 12 11 11 10 10 9 9 8 7 7 8 8 7 7 9 8 1 1 1 1 2 3 3 1
18 17 14 13 13 12 16 17 15 19 25 22 20 19 15 14 14 14 14 13 12 12 11 10 10 10 9 9 9 8 8 7 7 7 6 8 7 1 1 2 3 3 3 3
14 17 14 13 12 13 14 13 16 18 23 23 20 20 18 16 14 14 14 13 13 12 11 11 10 10 10 10 9 8 8 8 8 8 5 4 3 3 2 2 3 4 4 5
14 14 16 14 14 16 15 16 17 16 18 22 23 20 17 15 15 14 14 13 13 12 11 11 10 10 10 10 10 9 9 8 8 8 6 5 5 5 5 5 6 7 7 6
13 14 17 16 14 14 14 14 14 16 20 21 20 19 15 15 15 14 14 14 14 12 11 11 10 11 11 11 11 10 10 10 10 10 10 9 8 7 7 8 9 8 8 8
12 15 19 16 14 14 15 15 15 16 17 20 21 20 14 14 14 13 12 12 12 12 12 11 11 11 11 12 11 11 11 11 11 11 11 10 10 10 10 10 9 9 10 11
9 14 15 17 17 15 16 15 14 14 17 18 18 18 16 15 13 13 12 12 11 11 11 11 11 11 11 11 11 12 12 12 12 11 11 12 11 11 11 11 11 12 11 12
11 16 15 16 15 13 15 14 14 14 14 16 16 16 15 14 13 13 13 11 11 11 11 11 11 12 12 12 12 12 12 13 13 13 13 13 13 13 13 14 14 14 14 14
13 19 16 17 15 15 15 14 14 14 14 16 18 17 14 13 14 13 12 12 13 12 12 11 11 11 12 12 13 13 13 14 14 15 15 15 15 15 15 15 16 16 16 16
13 17 19 22 16 15 18 16 15 15 15 15 17 14 13 15 13 12 13 13 13 12 12 12 12 12 12 12 12 13 14 15 15 15 16 16 16 16 16 16 16 17 17 16
14 15 16 21 19 21 16 14 13 14 14 12 14 14 13 12 13 12 12 12 12 12 12 12 12 12 12 13 13 14 15 15 16 16 16 16 17 17 17 17 17 17 17 17
12 13 17 19 26 19 17 16 15 15 14 13 13 13 13 12 12 13 12 13 13 13 13 13 12 12 13 14 15 15 16 16 16 17 17 17 17 18 18 19 18 18 18 18
13 12 14 21 21 22 17 14 13 12 16 14 13 14 14 13 16 14 13 14 15 15 15 15 15 14 15 15 15 16 17 17 18 18 17 18 18 19 20 19 20 21 21 19
17 17 15 21 21 20 16 14 14 17 17 17 14 14 14 14 13 13 14 15 16 16 16 16 16 16 16 16 16 17 18 18 19 19 19 19 20 20 20 21 22 22 20 19
15 15 18 22 22 19 15 15 15 14 15 16 14 14 14 14 13 14 14 15 16 17 17 17 18 18 17 17 17 18 19 19 19 20 20 22 23 20 21 22 21 18 18 19
15 14 17 15 16 15 15 14 13 14 14 14 14 14 13 13 14 14 14 15 16 18 17 19 20 20 20 19 18 19 20 20 21 21 23 23 20 18 17 18 18 19 20 20
17 15 14 15 15 15 13 13 13 13 13 13 13 14 13 13 14 14 15 15 16 19 18 21 21 21 22 23 21 21 21 21 22 22 20 18 18 19 19 19 18 19 19 19
15 14 17 18 16 14 14 13 13 13 13 14 14 14 13 13 14 14 17 17 17 18 20 21 21 21 23 25 25 23 21 20 20 19 19 19 19 19 20 20 19 18 18 17
16 16 15 17 13 13 13 13 13 13 14 14 14 15 15 14 14 16 18 16 18 19 21 22 22 23 24 26 25 24 21 19 20 20 20 20 21 20 19 17 17 15 15 14

GFSCGP_con_lsi_129.txt.gz
Lid_Strength_Index
14 15 18 15 16 16 18 17 18 17 16 16 15 13 12 12 14 12 12 10 7 5 4 3 3 3 2 1 1 2 2 2 2 2 2 1 1 1 0 -0 -1 -1 -1 -0
16 17 15 14 15 16 18 17 18 17 16 16 16 15 13 13 12 12 11 11 10 9 7 6 4 3 3 2 2 2 2 2 2 1 1 1 1 0 -0 -1 -1 -1 -1 -1
18 16 15 15 17 17 18 18 18 18 18 17 18 17 15 13 12 12 11 11 11 10 8 8 8 7 4 3 2 2 1 1 1 1 2 2 1 1 1 1 0 -0 -1 -1
17 15 16 17 18 17 19 17 17 17 18 19 18 21 18 15 14 13 11 11 10 10 10 10 10 10 10 7 2 1 1 1 1 1 2 2 2 2 1 1 0 1 0 -0
18 17 17 18 17 16 17 16 16 17 19 20 20 21 19 18 17 15 13 11 10 9 10 10 11 10 10 10 7 3 1 1 1 1 1 2 2 1 1 2 2 2 1 1
16 16 14 15 17 16 16 17 17 19 19 22 21 20 20 19 16 14 13 12 11 12 12 11 11 11 10 8 7 4 2 2 2 1 1 1 2 2 3 3 3 2 2 2
18 18 17 16 17 17 18 18 21 21 22 22 21 22 18 16 16 16 15 14 13 12 13 12 10 9 8 8 8 7 3 3 3 1 1 1 2 2 2 3 3 2 2 2
19 21 17 16 17 18 18 17 21 24 24 22 20 21 18 16 15 15 15 15 13 12 12 11 10 10 8 8 7 7 7 7 7 7 6 7 6 2 1 1 1 2 1 1
20 19 16 16 16 14 18 19 17 21 27 23 21 19 16 16 16 16 16 16 14 13 12 11 11 10 10 9 7 7 7 7 6 5 5 5 6 7 7 5 2 1 0 1
17 19 17 16 15 16 16 15 18 20 25 26 22 21 19 18 17 16 15 15 14 12 12 11 10 10 10 9 8 8 7 7 7 6 4 4 4 4 4 5 4 2 2 1
16 17 19 17 18 18 18 18 19 18 19 23 25 21 18 17 16 16 15 14 13 12 11 11 10 10 10 10 9 8 8 7 7 6 5 5 5 4 4 4 4 3 4 3
15 17 20 19 17 16 17 16 16 18 21 21 20 19 17 16 15 16 15 14 13 12 11 11 11 10 10 10 10 9 9 9 9 8 6 6 6 6 6 7 7 6 7 7
15 18 21 19 17 17 18 18 17 17 17 20 20 20 16 15 15 15 14 14 13 12 12 11 11 11 11 11 11 10 10 10 10 9 9 9 8 8 8 8 8 8 9 10
12 17 18 20 19 17 18 18 17 16 18 20 20 18 17 15 15 14 13 13 12 12 11 11 12 11 11 11 11 11 11 11 11 10 10 11 10 10 10 10 10 10 11 12
13 18 18 18 17 16 17 16 16 15 14 16 16 16 15 14 13 13 12 11 11 11 12 13 12 12 12 12 12 12 12 12 11 11 11 12 12 12 13 13 13 14 13 13
15 19 17 19 16 16 17 16 15 14 14 15 18 18 14 14 13 13 13 11 11 11 11 12 12 12 12 12 12 12 12 13 12 12 13 14 14 14 15 15 14 14 14 13
15 17 18 21 17 15 18 16 15 14 16 14 17 15 14 15 13 13 13 12 12 12 12 12 12 12 12 11 11 11 12 13 13 13 14 15 15 16 15 15 15 15 14 14
14 15 16 19 18 20 16 14 13 14 14 13 16 14 14 13 12 12 13 13 13 12 11 12 12 12 12 12 12 13 13 14 14 15 16 16 16 16 16 16 16 16 15 15
13 14 19 19 24 18 17 17 17 16 15 14 14 14 14 14 13 14 12 12 11 12 13 13 14 13 13 13 13 14 14 15 15 16 17 17 17 17 17 18 17 17 16 16
15 15 16 26 23 23 17 15 15 13 17 14 13 14 14 13 14 11 11 12 13 14 14 15 14 14 14 15 15 15 16 16 17 17 17 17 17 18 18 17 18 19 18 17
21 21 17 26 26 21 17 16 14 18 16 15 14 13 13 12 10 11 12 13 14 15 15 16 15 15 15 16 16 16 17 17 17 18 18 18 18 18 18 19 19 19 18 18
19 20 20 25 24 19 16 16 15 14 15 15 14 13 13 14 14 14 15 15 15 16 16 16 17 17 17 17 17 17 17 18 19 19 19 20 21 19 20 21 21 20 20 20
18 16 18 15 16 15 15 15 13 13 13 13 13 13 13 14 15 15 16 16 16 16 17 19 18 20 20 20 19 18 19 20 20 21 23 23 22 21 21 20 20 20 21 20
16 15 16 15 15 15 14 14 13 13 13 13 13 13 12 13 14 15 16 16 17 18 18 20 19 20 20 21 20 20 20 20 22 23 23 23 22 22 22 20 19 19 20 20
14 14 17 18 16 14 14 14 13 13 13 13 13 13 13 14 14 15 16 17 16 17 20 20 19 20 20 22 23 24 22 22 22 23 23 22 22 21 21 20 20 19 20 18
15 15 14 16 13 12 12 12 13 12 13 13 13 15 15 14 15 16 17 17 18 18 20 20 21 22 22 23 23 24 24 22 23 23 22 21 21 21 21 21 21 16 17 15